<?xml version="1.0" encoding="utf-8"?>
<gpx xmlns:xsi="http://www.w3.org/2001/XMLSchema-instance" xmlns:xsd="http://www.w3.org/2001/XMLSchema" version="1.1" creator="Shapelink.com" xmlns="http://www.topografix.com/GPX/1/1" xmlns:gpxtpx="http://www.garmin.com/xmlschemas/TrackPointExtension/v1">
  <metadata>
    <name>Løping 4.50 km, 2014-06-21</name>
    <desc></desc>
    <author><name>Mikael Blom</name></author> 
    <time>2014-06-21T07:46:13Z</time>
  </metadata>
  <trk>
    <name>Løping 4.50 km, 2014-06-21</name>
    <trkseg>
      <trkpt lat="59.9788391" lon="17.739399">
        <ele>17.9218</ele>
        <time>2014-06-21T07:46:13Z</time>
      </trkpt>
      <trkpt lat="59.9788309" lon="17.739404">
        <ele>21.767</ele>
        <time>2014-06-21T07:46:14Z</time>
      </trkpt>
      <trkpt lat="59.978816" lon="17.7394142">
        <ele>25.1317</ele>
        <time>2014-06-21T07:46:15Z</time>
      </trkpt>
      <trkpt lat="59.9787947" lon="17.7394176">
        <ele>29.9381</ele>
        <time>2014-06-21T07:46:16Z</time>
      </trkpt>
      <trkpt lat="59.9787688" lon="17.7394132">
        <ele>33.3029</ele>
        <time>2014-06-21T07:46:17Z</time>
      </trkpt>
      <trkpt lat="59.9787248" lon="17.7394175">
        <ele>36.1868</ele>
        <time>2014-06-21T07:46:18Z</time>
      </trkpt>
      <trkpt lat="59.9786873" lon="17.7394233">
        <ele>37.1481</ele>
        <time>2014-06-21T07:46:19Z</time>
      </trkpt>
      <trkpt lat="59.9786651" lon="17.7394108">
        <ele>40.9934</ele>
        <time>2014-06-21T07:46:20Z</time>
      </trkpt>
      <trkpt lat="59.9786407" lon="17.7394014">
        <ele>43.8773</ele>
        <time>2014-06-21T07:46:21Z</time>
      </trkpt>
      <trkpt lat="59.9786195" lon="17.7393924">
        <ele>45.7999</ele>
        <time>2014-06-21T07:46:22Z</time>
      </trkpt>
      <trkpt lat="59.9785921" lon="17.7393812">
        <ele>46.2806</ele>
        <time>2014-06-21T07:46:23Z</time>
      </trkpt>
      <trkpt lat="59.978566" lon="17.7393645">
        <ele>46.7612</ele>
        <time>2014-06-21T07:46:24Z</time>
      </trkpt>
      <trkpt lat="59.9785316" lon="17.7393465">
        <ele>46.7612</ele>
        <time>2014-06-21T07:46:25Z</time>
      </trkpt>
      <trkpt lat="59.978503" lon="17.7393419">
        <ele>48.684</ele>
        <time>2014-06-21T07:46:26Z</time>
      </trkpt>
      <trkpt lat="59.9784802" lon="17.7393339">
        <ele>48.684</ele>
        <time>2014-06-21T07:46:27Z</time>
      </trkpt>
      <trkpt lat="59.9784507" lon="17.7393252">
        <ele>50.126</ele>
        <time>2014-06-21T07:46:28Z</time>
      </trkpt>
      <trkpt lat="59.9784163" lon="17.7393254">
        <ele>51.0872</ele>
        <time>2014-06-21T07:46:29Z</time>
      </trkpt>
      <trkpt lat="59.978392" lon="17.7393235">
        <ele>52.0486</ele>
        <time>2014-06-21T07:46:30Z</time>
      </trkpt>
      <trkpt lat="59.9783687" lon="17.7393201">
        <ele>53.0098</ele>
        <time>2014-06-21T07:46:31Z</time>
      </trkpt>
      <trkpt lat="59.9783393" lon="17.7393082">
        <ele>54.4518</ele>
        <time>2014-06-21T07:46:32Z</time>
      </trkpt>
      <trkpt lat="59.9783057" lon="17.7393002">
        <ele>57.3358</ele>
        <time>2014-06-21T07:46:33Z</time>
      </trkpt>
      <trkpt lat="59.9782672" lon="17.7392868">
        <ele>58.2971</ele>
        <time>2014-06-21T07:46:34Z</time>
      </trkpt>
      <trkpt lat="59.978225" lon="17.739279">
        <ele>58.2971</ele>
        <time>2014-06-21T07:46:35Z</time>
      </trkpt>
      <trkpt lat="59.9781803" lon="17.7392663">
        <ele>59.7391</ele>
        <time>2014-06-21T07:46:36Z</time>
      </trkpt>
      <trkpt lat="59.9781371" lon="17.7392581">
        <ele>62.1423</ele>
        <time>2014-06-21T07:46:37Z</time>
      </trkpt>
      <trkpt lat="59.9781021" lon="17.7392515">
        <ele>64.5457</ele>
        <time>2014-06-21T07:46:38Z</time>
      </trkpt>
      <trkpt lat="59.9780659" lon="17.7392357">
        <ele>66.4683</ele>
        <time>2014-06-21T07:46:39Z</time>
      </trkpt>
      <trkpt lat="59.9780249" lon="17.7392237">
        <ele>67.9103</ele>
        <time>2014-06-21T07:46:40Z</time>
      </trkpt>
      <trkpt lat="59.9779824" lon="17.7392103">
        <ele>67.4297</ele>
        <time>2014-06-21T07:46:41Z</time>
      </trkpt>
      <trkpt lat="59.9779473" lon="17.7391823">
        <ele>66.949</ele>
        <time>2014-06-21T07:46:42Z</time>
      </trkpt>
      <trkpt lat="59.9779104" lon="17.7391507">
        <ele>66.4683</ele>
        <time>2014-06-21T07:46:43Z</time>
      </trkpt>
      <trkpt lat="59.9778773" lon="17.7391086">
        <ele>65.9877</ele>
        <time>2014-06-21T07:46:44Z</time>
      </trkpt>
      <trkpt lat="59.9778408" lon="17.7390694">
        <ele>65.0264</ele>
        <time>2014-06-21T07:46:45Z</time>
      </trkpt>
      <trkpt lat="59.9778124" lon="17.7390284">
        <ele>65.0264</ele>
        <time>2014-06-21T07:46:46Z</time>
      </trkpt>
      <trkpt lat="59.9777683" lon="17.7389788">
        <ele>64.0651</ele>
        <time>2014-06-21T07:46:47Z</time>
      </trkpt>
      <trkpt lat="59.9777378" lon="17.7389501">
        <ele>63.1036</ele>
        <time>2014-06-21T07:46:48Z</time>
      </trkpt>
      <trkpt lat="59.977722" lon="17.7389397">
        <ele>62.1423</ele>
        <time>2014-06-21T07:46:49Z</time>
      </trkpt>
      <trkpt lat="59.9777002" lon="17.7389327">
        <ele>61.181</ele>
        <time>2014-06-21T07:46:50Z</time>
      </trkpt>
      <trkpt lat="59.9776912" lon="17.7389259">
        <ele>61.181</ele>
        <time>2014-06-21T07:46:51Z</time>
      </trkpt>
      <trkpt lat="59.9776764" lon="17.7389276">
        <ele>60.7003</ele>
        <time>2014-06-21T07:46:52Z</time>
      </trkpt>
      <trkpt lat="59.9776586" lon="17.7389324">
        <ele>60.7003</ele>
        <time>2014-06-21T07:46:53Z</time>
      </trkpt>
      <trkpt lat="59.9776353" lon="17.7389321">
        <ele>60.2197</ele>
        <time>2014-06-21T07:46:54Z</time>
      </trkpt>
      <trkpt lat="59.977611" lon="17.7389404">
        <ele>60.2197</ele>
        <time>2014-06-21T07:46:55Z</time>
      </trkpt>
      <trkpt lat="59.9775902" lon="17.7389431">
        <ele>60.7003</ele>
        <time>2014-06-21T07:46:56Z</time>
      </trkpt>
      <trkpt lat="59.9775626" lon="17.7389461">
        <ele>59.2584</ele>
        <time>2014-06-21T07:46:57Z</time>
      </trkpt>
      <trkpt lat="59.9775359" lon="17.7389527">
        <ele>58.7777</ele>
        <time>2014-06-21T07:46:58Z</time>
      </trkpt>
      <trkpt lat="59.9775217" lon="17.7389617">
        <ele>58.7777</ele>
        <time>2014-06-21T07:46:59Z</time>
      </trkpt>
      <trkpt lat="59.9775105" lon="17.738964">
        <ele>57.8165</ele>
        <time>2014-06-21T07:47:00Z</time>
      </trkpt>
      <trkpt lat="59.9774934" lon="17.7389675">
        <ele>58.7777</ele>
        <time>2014-06-21T07:47:01Z</time>
      </trkpt>
      <trkpt lat="59.9774711" lon="17.7389803">
        <ele>59.7391</ele>
        <time>2014-06-21T07:47:02Z</time>
      </trkpt>
      <trkpt lat="59.9774481" lon="17.7389865">
        <ele>59.7391</ele>
        <time>2014-06-21T07:47:03Z</time>
      </trkpt>
      <trkpt lat="59.9774305" lon="17.7389877">
        <ele>60.2197</ele>
        <time>2014-06-21T07:47:04Z</time>
      </trkpt>
      <trkpt lat="59.9774044" lon="17.7389991">
        <ele>61.6617</ele>
        <time>2014-06-21T07:47:05Z</time>
      </trkpt>
      <trkpt lat="59.9773784" lon="17.7390128">
        <ele>62.1423</ele>
        <time>2014-06-21T07:47:06Z</time>
      </trkpt>
      <trkpt lat="59.9773454" lon="17.739045">
        <ele>64.0651</ele>
        <time>2014-06-21T07:47:07Z</time>
      </trkpt>
      <trkpt lat="59.977326" lon="17.7390548">
        <ele>64.5457</ele>
        <time>2014-06-21T07:47:08Z</time>
      </trkpt>
      <trkpt lat="59.9773094" lon="17.7390646">
        <ele>64.5457</ele>
        <time>2014-06-21T07:47:09Z</time>
      </trkpt>
      <trkpt lat="59.9772862" lon="17.7390739">
        <ele>65.0264</ele>
        <time>2014-06-21T07:47:10Z</time>
      </trkpt>
      <trkpt lat="59.9772571" lon="17.7390968">
        <ele>64.5457</ele>
        <time>2014-06-21T07:47:11Z</time>
      </trkpt>
      <trkpt lat="59.9772308" lon="17.7391224">
        <ele>64.5457</ele>
        <time>2014-06-21T07:47:12Z</time>
      </trkpt>
      <trkpt lat="59.9772074" lon="17.739144">
        <ele>64.5457</ele>
        <time>2014-06-21T07:47:13Z</time>
      </trkpt>
      <trkpt lat="59.9771904" lon="17.7391516">
        <ele>65.0264</ele>
        <time>2014-06-21T07:47:14Z</time>
      </trkpt>
      <trkpt lat="59.977181" lon="17.7391601">
        <ele>64.0651</ele>
        <time>2014-06-21T07:47:15Z</time>
      </trkpt>
      <trkpt lat="59.9771677" lon="17.7391705">
        <ele>64.5457</ele>
        <time>2014-06-21T07:47:16Z</time>
      </trkpt>
      <trkpt lat="59.9771557" lon="17.7391969">
        <ele>65.5071</ele>
        <time>2014-06-21T07:47:17Z</time>
      </trkpt>
      <trkpt lat="59.9771431" lon="17.7392227">
        <ele>65.9877</ele>
        <time>2014-06-21T07:47:18Z</time>
      </trkpt>
      <trkpt lat="59.9771291" lon="17.739251">
        <ele>65.9877</ele>
        <time>2014-06-21T07:47:19Z</time>
      </trkpt>
      <trkpt lat="59.9771055" lon="17.739266">
        <ele>66.4683</ele>
        <time>2014-06-21T07:47:20Z</time>
      </trkpt>
      <trkpt lat="59.9770847" lon="17.7392787">
        <ele>65.5071</ele>
        <time>2014-06-21T07:47:21Z</time>
      </trkpt>
      <trkpt lat="59.9770603" lon="17.7392937">
        <ele>65.5071</ele>
        <time>2014-06-21T07:47:22Z</time>
      </trkpt>
      <trkpt lat="59.9770363" lon="17.7393029">
        <ele>65.0264</ele>
        <time>2014-06-21T07:47:23Z</time>
      </trkpt>
      <trkpt lat="59.9770091" lon="17.7393037">
        <ele>64.5457</ele>
        <time>2014-06-21T07:47:24Z</time>
      </trkpt>
      <trkpt lat="59.9769816" lon="17.7393056">
        <ele>64.5457</ele>
        <time>2014-06-21T07:47:25Z</time>
      </trkpt>
      <trkpt lat="59.9769567" lon="17.7393179">
        <ele>64.0651</ele>
        <time>2014-06-21T07:47:26Z</time>
      </trkpt>
      <trkpt lat="59.9769424" lon="17.7393252">
        <ele>64.0651</ele>
        <time>2014-06-21T07:47:27Z</time>
      </trkpt>
      <trkpt lat="59.9769224" lon="17.7393325">
        <ele>63.5844</ele>
        <time>2014-06-21T07:47:28Z</time>
      </trkpt>
      <trkpt lat="59.9768993" lon="17.7393378">
        <ele>62.6229</ele>
        <time>2014-06-21T07:47:29Z</time>
      </trkpt>
      <trkpt lat="59.9768667" lon="17.7393465">
        <ele>63.1036</ele>
        <time>2014-06-21T07:47:30Z</time>
      </trkpt>
      <trkpt lat="59.9768293" lon="17.7393672">
        <ele>62.6229</ele>
        <time>2014-06-21T07:47:31Z</time>
      </trkpt>
      <trkpt lat="59.9767201" lon="17.73945">
        <ele>51.5679</ele>
        <time>2014-06-21T07:47:32Z</time>
      </trkpt>
      <trkpt lat="59.9766724" lon="17.7394801">
        <ele>47.2418</ele>
        <time>2014-06-21T07:47:33Z</time>
      </trkpt>
      <trkpt lat="59.9766347" lon="17.7394967">
        <ele>43.8773</ele>
        <time>2014-06-21T07:47:34Z</time>
      </trkpt>
      <trkpt lat="59.9766003" lon="17.7395257">
        <ele>41.9547</ele>
        <time>2014-06-21T07:47:35Z</time>
      </trkpt>
      <trkpt lat="59.9765759" lon="17.7395651">
        <ele>39.5513</ele>
        <time>2014-06-21T07:47:36Z</time>
      </trkpt>
      <trkpt lat="59.9765578" lon="17.7395936">
        <ele>38.5901</ele>
        <time>2014-06-21T07:47:37Z</time>
      </trkpt>
      <trkpt lat="59.9765372" lon="17.7396129">
        <ele>37.6287</ele>
        <time>2014-06-21T07:47:38Z</time>
      </trkpt>
      <trkpt lat="59.9765178" lon="17.7396433">
        <ele>37.6287</ele>
        <time>2014-06-21T07:47:39Z</time>
      </trkpt>
      <trkpt lat="59.9764941" lon="17.7396671">
        <ele>37.6287</ele>
        <time>2014-06-21T07:47:40Z</time>
      </trkpt>
      <trkpt lat="59.9764754" lon="17.7396838">
        <ele>35.7061</ele>
        <time>2014-06-21T07:47:41Z</time>
      </trkpt>
      <trkpt lat="59.9764437" lon="17.7397232">
        <ele>36.1868</ele>
        <time>2014-06-21T07:47:42Z</time>
      </trkpt>
      <trkpt lat="59.9764168" lon="17.7397439">
        <ele>35.2255</ele>
        <time>2014-06-21T07:47:43Z</time>
      </trkpt>
      <trkpt lat="59.9763785" lon="17.7397735">
        <ele>36.1868</ele>
        <time>2014-06-21T07:47:44Z</time>
      </trkpt>
      <trkpt lat="59.9763461" lon="17.7397884">
        <ele>36.1868</ele>
        <time>2014-06-21T07:47:45Z</time>
      </trkpt>
      <trkpt lat="59.9763077" lon="17.739797">
        <ele>36.1868</ele>
        <time>2014-06-21T07:47:46Z</time>
      </trkpt>
      <trkpt lat="59.9762752" lon="17.7397816">
        <ele>35.7061</ele>
        <time>2014-06-21T07:47:47Z</time>
      </trkpt>
      <trkpt lat="59.9762491" lon="17.7397613">
        <ele>35.2255</ele>
        <time>2014-06-21T07:47:48Z</time>
      </trkpt>
      <trkpt lat="59.9762259" lon="17.7397405">
        <ele>35.2255</ele>
        <time>2014-06-21T07:47:49Z</time>
      </trkpt>
      <trkpt lat="59.9762035" lon="17.7397224">
        <ele>35.2255</ele>
        <time>2014-06-21T07:47:50Z</time>
      </trkpt>
      <trkpt lat="59.9761803" lon="17.7396939">
        <ele>34.7449</ele>
        <time>2014-06-21T07:47:51Z</time>
      </trkpt>
      <trkpt lat="59.9761594" lon="17.7396661">
        <ele>34.7449</ele>
        <time>2014-06-21T07:47:52Z</time>
      </trkpt>
      <trkpt lat="59.9761404" lon="17.7396318">
        <ele>33.7834</ele>
        <time>2014-06-21T07:47:53Z</time>
      </trkpt>
      <trkpt lat="59.9761175" lon="17.7395834">
        <ele>33.7834</ele>
        <time>2014-06-21T07:47:54Z</time>
      </trkpt>
      <trkpt lat="59.976093" lon="17.7395444">
        <ele>33.7834</ele>
        <time>2014-06-21T07:47:55Z</time>
      </trkpt>
      <trkpt lat="59.976073" lon="17.7395075">
        <ele>33.3029</ele>
        <time>2014-06-21T07:47:56Z</time>
      </trkpt>
      <trkpt lat="59.9760537" lon="17.7394648">
        <ele>32.8223</ele>
        <time>2014-06-21T07:47:57Z</time>
      </trkpt>
      <trkpt lat="59.9760305" lon="17.7394274">
        <ele>33.3029</ele>
        <time>2014-06-21T07:47:58Z</time>
      </trkpt>
      <trkpt lat="59.9760105" lon="17.7393869">
        <ele>33.3029</ele>
        <time>2014-06-21T07:47:59Z</time>
      </trkpt>
      <trkpt lat="59.9759933" lon="17.7393423">
        <ele>32.8223</ele>
        <time>2014-06-21T07:48:00Z</time>
      </trkpt>
      <trkpt lat="59.9759758" lon="17.7392936">
        <ele>32.3416</ele>
        <time>2014-06-21T07:48:01Z</time>
      </trkpt>
      <trkpt lat="59.9759555" lon="17.7392404">
        <ele>32.3416</ele>
        <time>2014-06-21T07:48:02Z</time>
      </trkpt>
      <trkpt lat="59.9759382" lon="17.7391944">
        <ele>31.8607</ele>
        <time>2014-06-21T07:48:03Z</time>
      </trkpt>
      <trkpt lat="59.9759192" lon="17.7391599">
        <ele>31.8607</ele>
        <time>2014-06-21T07:48:04Z</time>
      </trkpt>
      <trkpt lat="59.9759" lon="17.7391241">
        <ele>31.3801</ele>
        <time>2014-06-21T07:48:05Z</time>
      </trkpt>
      <trkpt lat="59.9758812" lon="17.7390906">
        <ele>30.8995</ele>
        <time>2014-06-21T07:48:06Z</time>
      </trkpt>
      <trkpt lat="59.9758622" lon="17.7390552">
        <ele>30.4188</ele>
        <time>2014-06-21T07:48:07Z</time>
      </trkpt>
      <trkpt lat="59.9758421" lon="17.7390247">
        <ele>29.9381</ele>
        <time>2014-06-21T07:48:08Z</time>
      </trkpt>
      <trkpt lat="59.9758259" lon="17.7389964">
        <ele>29.4575</ele>
        <time>2014-06-21T07:48:09Z</time>
      </trkpt>
      <trkpt lat="59.9758068" lon="17.738956">
        <ele>28.9769</ele>
        <time>2014-06-21T07:48:10Z</time>
      </trkpt>
      <trkpt lat="59.9757885" lon="17.7389197">
        <ele>28.9769</ele>
        <time>2014-06-21T07:48:11Z</time>
      </trkpt>
      <trkpt lat="59.9757761" lon="17.73889">
        <ele>28.4962</ele>
        <time>2014-06-21T07:48:12Z</time>
      </trkpt>
      <trkpt lat="59.9757613" lon="17.7388476">
        <ele>28.0155</ele>
        <time>2014-06-21T07:48:13Z</time>
      </trkpt>
      <trkpt lat="59.9757437" lon="17.7388038">
        <ele>28.0155</ele>
        <time>2014-06-21T07:48:14Z</time>
      </trkpt>
      <trkpt lat="59.9757242" lon="17.7387703">
        <ele>28.4962</ele>
        <time>2014-06-21T07:48:15Z</time>
      </trkpt>
      <trkpt lat="59.9756934" lon="17.7387311">
        <ele>28.4962</ele>
        <time>2014-06-21T07:48:16Z</time>
      </trkpt>
      <trkpt lat="59.9756658" lon="17.7386897">
        <ele>28.4962</ele>
        <time>2014-06-21T07:48:17Z</time>
      </trkpt>
      <trkpt lat="59.9756364" lon="17.7386483">
        <ele>28.9769</ele>
        <time>2014-06-21T07:48:18Z</time>
      </trkpt>
      <trkpt lat="59.9756083" lon="17.7386105">
        <ele>28.9769</ele>
        <time>2014-06-21T07:48:19Z</time>
      </trkpt>
      <trkpt lat="59.9755887" lon="17.7385756">
        <ele>28.9769</ele>
        <time>2014-06-21T07:48:20Z</time>
      </trkpt>
      <trkpt lat="59.9755702" lon="17.7385386">
        <ele>29.4575</ele>
        <time>2014-06-21T07:48:21Z</time>
      </trkpt>
      <trkpt lat="59.9755491" lon="17.7385039">
        <ele>29.4575</ele>
        <time>2014-06-21T07:48:22Z</time>
      </trkpt>
      <trkpt lat="59.9755255" lon="17.7384705">
        <ele>29.9381</ele>
        <time>2014-06-21T07:48:23Z</time>
      </trkpt>
      <trkpt lat="59.9755072" lon="17.7384365">
        <ele>29.9381</ele>
        <time>2014-06-21T07:48:24Z</time>
      </trkpt>
      <trkpt lat="59.9754887" lon="17.7383999">
        <ele>29.9381</ele>
        <time>2014-06-21T07:48:25Z</time>
      </trkpt>
      <trkpt lat="59.9754679" lon="17.7383586">
        <ele>30.4188</ele>
        <time>2014-06-21T07:48:26Z</time>
      </trkpt>
      <trkpt lat="59.9754467" lon="17.7383209">
        <ele>30.8995</ele>
        <time>2014-06-21T07:48:27Z</time>
      </trkpt>
      <trkpt lat="59.9754286" lon="17.7382878">
        <ele>30.8995</ele>
        <time>2014-06-21T07:48:28Z</time>
      </trkpt>
      <trkpt lat="59.9754135" lon="17.7382452">
        <ele>30.8995</ele>
        <time>2014-06-21T07:48:29Z</time>
      </trkpt>
      <trkpt lat="59.9753923" lon="17.7381985">
        <ele>31.3801</ele>
        <time>2014-06-21T07:48:30Z</time>
      </trkpt>
      <trkpt lat="59.9753679" lon="17.7381562">
        <ele>31.8607</ele>
        <time>2014-06-21T07:48:31Z</time>
      </trkpt>
      <trkpt lat="59.9753523" lon="17.7381286">
        <ele>31.3801</ele>
        <time>2014-06-21T07:48:32Z</time>
      </trkpt>
      <trkpt lat="59.9753348" lon="17.7380935">
        <ele>31.3801</ele>
        <time>2014-06-21T07:48:33Z</time>
      </trkpt>
      <trkpt lat="59.9753127" lon="17.738053">
        <ele>31.8607</ele>
        <time>2014-06-21T07:48:34Z</time>
      </trkpt>
      <trkpt lat="59.9752816" lon="17.7380132">
        <ele>32.3416</ele>
        <time>2014-06-21T07:48:35Z</time>
      </trkpt>
      <trkpt lat="59.9752541" lon="17.7379759">
        <ele>32.3416</ele>
        <time>2014-06-21T07:48:36Z</time>
      </trkpt>
      <trkpt lat="59.9752354" lon="17.7379503">
        <ele>32.3416</ele>
        <time>2014-06-21T07:48:37Z</time>
      </trkpt>
      <trkpt lat="59.9752166" lon="17.7379156">
        <ele>32.3416</ele>
        <time>2014-06-21T07:48:38Z</time>
      </trkpt>
      <trkpt lat="59.975198" lon="17.737875">
        <ele>32.3416</ele>
        <time>2014-06-21T07:48:39Z</time>
      </trkpt>
      <trkpt lat="59.9751886" lon="17.7378468">
        <ele>32.3416</ele>
        <time>2014-06-21T07:48:40Z</time>
      </trkpt>
      <trkpt lat="59.9751762" lon="17.7378232">
        <ele>32.3416</ele>
        <time>2014-06-21T07:48:41Z</time>
      </trkpt>
      <trkpt lat="59.9751524" lon="17.7377857">
        <ele>32.8223</ele>
        <time>2014-06-21T07:48:42Z</time>
      </trkpt>
      <trkpt lat="59.9751236" lon="17.7377415">
        <ele>32.8223</ele>
        <time>2014-06-21T07:48:43Z</time>
      </trkpt>
      <trkpt lat="59.9750981" lon="17.7376999">
        <ele>33.3029</ele>
        <time>2014-06-21T07:48:44Z</time>
      </trkpt>
      <trkpt lat="59.9750834" lon="17.7376699">
        <ele>33.3029</ele>
        <time>2014-06-21T07:48:45Z</time>
      </trkpt>
      <trkpt lat="59.9750738" lon="17.7376367">
        <ele>33.3029</ele>
        <time>2014-06-21T07:48:46Z</time>
      </trkpt>
      <trkpt lat="59.9750541" lon="17.7375972">
        <ele>32.8223</ele>
        <time>2014-06-21T07:48:47Z</time>
      </trkpt>
      <trkpt lat="59.9750302" lon="17.7375522">
        <ele>33.3029</ele>
        <time>2014-06-21T07:48:48Z</time>
      </trkpt>
      <trkpt lat="59.975005" lon="17.7374977">
        <ele>33.3029</ele>
        <time>2014-06-21T07:48:49Z</time>
      </trkpt>
      <trkpt lat="59.9749831" lon="17.737449">
        <ele>33.3029</ele>
        <time>2014-06-21T07:48:50Z</time>
      </trkpt>
      <trkpt lat="59.9749628" lon="17.7374066">
        <ele>33.3029</ele>
        <time>2014-06-21T07:48:51Z</time>
      </trkpt>
      <trkpt lat="59.9749494" lon="17.7373763">
        <ele>32.8223</ele>
        <time>2014-06-21T07:48:52Z</time>
      </trkpt>
      <trkpt lat="59.9749438" lon="17.7373516">
        <ele>32.3416</ele>
        <time>2014-06-21T07:48:53Z</time>
      </trkpt>
      <trkpt lat="59.974933" lon="17.7373199">
        <ele>31.8607</ele>
        <time>2014-06-21T07:48:54Z</time>
      </trkpt>
      <trkpt lat="59.9749107" lon="17.7372776">
        <ele>32.3416</ele>
        <time>2014-06-21T07:48:55Z</time>
      </trkpt>
      <trkpt lat="59.9748904" lon="17.7372331">
        <ele>32.8223</ele>
        <time>2014-06-21T07:48:56Z</time>
      </trkpt>
      <trkpt lat="59.9748692" lon="17.7371844">
        <ele>32.8223</ele>
        <time>2014-06-21T07:48:57Z</time>
      </trkpt>
      <trkpt lat="59.9748472" lon="17.7371357">
        <ele>33.3029</ele>
        <time>2014-06-21T07:48:58Z</time>
      </trkpt>
      <trkpt lat="59.9748291" lon="17.7370909">
        <ele>33.3029</ele>
        <time>2014-06-21T07:48:59Z</time>
      </trkpt>
      <trkpt lat="59.9748113" lon="17.7370531">
        <ele>32.8223</ele>
        <time>2014-06-21T07:49:00Z</time>
      </trkpt>
      <trkpt lat="59.9747931" lon="17.7370087">
        <ele>32.8223</ele>
        <time>2014-06-21T07:49:01Z</time>
      </trkpt>
      <trkpt lat="59.974777" lon="17.7369589">
        <ele>32.8223</ele>
        <time>2014-06-21T07:49:02Z</time>
      </trkpt>
      <trkpt lat="59.9747604" lon="17.7369124">
        <ele>32.8223</ele>
        <time>2014-06-21T07:49:03Z</time>
      </trkpt>
      <trkpt lat="59.9747416" lon="17.736864">
        <ele>32.8223</ele>
        <time>2014-06-21T07:49:04Z</time>
      </trkpt>
      <trkpt lat="59.9747252" lon="17.7368224">
        <ele>32.8223</ele>
        <time>2014-06-21T07:49:05Z</time>
      </trkpt>
      <trkpt lat="59.9747133" lon="17.7367854">
        <ele>32.3416</ele>
        <time>2014-06-21T07:49:06Z</time>
      </trkpt>
      <trkpt lat="59.9746983" lon="17.7367397">
        <ele>32.8223</ele>
        <time>2014-06-21T07:49:07Z</time>
      </trkpt>
      <trkpt lat="59.9746732" lon="17.7366773">
        <ele>33.3029</ele>
        <time>2014-06-21T07:49:08Z</time>
      </trkpt>
      <trkpt lat="59.9746485" lon="17.736616">
        <ele>33.3029</ele>
        <time>2014-06-21T07:49:09Z</time>
      </trkpt>
      <trkpt lat="59.9746262" lon="17.7365584">
        <ele>33.7834</ele>
        <time>2014-06-21T07:49:10Z</time>
      </trkpt>
      <trkpt lat="59.9746014" lon="17.7364979">
        <ele>34.7449</ele>
        <time>2014-06-21T07:49:11Z</time>
      </trkpt>
      <trkpt lat="59.9745716" lon="17.7364289">
        <ele>35.7061</ele>
        <time>2014-06-21T07:49:12Z</time>
      </trkpt>
      <trkpt lat="59.9745377" lon="17.7363491">
        <ele>36.6675</ele>
        <time>2014-06-21T07:49:13Z</time>
      </trkpt>
      <trkpt lat="59.9745128" lon="17.7362821">
        <ele>36.6675</ele>
        <time>2014-06-21T07:49:14Z</time>
      </trkpt>
      <trkpt lat="59.9744934" lon="17.7362222">
        <ele>37.1481</ele>
        <time>2014-06-21T07:49:15Z</time>
      </trkpt>
      <trkpt lat="59.9744796" lon="17.7361659">
        <ele>37.1481</ele>
        <time>2014-06-21T07:49:16Z</time>
      </trkpt>
      <trkpt lat="59.974465" lon="17.7361069">
        <ele>37.6287</ele>
        <time>2014-06-21T07:49:17Z</time>
      </trkpt>
      <trkpt lat="59.9744568" lon="17.7360602">
        <ele>37.1481</ele>
        <time>2014-06-21T07:49:18Z</time>
      </trkpt>
      <trkpt lat="59.9744439" lon="17.7360065">
        <ele>37.1481</ele>
        <time>2014-06-21T07:49:19Z</time>
      </trkpt>
      <trkpt lat="59.9744347" lon="17.7359587">
        <ele>37.1481</ele>
        <time>2014-06-21T07:49:20Z</time>
      </trkpt>
      <trkpt lat="59.9744267" lon="17.7359161">
        <ele>36.6675</ele>
        <time>2014-06-21T07:49:21Z</time>
      </trkpt>
      <trkpt lat="59.9744206" lon="17.7358758">
        <ele>36.6675</ele>
        <time>2014-06-21T07:49:22Z</time>
      </trkpt>
      <trkpt lat="59.9744095" lon="17.7358228">
        <ele>37.1481</ele>
        <time>2014-06-21T07:49:23Z</time>
      </trkpt>
      <trkpt lat="59.974395" lon="17.7357618">
        <ele>37.6287</ele>
        <time>2014-06-21T07:49:24Z</time>
      </trkpt>
      <trkpt lat="59.9743895" lon="17.7357126">
        <ele>37.1481</ele>
        <time>2014-06-21T07:49:25Z</time>
      </trkpt>
      <trkpt lat="59.9743831" lon="17.7356656">
        <ele>37.1481</ele>
        <time>2014-06-21T07:49:26Z</time>
      </trkpt>
      <trkpt lat="59.9743759" lon="17.7356174">
        <ele>37.1481</ele>
        <time>2014-06-21T07:49:27Z</time>
      </trkpt>
      <trkpt lat="59.9743735" lon="17.735577">
        <ele>36.6675</ele>
        <time>2014-06-21T07:49:28Z</time>
      </trkpt>
      <trkpt lat="59.9743713" lon="17.735536">
        <ele>36.6675</ele>
        <time>2014-06-21T07:49:29Z</time>
      </trkpt>
      <trkpt lat="59.9743647" lon="17.7354858">
        <ele>36.6675</ele>
        <time>2014-06-21T07:49:30Z</time>
      </trkpt>
      <trkpt lat="59.9743563" lon="17.735433">
        <ele>36.6675</ele>
        <time>2014-06-21T07:49:31Z</time>
      </trkpt>
      <trkpt lat="59.974346" lon="17.7353738">
        <ele>37.1481</ele>
        <time>2014-06-21T07:49:32Z</time>
      </trkpt>
      <trkpt lat="59.9743393" lon="17.7353196">
        <ele>37.1481</ele>
        <time>2014-06-21T07:49:33Z</time>
      </trkpt>
      <trkpt lat="59.9743354" lon="17.7352688">
        <ele>36.6675</ele>
        <time>2014-06-21T07:49:34Z</time>
      </trkpt>
      <trkpt lat="59.9743294" lon="17.7352113">
        <ele>36.6675</ele>
        <time>2014-06-21T07:49:35Z</time>
      </trkpt>
      <trkpt lat="59.9743274" lon="17.7351554">
        <ele>36.1868</ele>
        <time>2014-06-21T07:49:36Z</time>
      </trkpt>
      <trkpt lat="59.9743258" lon="17.7350988">
        <ele>36.1868</ele>
        <time>2014-06-21T07:49:37Z</time>
      </trkpt>
      <trkpt lat="59.9743214" lon="17.7350425">
        <ele>36.1868</ele>
        <time>2014-06-21T07:49:38Z</time>
      </trkpt>
      <trkpt lat="59.9743171" lon="17.7349881">
        <ele>36.1868</ele>
        <time>2014-06-21T07:49:39Z</time>
      </trkpt>
      <trkpt lat="59.9743106" lon="17.7349334">
        <ele>36.1868</ele>
        <time>2014-06-21T07:49:40Z</time>
      </trkpt>
      <trkpt lat="59.974302" lon="17.7348741">
        <ele>36.6675</ele>
        <time>2014-06-21T07:49:41Z</time>
      </trkpt>
      <trkpt lat="59.9742895" lon="17.7348087">
        <ele>36.6675</ele>
        <time>2014-06-21T07:49:42Z</time>
      </trkpt>
      <trkpt lat="59.9742792" lon="17.7347487">
        <ele>36.6675</ele>
        <time>2014-06-21T07:49:43Z</time>
      </trkpt>
      <trkpt lat="59.9742696" lon="17.7346863">
        <ele>37.1481</ele>
        <time>2014-06-21T07:49:44Z</time>
      </trkpt>
      <trkpt lat="59.9742655" lon="17.7346259">
        <ele>36.6675</ele>
        <time>2014-06-21T07:49:45Z</time>
      </trkpt>
      <trkpt lat="59.9742647" lon="17.734574">
        <ele>36.6675</ele>
        <time>2014-06-21T07:49:46Z</time>
      </trkpt>
      <trkpt lat="59.9742688" lon="17.7345321">
        <ele>36.1868</ele>
        <time>2014-06-21T07:49:47Z</time>
      </trkpt>
      <trkpt lat="59.9742678" lon="17.7344765">
        <ele>36.6675</ele>
        <time>2014-06-21T07:49:48Z</time>
      </trkpt>
      <trkpt lat="59.9742668" lon="17.734416">
        <ele>36.1868</ele>
        <time>2014-06-21T07:49:49Z</time>
      </trkpt>
      <trkpt lat="59.9742707" lon="17.7343626">
        <ele>36.1868</ele>
        <time>2014-06-21T07:49:50Z</time>
      </trkpt>
      <trkpt lat="59.9742748" lon="17.7343102">
        <ele>36.1868</ele>
        <time>2014-06-21T07:49:51Z</time>
      </trkpt>
      <trkpt lat="59.9742807" lon="17.7342612">
        <ele>36.1868</ele>
        <time>2014-06-21T07:49:52Z</time>
      </trkpt>
      <trkpt lat="59.9742859" lon="17.7342099">
        <ele>36.1868</ele>
        <time>2014-06-21T07:49:53Z</time>
      </trkpt>
      <trkpt lat="59.9742917" lon="17.7341632">
        <ele>35.7061</ele>
        <time>2014-06-21T07:49:54Z</time>
      </trkpt>
      <trkpt lat="59.9742969" lon="17.7341137">
        <ele>36.1868</ele>
        <time>2014-06-21T07:49:55Z</time>
      </trkpt>
      <trkpt lat="59.9743071" lon="17.7340712">
        <ele>35.7061</ele>
        <time>2014-06-21T07:49:56Z</time>
      </trkpt>
      <trkpt lat="59.9743175" lon="17.7340287">
        <ele>35.2255</ele>
        <time>2014-06-21T07:49:57Z</time>
      </trkpt>
      <trkpt lat="59.974328" lon="17.7339836">
        <ele>35.2255</ele>
        <time>2014-06-21T07:49:58Z</time>
      </trkpt>
      <trkpt lat="59.974343" lon="17.7339523">
        <ele>33.7834</ele>
        <time>2014-06-21T07:49:59Z</time>
      </trkpt>
      <trkpt lat="59.9743542" lon="17.7339069">
        <ele>33.7834</ele>
        <time>2014-06-21T07:50:00Z</time>
      </trkpt>
      <trkpt lat="59.9743606" lon="17.7338559">
        <ele>33.7834</ele>
        <time>2014-06-21T07:50:01Z</time>
      </trkpt>
      <trkpt lat="59.9743652" lon="17.7338016">
        <ele>33.7834</ele>
        <time>2014-06-21T07:50:02Z</time>
      </trkpt>
      <trkpt lat="59.9743734" lon="17.7337474">
        <ele>32.8223</ele>
        <time>2014-06-21T07:50:03Z</time>
      </trkpt>
      <trkpt lat="59.9743801" lon="17.733694">
        <ele>32.8223</ele>
        <time>2014-06-21T07:50:04Z</time>
      </trkpt>
      <trkpt lat="59.9743781" lon="17.7336334">
        <ele>32.8223</ele>
        <time>2014-06-21T07:50:05Z</time>
      </trkpt>
      <trkpt lat="59.9743785" lon="17.7335758">
        <ele>32.3416</ele>
        <time>2014-06-21T07:50:06Z</time>
      </trkpt>
      <trkpt lat="59.9743824" lon="17.7335205">
        <ele>32.3416</ele>
        <time>2014-06-21T07:50:07Z</time>
      </trkpt>
      <trkpt lat="59.9743911" lon="17.7334661">
        <ele>32.3416</ele>
        <time>2014-06-21T07:50:08Z</time>
      </trkpt>
      <trkpt lat="59.9744009" lon="17.7334154">
        <ele>32.3416</ele>
        <time>2014-06-21T07:50:09Z</time>
      </trkpt>
      <trkpt lat="59.9744015" lon="17.7333563">
        <ele>32.3416</ele>
        <time>2014-06-21T07:50:10Z</time>
      </trkpt>
      <trkpt lat="59.9744005" lon="17.7332984">
        <ele>31.8607</ele>
        <time>2014-06-21T07:50:11Z</time>
      </trkpt>
      <trkpt lat="59.9743983" lon="17.7332453">
        <ele>31.8607</ele>
        <time>2014-06-21T07:50:12Z</time>
      </trkpt>
      <trkpt lat="59.9743977" lon="17.7331887">
        <ele>31.3801</ele>
        <time>2014-06-21T07:50:13Z</time>
      </trkpt>
      <trkpt lat="59.9743993" lon="17.7331339">
        <ele>31.3801</ele>
        <time>2014-06-21T07:50:14Z</time>
      </trkpt>
      <trkpt lat="59.9743957" lon="17.7330722">
        <ele>31.3801</ele>
        <time>2014-06-21T07:50:15Z</time>
      </trkpt>
      <trkpt lat="59.9743979" lon="17.7330215">
        <ele>31.3801</ele>
        <time>2014-06-21T07:50:16Z</time>
      </trkpt>
      <trkpt lat="59.9744019" lon="17.7329714">
        <ele>31.3801</ele>
        <time>2014-06-21T07:50:17Z</time>
      </trkpt>
      <trkpt lat="59.9744048" lon="17.7329195">
        <ele>30.8995</ele>
        <time>2014-06-21T07:50:18Z</time>
      </trkpt>
      <trkpt lat="59.974403" lon="17.7328615">
        <ele>31.3801</ele>
        <time>2014-06-21T07:50:19Z</time>
      </trkpt>
      <trkpt lat="59.9744041" lon="17.7328032">
        <ele>31.3801</ele>
        <time>2014-06-21T07:50:20Z</time>
      </trkpt>
      <trkpt lat="59.9744046" lon="17.7327491">
        <ele>31.3801</ele>
        <time>2014-06-21T07:50:21Z</time>
      </trkpt>
      <trkpt lat="59.9743992" lon="17.7326909">
        <ele>31.3801</ele>
        <time>2014-06-21T07:50:22Z</time>
      </trkpt>
      <trkpt lat="59.9743886" lon="17.7326264">
        <ele>31.8607</ele>
        <time>2014-06-21T07:50:23Z</time>
      </trkpt>
      <trkpt lat="59.9743847" lon="17.7325713">
        <ele>31.8607</ele>
        <time>2014-06-21T07:50:24Z</time>
      </trkpt>
      <trkpt lat="59.9743801" lon="17.7325153">
        <ele>31.8607</ele>
        <time>2014-06-21T07:50:25Z</time>
      </trkpt>
      <trkpt lat="59.9743797" lon="17.7324682">
        <ele>32.3416</ele>
        <time>2014-06-21T07:50:26Z</time>
      </trkpt>
      <trkpt lat="59.9743801" lon="17.7324207">
        <ele>32.3416</ele>
        <time>2014-06-21T07:50:27Z</time>
      </trkpt>
      <trkpt lat="59.9743791" lon="17.7323745">
        <ele>32.8223</ele>
        <time>2014-06-21T07:50:28Z</time>
      </trkpt>
      <trkpt lat="59.9743761" lon="17.7323226">
        <ele>33.3029</ele>
        <time>2014-06-21T07:50:29Z</time>
      </trkpt>
      <trkpt lat="59.9743732" lon="17.7322721">
        <ele>33.3029</ele>
        <time>2014-06-21T07:50:30Z</time>
      </trkpt>
      <trkpt lat="59.9743745" lon="17.7322225">
        <ele>33.3029</ele>
        <time>2014-06-21T07:50:31Z</time>
      </trkpt>
      <trkpt lat="59.974377" lon="17.7321748">
        <ele>33.3029</ele>
        <time>2014-06-21T07:50:32Z</time>
      </trkpt>
      <trkpt lat="59.9743765" lon="17.732126">
        <ele>33.7834</ele>
        <time>2014-06-21T07:50:33Z</time>
      </trkpt>
      <trkpt lat="59.9743771" lon="17.7320785">
        <ele>33.7834</ele>
        <time>2014-06-21T07:50:34Z</time>
      </trkpt>
      <trkpt lat="59.9743781" lon="17.7320287">
        <ele>33.3029</ele>
        <time>2014-06-21T07:50:35Z</time>
      </trkpt>
      <trkpt lat="59.9743817" lon="17.7319809">
        <ele>33.3029</ele>
        <time>2014-06-21T07:50:36Z</time>
      </trkpt>
      <trkpt lat="59.9743803" lon="17.7319312">
        <ele>33.3029</ele>
        <time>2014-06-21T07:50:37Z</time>
      </trkpt>
      <trkpt lat="59.9743795" lon="17.7318813">
        <ele>33.7834</ele>
        <time>2014-06-21T07:50:38Z</time>
      </trkpt>
      <trkpt lat="59.9743782" lon="17.7318324">
        <ele>33.7834</ele>
        <time>2014-06-21T07:50:39Z</time>
      </trkpt>
      <trkpt lat="59.9743753" lon="17.731783">
        <ele>33.7834</ele>
        <time>2014-06-21T07:50:40Z</time>
      </trkpt>
      <trkpt lat="59.974379" lon="17.7317358">
        <ele>33.7834</ele>
        <time>2014-06-21T07:50:41Z</time>
      </trkpt>
      <trkpt lat="59.9743824" lon="17.7316865">
        <ele>33.7834</ele>
        <time>2014-06-21T07:50:42Z</time>
      </trkpt>
      <trkpt lat="59.9743834" lon="17.7316354">
        <ele>34.2642</ele>
        <time>2014-06-21T07:50:43Z</time>
      </trkpt>
      <trkpt lat="59.9743822" lon="17.7315836">
        <ele>34.2642</ele>
        <time>2014-06-21T07:50:44Z</time>
      </trkpt>
      <trkpt lat="59.9743868" lon="17.7315324">
        <ele>33.7834</ele>
        <time>2014-06-21T07:50:45Z</time>
      </trkpt>
      <trkpt lat="59.9743877" lon="17.7314767">
        <ele>33.3029</ele>
        <time>2014-06-21T07:50:46Z</time>
      </trkpt>
      <trkpt lat="59.9743883" lon="17.7314245">
        <ele>32.8223</ele>
        <time>2014-06-21T07:50:47Z</time>
      </trkpt>
      <trkpt lat="59.9743937" lon="17.7313733">
        <ele>32.3416</ele>
        <time>2014-06-21T07:50:48Z</time>
      </trkpt>
      <trkpt lat="59.9743988" lon="17.7313163">
        <ele>32.3416</ele>
        <time>2014-06-21T07:50:49Z</time>
      </trkpt>
      <trkpt lat="59.9744025" lon="17.7312607">
        <ele>32.3416</ele>
        <time>2014-06-21T07:50:50Z</time>
      </trkpt>
      <trkpt lat="59.9743921" lon="17.7311911">
        <ele>32.3416</ele>
        <time>2014-06-21T07:50:51Z</time>
      </trkpt>
      <trkpt lat="59.9743895" lon="17.7311314">
        <ele>32.3416</ele>
        <time>2014-06-21T07:50:52Z</time>
      </trkpt>
      <trkpt lat="59.9743955" lon="17.7310775">
        <ele>31.8607</ele>
        <time>2014-06-21T07:50:53Z</time>
      </trkpt>
      <trkpt lat="59.9744035" lon="17.7310292">
        <ele>31.3801</ele>
        <time>2014-06-21T07:50:54Z</time>
      </trkpt>
      <trkpt lat="59.9744096" lon="17.7309739">
        <ele>30.8995</ele>
        <time>2014-06-21T07:50:55Z</time>
      </trkpt>
      <trkpt lat="59.974414" lon="17.7309127">
        <ele>30.8995</ele>
        <time>2014-06-21T07:50:56Z</time>
      </trkpt>
      <trkpt lat="59.9744175" lon="17.7308496">
        <ele>30.8995</ele>
        <time>2014-06-21T07:50:57Z</time>
      </trkpt>
      <trkpt lat="59.9744227" lon="17.7307911">
        <ele>30.8995</ele>
        <time>2014-06-21T07:50:58Z</time>
      </trkpt>
      <trkpt lat="59.9744272" lon="17.7307357">
        <ele>30.8995</ele>
        <time>2014-06-21T07:50:59Z</time>
      </trkpt>
      <trkpt lat="59.9744238" lon="17.73068">
        <ele>30.8995</ele>
        <time>2014-06-21T07:51:00Z</time>
      </trkpt>
      <trkpt lat="59.9744217" lon="17.7306279">
        <ele>30.8995</ele>
        <time>2014-06-21T07:51:01Z</time>
      </trkpt>
      <trkpt lat="59.9744262" lon="17.7305719">
        <ele>30.8995</ele>
        <time>2014-06-21T07:51:02Z</time>
      </trkpt>
      <trkpt lat="59.9744272" lon="17.730508">
        <ele>31.3801</ele>
        <time>2014-06-21T07:51:03Z</time>
      </trkpt>
      <trkpt lat="59.9744211" lon="17.7304388">
        <ele>31.3801</ele>
        <time>2014-06-21T07:51:04Z</time>
      </trkpt>
      <trkpt lat="59.9744128" lon="17.7303715">
        <ele>31.8607</ele>
        <time>2014-06-21T07:51:05Z</time>
      </trkpt>
      <trkpt lat="59.9744241" lon="17.7303213">
        <ele>31.3801</ele>
        <time>2014-06-21T07:51:06Z</time>
      </trkpt>
      <trkpt lat="59.9744341" lon="17.7302689">
        <ele>31.3801</ele>
        <time>2014-06-21T07:51:07Z</time>
      </trkpt>
      <trkpt lat="59.9744315" lon="17.730213">
        <ele>31.8607</ele>
        <time>2014-06-21T07:51:08Z</time>
      </trkpt>
      <trkpt lat="59.9744164" lon="17.7301471">
        <ele>31.8607</ele>
        <time>2014-06-21T07:51:09Z</time>
      </trkpt>
      <trkpt lat="59.9744061" lon="17.7300782">
        <ele>31.8607</ele>
        <time>2014-06-21T07:51:10Z</time>
      </trkpt>
      <trkpt lat="59.9744038" lon="17.7300228">
        <ele>31.8607</ele>
        <time>2014-06-21T07:51:11Z</time>
      </trkpt>
      <trkpt lat="59.9744107" lon="17.7299725">
        <ele>31.8607</ele>
        <time>2014-06-21T07:51:12Z</time>
      </trkpt>
      <trkpt lat="59.9744149" lon="17.729918">
        <ele>32.3416</ele>
        <time>2014-06-21T07:51:13Z</time>
      </trkpt>
      <trkpt lat="59.9744241" lon="17.7298648">
        <ele>31.8607</ele>
        <time>2014-06-21T07:51:14Z</time>
      </trkpt>
      <trkpt lat="59.974433" lon="17.7298067">
        <ele>31.8607</ele>
        <time>2014-06-21T07:51:15Z</time>
      </trkpt>
      <trkpt lat="59.9744388" lon="17.7297438">
        <ele>32.3416</ele>
        <time>2014-06-21T07:51:16Z</time>
      </trkpt>
      <trkpt lat="59.974434" lon="17.7296707">
        <ele>32.3416</ele>
        <time>2014-06-21T07:51:17Z</time>
      </trkpt>
      <trkpt lat="59.9744366" lon="17.7296079">
        <ele>32.3416</ele>
        <time>2014-06-21T07:51:18Z</time>
      </trkpt>
      <trkpt lat="59.9744397" lon="17.7295493">
        <ele>32.3416</ele>
        <time>2014-06-21T07:51:19Z</time>
      </trkpt>
      <trkpt lat="59.9744459" lon="17.7295002">
        <ele>31.3801</ele>
        <time>2014-06-21T07:51:20Z</time>
      </trkpt>
      <trkpt lat="59.9744522" lon="17.7294565">
        <ele>30.4188</ele>
        <time>2014-06-21T07:51:21Z</time>
      </trkpt>
      <trkpt lat="59.97446" lon="17.7294034">
        <ele>30.4188</ele>
        <time>2014-06-21T07:51:22Z</time>
      </trkpt>
      <trkpt lat="59.9744682" lon="17.7293446">
        <ele>30.4188</ele>
        <time>2014-06-21T07:51:23Z</time>
      </trkpt>
      <trkpt lat="59.9744693" lon="17.7292805">
        <ele>30.8995</ele>
        <time>2014-06-21T07:51:24Z</time>
      </trkpt>
      <trkpt lat="59.9744715" lon="17.7292203">
        <ele>30.8995</ele>
        <time>2014-06-21T07:51:25Z</time>
      </trkpt>
      <trkpt lat="59.9744766" lon="17.7291656">
        <ele>30.8995</ele>
        <time>2014-06-21T07:51:26Z</time>
      </trkpt>
      <trkpt lat="59.974477" lon="17.7291008">
        <ele>31.3801</ele>
        <time>2014-06-21T07:51:27Z</time>
      </trkpt>
      <trkpt lat="59.9744777" lon="17.7290356">
        <ele>31.3801</ele>
        <time>2014-06-21T07:51:28Z</time>
      </trkpt>
      <trkpt lat="59.9744812" lon="17.7289769">
        <ele>31.3801</ele>
        <time>2014-06-21T07:51:29Z</time>
      </trkpt>
      <trkpt lat="59.9744826" lon="17.7289193">
        <ele>31.3801</ele>
        <time>2014-06-21T07:51:30Z</time>
      </trkpt>
      <trkpt lat="59.9744836" lon="17.7288615">
        <ele>31.3801</ele>
        <time>2014-06-21T07:51:31Z</time>
      </trkpt>
      <trkpt lat="59.9744842" lon="17.7288041">
        <ele>31.3801</ele>
        <time>2014-06-21T07:51:32Z</time>
      </trkpt>
      <trkpt lat="59.9744816" lon="17.7287409">
        <ele>31.3801</ele>
        <time>2014-06-21T07:51:33Z</time>
      </trkpt>
      <trkpt lat="59.9744791" lon="17.728679">
        <ele>31.3801</ele>
        <time>2014-06-21T07:51:34Z</time>
      </trkpt>
      <trkpt lat="59.9744761" lon="17.7286154">
        <ele>31.3801</ele>
        <time>2014-06-21T07:51:35Z</time>
      </trkpt>
      <trkpt lat="59.974476" lon="17.7285569">
        <ele>31.8607</ele>
        <time>2014-06-21T07:51:36Z</time>
      </trkpt>
      <trkpt lat="59.9744764" lon="17.7285036">
        <ele>31.8607</ele>
        <time>2014-06-21T07:51:37Z</time>
      </trkpt>
      <trkpt lat="59.9744764" lon="17.7284488">
        <ele>31.8607</ele>
        <time>2014-06-21T07:51:38Z</time>
      </trkpt>
      <trkpt lat="59.9744776" lon="17.7283938">
        <ele>31.8607</ele>
        <time>2014-06-21T07:51:39Z</time>
      </trkpt>
      <trkpt lat="59.9744779" lon="17.7283386">
        <ele>31.3801</ele>
        <time>2014-06-21T07:51:40Z</time>
      </trkpt>
      <trkpt lat="59.974478" lon="17.7282813">
        <ele>31.3801</ele>
        <time>2014-06-21T07:51:41Z</time>
      </trkpt>
      <trkpt lat="59.9744782" lon="17.7282222">
        <ele>30.8995</ele>
        <time>2014-06-21T07:51:42Z</time>
      </trkpt>
      <trkpt lat="59.9744707" lon="17.7281569">
        <ele>30.8995</ele>
        <time>2014-06-21T07:51:43Z</time>
      </trkpt>
      <trkpt lat="59.9744658" lon="17.7280963">
        <ele>30.8995</ele>
        <time>2014-06-21T07:51:44Z</time>
      </trkpt>
      <trkpt lat="59.9744668" lon="17.7280405">
        <ele>30.4188</ele>
        <time>2014-06-21T07:51:45Z</time>
      </trkpt>
      <trkpt lat="59.9744681" lon="17.7279835">
        <ele>30.4188</ele>
        <time>2014-06-21T07:51:46Z</time>
      </trkpt>
      <trkpt lat="59.9744701" lon="17.7279299">
        <ele>29.9381</ele>
        <time>2014-06-21T07:51:47Z</time>
      </trkpt>
      <trkpt lat="59.9744697" lon="17.7278703">
        <ele>29.9381</ele>
        <time>2014-06-21T07:51:48Z</time>
      </trkpt>
      <trkpt lat="59.9744681" lon="17.7278057">
        <ele>29.9381</ele>
        <time>2014-06-21T07:51:49Z</time>
      </trkpt>
      <trkpt lat="59.974474" lon="17.7277565">
        <ele>28.9769</ele>
        <time>2014-06-21T07:51:50Z</time>
      </trkpt>
      <trkpt lat="59.9744846" lon="17.7277058">
        <ele>28.4962</ele>
        <time>2014-06-21T07:51:51Z</time>
      </trkpt>
      <trkpt lat="59.9744993" lon="17.727665">
        <ele>28.0155</ele>
        <time>2014-06-21T07:51:52Z</time>
      </trkpt>
      <trkpt lat="59.9745168" lon="17.7276327">
        <ele>28.0155</ele>
        <time>2014-06-21T07:51:53Z</time>
      </trkpt>
      <trkpt lat="59.9745333" lon="17.727601">
        <ele>27.5349</ele>
        <time>2014-06-21T07:51:54Z</time>
      </trkpt>
      <trkpt lat="59.9745494" lon="17.7275664">
        <ele>27.5349</ele>
        <time>2014-06-21T07:51:55Z</time>
      </trkpt>
      <trkpt lat="59.974576" lon="17.7275459">
        <ele>27.0543</ele>
        <time>2014-06-21T07:51:56Z</time>
      </trkpt>
      <trkpt lat="59.9746087" lon="17.7275277">
        <ele>27.0543</ele>
        <time>2014-06-21T07:51:57Z</time>
      </trkpt>
      <trkpt lat="59.9746417" lon="17.7275037">
        <ele>26.5736</ele>
        <time>2014-06-21T07:51:58Z</time>
      </trkpt>
      <trkpt lat="59.9746685" lon="17.727482">
        <ele>26.0929</ele>
        <time>2014-06-21T07:51:59Z</time>
      </trkpt>
      <trkpt lat="59.9746906" lon="17.727467">
        <ele>25.6123</ele>
        <time>2014-06-21T07:52:00Z</time>
      </trkpt>
      <trkpt lat="59.974708" lon="17.7274509">
        <ele>25.6123</ele>
        <time>2014-06-21T07:52:01Z</time>
      </trkpt>
      <trkpt lat="59.9747206" lon="17.727436">
        <ele>25.1317</ele>
        <time>2014-06-21T07:52:02Z</time>
      </trkpt>
      <trkpt lat="59.9747252" lon="17.7274171">
        <ele>25.1317</ele>
        <time>2014-06-21T07:52:03Z</time>
      </trkpt>
      <trkpt lat="59.9747358" lon="17.7273965">
        <ele>24.651</ele>
        <time>2014-06-21T07:52:04Z</time>
      </trkpt>
      <trkpt lat="59.9747358" lon="17.7273816">
        <ele>24.1703</ele>
        <time>2014-06-21T07:52:05Z</time>
      </trkpt>
      <trkpt lat="59.9747382" lon="17.7273753">
        <ele>24.1703</ele>
        <time>2014-06-21T07:52:06Z</time>
      </trkpt>
      <trkpt lat="59.9747407" lon="17.7273649">
        <ele>23.6896</ele>
        <time>2014-06-21T07:52:07Z</time>
      </trkpt>
      <trkpt lat="59.9747421" lon="17.7273454">
        <ele>22.7283</ele>
        <time>2014-06-21T07:52:08Z</time>
      </trkpt>
      <trkpt lat="59.974748" lon="17.7273168">
        <ele>21.767</ele>
        <time>2014-06-21T07:52:09Z</time>
      </trkpt>
      <trkpt lat="59.9747556" lon="17.7272853">
        <ele>21.2864</ele>
        <time>2014-06-21T07:52:10Z</time>
      </trkpt>
      <trkpt lat="59.9747693" lon="17.7272602">
        <ele>20.8057</ele>
        <time>2014-06-21T07:52:11Z</time>
      </trkpt>
      <trkpt lat="59.9747788" lon="17.7272432">
        <ele>20.8057</ele>
        <time>2014-06-21T07:52:12Z</time>
      </trkpt>
      <trkpt lat="59.974794" lon="17.7272339">
        <ele>19.8444</ele>
        <time>2014-06-21T07:52:13Z</time>
      </trkpt>
      <trkpt lat="59.9748106" lon="17.7272188">
        <ele>19.8444</ele>
        <time>2014-06-21T07:52:14Z</time>
      </trkpt>
      <trkpt lat="59.9748282" lon="17.7272008">
        <ele>18.8831</ele>
        <time>2014-06-21T07:52:15Z</time>
      </trkpt>
      <trkpt lat="59.9748423" lon="17.7271882">
        <ele>18.8831</ele>
        <time>2014-06-21T07:52:16Z</time>
      </trkpt>
      <trkpt lat="59.9748609" lon="17.72718">
        <ele>17.9218</ele>
        <time>2014-06-21T07:52:17Z</time>
      </trkpt>
      <trkpt lat="59.9748867" lon="17.7271731">
        <ele>17.4412</ele>
        <time>2014-06-21T07:52:18Z</time>
      </trkpt>
      <trkpt lat="59.9749164" lon="17.7271436">
        <ele>16.4797</ele>
        <time>2014-06-21T07:52:19Z</time>
      </trkpt>
      <trkpt lat="59.9749524" lon="17.7271089">
        <ele>16.9604</ele>
        <time>2014-06-21T07:52:20Z</time>
      </trkpt>
      <trkpt lat="59.9749809" lon="17.7270805">
        <ele>16.9604</ele>
        <time>2014-06-21T07:52:21Z</time>
      </trkpt>
      <trkpt lat="59.9750115" lon="17.7270567">
        <ele>17.4412</ele>
        <time>2014-06-21T07:52:22Z</time>
      </trkpt>
      <trkpt lat="59.975036" lon="17.7270379">
        <ele>17.4412</ele>
        <time>2014-06-21T07:52:23Z</time>
      </trkpt>
      <trkpt lat="59.9750629" lon="17.7270175">
        <ele>16.9604</ele>
        <time>2014-06-21T07:52:24Z</time>
      </trkpt>
      <trkpt lat="59.9750915" lon="17.7269898">
        <ele>16.4797</ele>
        <time>2014-06-21T07:52:25Z</time>
      </trkpt>
      <trkpt lat="59.9751203" lon="17.7269625">
        <ele>16.4797</ele>
        <time>2014-06-21T07:52:26Z</time>
      </trkpt>
      <trkpt lat="59.9751528" lon="17.726933">
        <ele>16.9604</ele>
        <time>2014-06-21T07:52:27Z</time>
      </trkpt>
      <trkpt lat="59.9751799" lon="17.7269075">
        <ele>16.4797</ele>
        <time>2014-06-21T07:52:28Z</time>
      </trkpt>
      <trkpt lat="59.9752046" lon="17.7268846">
        <ele>16.9604</ele>
        <time>2014-06-21T07:52:29Z</time>
      </trkpt>
      <trkpt lat="59.9752251" lon="17.7268578">
        <ele>16.9604</ele>
        <time>2014-06-21T07:52:30Z</time>
      </trkpt>
      <trkpt lat="59.975251" lon="17.7268335">
        <ele>16.9604</ele>
        <time>2014-06-21T07:52:31Z</time>
      </trkpt>
      <trkpt lat="59.9752826" lon="17.7268098">
        <ele>16.9604</ele>
        <time>2014-06-21T07:52:32Z</time>
      </trkpt>
      <trkpt lat="59.9753127" lon="17.7267927">
        <ele>16.4797</ele>
        <time>2014-06-21T07:52:33Z</time>
      </trkpt>
      <trkpt lat="59.9753759" lon="17.7267815">
        <ele>18.8831</ele>
        <time>2014-06-21T07:52:34Z</time>
      </trkpt>
      <trkpt lat="59.9754208" lon="17.7267657">
        <ele>19.3638</ele>
        <time>2014-06-21T07:52:35Z</time>
      </trkpt>
      <trkpt lat="59.9754531" lon="17.7267365">
        <ele>19.3638</ele>
        <time>2014-06-21T07:52:36Z</time>
      </trkpt>
      <trkpt lat="59.9754925" lon="17.7267138">
        <ele>19.8444</ele>
        <time>2014-06-21T07:52:37Z</time>
      </trkpt>
      <trkpt lat="59.9755275" lon="17.7266912">
        <ele>20.325</ele>
        <time>2014-06-21T07:52:38Z</time>
      </trkpt>
      <trkpt lat="59.9755587" lon="17.7266667">
        <ele>20.8057</ele>
        <time>2014-06-21T07:52:39Z</time>
      </trkpt>
      <trkpt lat="59.9755821" lon="17.7266404">
        <ele>21.2864</ele>
        <time>2014-06-21T07:52:40Z</time>
      </trkpt>
      <trkpt lat="59.9756058" lon="17.7266144">
        <ele>21.2864</ele>
        <time>2014-06-21T07:52:41Z</time>
      </trkpt>
      <trkpt lat="59.9756301" lon="17.7265878">
        <ele>21.767</ele>
        <time>2014-06-21T07:52:42Z</time>
      </trkpt>
      <trkpt lat="59.9756591" lon="17.7265615">
        <ele>22.2476</ele>
        <time>2014-06-21T07:52:43Z</time>
      </trkpt>
      <trkpt lat="59.9756861" lon="17.726531">
        <ele>22.7283</ele>
        <time>2014-06-21T07:52:44Z</time>
      </trkpt>
      <trkpt lat="59.9757058" lon="17.7264969">
        <ele>23.6896</ele>
        <time>2014-06-21T07:52:45Z</time>
      </trkpt>
      <trkpt lat="59.9757306" lon="17.7264693">
        <ele>24.1703</ele>
        <time>2014-06-21T07:52:46Z</time>
      </trkpt>
      <trkpt lat="59.9757582" lon="17.7264439">
        <ele>24.651</ele>
        <time>2014-06-21T07:52:47Z</time>
      </trkpt>
      <trkpt lat="59.9757804" lon="17.7264139">
        <ele>24.651</ele>
        <time>2014-06-21T07:52:48Z</time>
      </trkpt>
      <trkpt lat="59.9758047" lon="17.7263875">
        <ele>24.651</ele>
        <time>2014-06-21T07:52:49Z</time>
      </trkpt>
      <trkpt lat="59.9758296" lon="17.726363">
        <ele>24.651</ele>
        <time>2014-06-21T07:52:50Z</time>
      </trkpt>
      <trkpt lat="59.9758511" lon="17.7263356">
        <ele>24.651</ele>
        <time>2014-06-21T07:52:51Z</time>
      </trkpt>
      <trkpt lat="59.9758758" lon="17.7263123">
        <ele>24.1703</ele>
        <time>2014-06-21T07:52:52Z</time>
      </trkpt>
      <trkpt lat="59.9759011" lon="17.7262861">
        <ele>24.651</ele>
        <time>2014-06-21T07:52:53Z</time>
      </trkpt>
      <trkpt lat="59.9759237" lon="17.7262595">
        <ele>24.651</ele>
        <time>2014-06-21T07:52:54Z</time>
      </trkpt>
      <trkpt lat="59.9759413" lon="17.7262347">
        <ele>25.1317</ele>
        <time>2014-06-21T07:52:55Z</time>
      </trkpt>
      <trkpt lat="59.9759659" lon="17.7262082">
        <ele>25.6123</ele>
        <time>2014-06-21T07:52:56Z</time>
      </trkpt>
      <trkpt lat="59.9759876" lon="17.7261811">
        <ele>25.6123</ele>
        <time>2014-06-21T07:52:57Z</time>
      </trkpt>
      <trkpt lat="59.9760112" lon="17.7261581">
        <ele>26.5736</ele>
        <time>2014-06-21T07:52:58Z</time>
      </trkpt>
      <trkpt lat="59.9760435" lon="17.7261322">
        <ele>27.0543</ele>
        <time>2014-06-21T07:52:59Z</time>
      </trkpt>
      <trkpt lat="59.9760756" lon="17.7261077">
        <ele>27.0543</ele>
        <time>2014-06-21T07:53:00Z</time>
      </trkpt>
      <trkpt lat="59.976106" lon="17.7260906">
        <ele>27.5349</ele>
        <time>2014-06-21T07:53:01Z</time>
      </trkpt>
      <trkpt lat="59.976132" lon="17.7260703">
        <ele>28.0155</ele>
        <time>2014-06-21T07:53:02Z</time>
      </trkpt>
      <trkpt lat="59.9761534" lon="17.7260464">
        <ele>28.0155</ele>
        <time>2014-06-21T07:53:03Z</time>
      </trkpt>
      <trkpt lat="59.9761776" lon="17.7260231">
        <ele>28.0155</ele>
        <time>2014-06-21T07:53:04Z</time>
      </trkpt>
      <trkpt lat="59.9762025" lon="17.725998">
        <ele>28.0155</ele>
        <time>2014-06-21T07:53:05Z</time>
      </trkpt>
      <trkpt lat="59.9762264" lon="17.7259719">
        <ele>28.0155</ele>
        <time>2014-06-21T07:53:06Z</time>
      </trkpt>
      <trkpt lat="59.9762495" lon="17.7259463">
        <ele>28.0155</ele>
        <time>2014-06-21T07:53:07Z</time>
      </trkpt>
      <trkpt lat="59.9762743" lon="17.7259226">
        <ele>27.5349</ele>
        <time>2014-06-21T07:53:08Z</time>
      </trkpt>
      <trkpt lat="59.9763033" lon="17.7259045">
        <ele>27.5349</ele>
        <time>2014-06-21T07:53:09Z</time>
      </trkpt>
      <trkpt lat="59.9763294" lon="17.7258861">
        <ele>27.5349</ele>
        <time>2014-06-21T07:53:10Z</time>
      </trkpt>
      <trkpt lat="59.9763517" lon="17.7258622">
        <ele>27.0543</ele>
        <time>2014-06-21T07:53:11Z</time>
      </trkpt>
      <trkpt lat="59.976374" lon="17.7258388">
        <ele>27.0543</ele>
        <time>2014-06-21T07:53:12Z</time>
      </trkpt>
      <trkpt lat="59.9764007" lon="17.7258145">
        <ele>26.5736</ele>
        <time>2014-06-21T07:53:13Z</time>
      </trkpt>
      <trkpt lat="59.9764246" lon="17.7257867">
        <ele>26.5736</ele>
        <time>2014-06-21T07:53:14Z</time>
      </trkpt>
      <trkpt lat="59.9764532" lon="17.7257622">
        <ele>26.0929</ele>
        <time>2014-06-21T07:53:15Z</time>
      </trkpt>
      <trkpt lat="59.9764807" lon="17.7257333">
        <ele>26.0929</ele>
        <time>2014-06-21T07:53:16Z</time>
      </trkpt>
      <trkpt lat="59.9765055" lon="17.7257037">
        <ele>25.6123</ele>
        <time>2014-06-21T07:53:17Z</time>
      </trkpt>
      <trkpt lat="59.976532" lon="17.7256807">
        <ele>25.1317</ele>
        <time>2014-06-21T07:53:18Z</time>
      </trkpt>
      <trkpt lat="59.9765535" lon="17.7256579">
        <ele>25.1317</ele>
        <time>2014-06-21T07:53:19Z</time>
      </trkpt>
      <trkpt lat="59.9765734" lon="17.7256321">
        <ele>25.1317</ele>
        <time>2014-06-21T07:53:20Z</time>
      </trkpt>
      <trkpt lat="59.9765935" lon="17.725608">
        <ele>25.1317</ele>
        <time>2014-06-21T07:53:21Z</time>
      </trkpt>
      <trkpt lat="59.9766106" lon="17.7255823">
        <ele>25.1317</ele>
        <time>2014-06-21T07:53:22Z</time>
      </trkpt>
      <trkpt lat="59.9766304" lon="17.7255596">
        <ele>24.651</ele>
        <time>2014-06-21T07:53:23Z</time>
      </trkpt>
      <trkpt lat="59.9766516" lon="17.7255367">
        <ele>24.1703</ele>
        <time>2014-06-21T07:53:24Z</time>
      </trkpt>
      <trkpt lat="59.9766748" lon="17.7255083">
        <ele>23.6896</ele>
        <time>2014-06-21T07:53:25Z</time>
      </trkpt>
      <trkpt lat="59.9767064" lon="17.7254775">
        <ele>24.1703</ele>
        <time>2014-06-21T07:53:26Z</time>
      </trkpt>
      <trkpt lat="59.9767323" lon="17.7254525">
        <ele>23.6896</ele>
        <time>2014-06-21T07:53:27Z</time>
      </trkpt>
      <trkpt lat="59.9767519" lon="17.7254292">
        <ele>23.6896</ele>
        <time>2014-06-21T07:53:28Z</time>
      </trkpt>
      <trkpt lat="59.9767781" lon="17.7254067">
        <ele>23.6896</ele>
        <time>2014-06-21T07:53:29Z</time>
      </trkpt>
      <trkpt lat="59.9768048" lon="17.7253847">
        <ele>23.6896</ele>
        <time>2014-06-21T07:53:30Z</time>
      </trkpt>
      <trkpt lat="59.9768371" lon="17.7253697">
        <ele>23.6896</ele>
        <time>2014-06-21T07:53:31Z</time>
      </trkpt>
      <trkpt lat="59.9768739" lon="17.7253583">
        <ele>23.209</ele>
        <time>2014-06-21T07:53:32Z</time>
      </trkpt>
      <trkpt lat="59.976903" lon="17.7253401">
        <ele>23.209</ele>
        <time>2014-06-21T07:53:33Z</time>
      </trkpt>
      <trkpt lat="59.9769308" lon="17.7253164">
        <ele>23.209</ele>
        <time>2014-06-21T07:53:34Z</time>
      </trkpt>
      <trkpt lat="59.9769576" lon="17.7252912">
        <ele>23.209</ele>
        <time>2014-06-21T07:53:35Z</time>
      </trkpt>
      <trkpt lat="59.9769789" lon="17.7252686">
        <ele>22.7283</ele>
        <time>2014-06-21T07:53:36Z</time>
      </trkpt>
      <trkpt lat="59.9769966" lon="17.7252401">
        <ele>22.2476</ele>
        <time>2014-06-21T07:53:37Z</time>
      </trkpt>
      <trkpt lat="59.9770122" lon="17.7252098">
        <ele>22.2476</ele>
        <time>2014-06-21T07:53:38Z</time>
      </trkpt>
      <trkpt lat="59.9770247" lon="17.7251835">
        <ele>21.767</ele>
        <time>2014-06-21T07:53:39Z</time>
      </trkpt>
      <trkpt lat="59.9770451" lon="17.7251557">
        <ele>21.767</ele>
        <time>2014-06-21T07:53:40Z</time>
      </trkpt>
      <trkpt lat="59.9770716" lon="17.7251287">
        <ele>21.767</ele>
        <time>2014-06-21T07:53:41Z</time>
      </trkpt>
      <trkpt lat="59.9770992" lon="17.7251033">
        <ele>22.2476</ele>
        <time>2014-06-21T07:53:42Z</time>
      </trkpt>
      <trkpt lat="59.9771257" lon="17.7250822">
        <ele>22.2476</ele>
        <time>2014-06-21T07:53:43Z</time>
      </trkpt>
      <trkpt lat="59.9771499" lon="17.7250617">
        <ele>22.2476</ele>
        <time>2014-06-21T07:53:44Z</time>
      </trkpt>
      <trkpt lat="59.9771742" lon="17.7250423">
        <ele>21.767</ele>
        <time>2014-06-21T07:53:45Z</time>
      </trkpt>
      <trkpt lat="59.9772017" lon="17.7250255">
        <ele>21.767</ele>
        <time>2014-06-21T07:53:46Z</time>
      </trkpt>
      <trkpt lat="59.9772285" lon="17.7250111">
        <ele>21.2864</ele>
        <time>2014-06-21T07:53:47Z</time>
      </trkpt>
      <trkpt lat="59.9772583" lon="17.7250008">
        <ele>21.2864</ele>
        <time>2014-06-21T07:53:48Z</time>
      </trkpt>
      <trkpt lat="59.9772855" lon="17.7249925">
        <ele>21.2864</ele>
        <time>2014-06-21T07:53:49Z</time>
      </trkpt>
      <trkpt lat="59.9773107" lon="17.7249883">
        <ele>21.767</ele>
        <time>2014-06-21T07:53:50Z</time>
      </trkpt>
      <trkpt lat="59.9773365" lon="17.7249909">
        <ele>22.2476</ele>
        <time>2014-06-21T07:53:51Z</time>
      </trkpt>
      <trkpt lat="59.9773597" lon="17.7249985">
        <ele>22.2476</ele>
        <time>2014-06-21T07:53:52Z</time>
      </trkpt>
      <trkpt lat="59.9773856" lon="17.7250086">
        <ele>23.209</ele>
        <time>2014-06-21T07:53:53Z</time>
      </trkpt>
      <trkpt lat="59.9774134" lon="17.7250157">
        <ele>23.209</ele>
        <time>2014-06-21T07:53:54Z</time>
      </trkpt>
      <trkpt lat="59.9774395" lon="17.7250175">
        <ele>23.6896</ele>
        <time>2014-06-21T07:53:55Z</time>
      </trkpt>
      <trkpt lat="59.9774661" lon="17.7250246">
        <ele>23.6896</ele>
        <time>2014-06-21T07:53:56Z</time>
      </trkpt>
      <trkpt lat="59.9774908" lon="17.7250282">
        <ele>23.6896</ele>
        <time>2014-06-21T07:53:57Z</time>
      </trkpt>
      <trkpt lat="59.9775188" lon="17.725035">
        <ele>24.1703</ele>
        <time>2014-06-21T07:53:58Z</time>
      </trkpt>
      <trkpt lat="59.9775448" lon="17.7250437">
        <ele>24.651</ele>
        <time>2014-06-21T07:53:59Z</time>
      </trkpt>
      <trkpt lat="59.9775692" lon="17.7250515">
        <ele>24.651</ele>
        <time>2014-06-21T07:54:00Z</time>
      </trkpt>
      <trkpt lat="59.9775973" lon="17.7250578">
        <ele>25.1317</ele>
        <time>2014-06-21T07:54:01Z</time>
      </trkpt>
      <trkpt lat="59.9776244" lon="17.7250614">
        <ele>25.6123</ele>
        <time>2014-06-21T07:54:02Z</time>
      </trkpt>
      <trkpt lat="59.9776489" lon="17.7250649">
        <ele>26.0929</ele>
        <time>2014-06-21T07:54:03Z</time>
      </trkpt>
      <trkpt lat="59.9776738" lon="17.7250703">
        <ele>26.0929</ele>
        <time>2014-06-21T07:54:04Z</time>
      </trkpt>
      <trkpt lat="59.9777023" lon="17.7250754">
        <ele>26.5736</ele>
        <time>2014-06-21T07:54:05Z</time>
      </trkpt>
      <trkpt lat="59.9777281" lon="17.7250825">
        <ele>27.0543</ele>
        <time>2014-06-21T07:54:06Z</time>
      </trkpt>
      <trkpt lat="59.9777544" lon="17.7250886">
        <ele>27.5349</ele>
        <time>2014-06-21T07:54:07Z</time>
      </trkpt>
      <trkpt lat="59.9777809" lon="17.7250943">
        <ele>28.0155</ele>
        <time>2014-06-21T07:54:08Z</time>
      </trkpt>
      <trkpt lat="59.9778062" lon="17.7250992">
        <ele>28.0155</ele>
        <time>2014-06-21T07:54:09Z</time>
      </trkpt>
      <trkpt lat="59.9778358" lon="17.7251019">
        <ele>28.0155</ele>
        <time>2014-06-21T07:54:10Z</time>
      </trkpt>
      <trkpt lat="59.9778636" lon="17.7251019">
        <ele>28.4962</ele>
        <time>2014-06-21T07:54:11Z</time>
      </trkpt>
      <trkpt lat="59.9778898" lon="17.7251058">
        <ele>28.4962</ele>
        <time>2014-06-21T07:54:12Z</time>
      </trkpt>
      <trkpt lat="59.9779145" lon="17.7251097">
        <ele>28.4962</ele>
        <time>2014-06-21T07:54:13Z</time>
      </trkpt>
      <trkpt lat="59.9779436" lon="17.7251178">
        <ele>28.9769</ele>
        <time>2014-06-21T07:54:14Z</time>
      </trkpt>
      <trkpt lat="59.9779705" lon="17.7251265">
        <ele>29.4575</ele>
        <time>2014-06-21T07:54:15Z</time>
      </trkpt>
      <trkpt lat="59.9779959" lon="17.7251303">
        <ele>29.4575</ele>
        <time>2014-06-21T07:54:16Z</time>
      </trkpt>
      <trkpt lat="59.9780239" lon="17.7251343">
        <ele>29.4575</ele>
        <time>2014-06-21T07:54:17Z</time>
      </trkpt>
      <trkpt lat="59.9780523" lon="17.725137">
        <ele>29.4575</ele>
        <time>2014-06-21T07:54:18Z</time>
      </trkpt>
      <trkpt lat="59.9780788" lon="17.725139">
        <ele>29.4575</ele>
        <time>2014-06-21T07:54:19Z</time>
      </trkpt>
      <trkpt lat="59.978105" lon="17.7251469">
        <ele>29.9381</ele>
        <time>2014-06-21T07:54:20Z</time>
      </trkpt>
      <trkpt lat="59.9781285" lon="17.7251541">
        <ele>30.4188</ele>
        <time>2014-06-21T07:54:21Z</time>
      </trkpt>
      <trkpt lat="59.9781552" lon="17.7251629">
        <ele>30.8995</ele>
        <time>2014-06-21T07:54:22Z</time>
      </trkpt>
      <trkpt lat="59.9781786" lon="17.7251711">
        <ele>30.8995</ele>
        <time>2014-06-21T07:54:23Z</time>
      </trkpt>
      <trkpt lat="59.9782015" lon="17.725178">
        <ele>30.8995</ele>
        <time>2014-06-21T07:54:24Z</time>
      </trkpt>
      <trkpt lat="59.978228" lon="17.7251905">
        <ele>31.3801</ele>
        <time>2014-06-21T07:54:25Z</time>
      </trkpt>
      <trkpt lat="59.9782533" lon="17.7252044">
        <ele>31.3801</ele>
        <time>2014-06-21T07:54:26Z</time>
      </trkpt>
      <trkpt lat="59.9782798" lon="17.72522">
        <ele>31.8607</ele>
        <time>2014-06-21T07:54:27Z</time>
      </trkpt>
      <trkpt lat="59.9783042" lon="17.7252368">
        <ele>31.8607</ele>
        <time>2014-06-21T07:54:28Z</time>
      </trkpt>
      <trkpt lat="59.9783305" lon="17.7252556">
        <ele>32.3416</ele>
        <time>2014-06-21T07:54:29Z</time>
      </trkpt>
      <trkpt lat="59.9783555" lon="17.7252704">
        <ele>32.8223</ele>
        <time>2014-06-21T07:54:30Z</time>
      </trkpt>
      <trkpt lat="59.9783785" lon="17.7252862">
        <ele>31.8607</ele>
        <time>2014-06-21T07:54:31Z</time>
      </trkpt>
      <trkpt lat="59.9784023" lon="17.7253105">
        <ele>31.3801</ele>
        <time>2014-06-21T07:54:32Z</time>
      </trkpt>
      <trkpt lat="59.978428" lon="17.7253322">
        <ele>30.4188</ele>
        <time>2014-06-21T07:54:33Z</time>
      </trkpt>
      <trkpt lat="59.9784532" lon="17.7253534">
        <ele>29.4575</ele>
        <time>2014-06-21T07:54:34Z</time>
      </trkpt>
      <trkpt lat="59.9784771" lon="17.7253756">
        <ele>28.9769</ele>
        <time>2014-06-21T07:54:35Z</time>
      </trkpt>
      <trkpt lat="59.9784997" lon="17.7253974">
        <ele>28.4962</ele>
        <time>2014-06-21T07:54:36Z</time>
      </trkpt>
      <trkpt lat="59.9785235" lon="17.72542">
        <ele>28.4962</ele>
        <time>2014-06-21T07:54:37Z</time>
      </trkpt>
      <trkpt lat="59.9785472" lon="17.7254411">
        <ele>28.0155</ele>
        <time>2014-06-21T07:54:38Z</time>
      </trkpt>
      <trkpt lat="59.9785728" lon="17.7254627">
        <ele>27.5349</ele>
        <time>2014-06-21T07:54:39Z</time>
      </trkpt>
      <trkpt lat="59.9785981" lon="17.7254805">
        <ele>27.5349</ele>
        <time>2014-06-21T07:54:40Z</time>
      </trkpt>
      <trkpt lat="59.9786222" lon="17.7254987">
        <ele>27.5349</ele>
        <time>2014-06-21T07:54:41Z</time>
      </trkpt>
      <trkpt lat="59.9786477" lon="17.7255176">
        <ele>27.5349</ele>
        <time>2014-06-21T07:54:42Z</time>
      </trkpt>
      <trkpt lat="59.978673" lon="17.7255372">
        <ele>27.5349</ele>
        <time>2014-06-21T07:54:43Z</time>
      </trkpt>
      <trkpt lat="59.9786957" lon="17.7255571">
        <ele>27.0543</ele>
        <time>2014-06-21T07:54:44Z</time>
      </trkpt>
      <trkpt lat="59.9787186" lon="17.7255753">
        <ele>26.5736</ele>
        <time>2014-06-21T07:54:45Z</time>
      </trkpt>
      <trkpt lat="59.9787433" lon="17.7255934">
        <ele>27.0543</ele>
        <time>2014-06-21T07:54:46Z</time>
      </trkpt>
      <trkpt lat="59.9787693" lon="17.7256097">
        <ele>27.0543</ele>
        <time>2014-06-21T07:54:47Z</time>
      </trkpt>
      <trkpt lat="59.9787937" lon="17.7256258">
        <ele>27.5349</ele>
        <time>2014-06-21T07:54:48Z</time>
      </trkpt>
      <trkpt lat="59.9788209" lon="17.7256383">
        <ele>27.5349</ele>
        <time>2014-06-21T07:54:49Z</time>
      </trkpt>
      <trkpt lat="59.9788485" lon="17.7256486">
        <ele>28.0155</ele>
        <time>2014-06-21T07:54:50Z</time>
      </trkpt>
      <trkpt lat="59.9788794" lon="17.7256627">
        <ele>28.4962</ele>
        <time>2014-06-21T07:54:51Z</time>
      </trkpt>
      <trkpt lat="59.9789117" lon="17.7256783">
        <ele>28.9769</ele>
        <time>2014-06-21T07:54:52Z</time>
      </trkpt>
      <trkpt lat="59.9789443" lon="17.725697">
        <ele>29.4575</ele>
        <time>2014-06-21T07:54:53Z</time>
      </trkpt>
      <trkpt lat="59.9789692" lon="17.7257202">
        <ele>28.9769</ele>
        <time>2014-06-21T07:54:54Z</time>
      </trkpt>
      <trkpt lat="59.9789947" lon="17.7257468">
        <ele>28.9769</ele>
        <time>2014-06-21T07:54:55Z</time>
      </trkpt>
      <trkpt lat="59.9790262" lon="17.7257738">
        <ele>28.4962</ele>
        <time>2014-06-21T07:54:56Z</time>
      </trkpt>
      <trkpt lat="59.9790537" lon="17.7258033">
        <ele>28.0155</ele>
        <time>2014-06-21T07:54:57Z</time>
      </trkpt>
      <trkpt lat="59.9790711" lon="17.7258406">
        <ele>26.5736</ele>
        <time>2014-06-21T07:54:58Z</time>
      </trkpt>
      <trkpt lat="59.9790899" lon="17.7258763">
        <ele>26.5736</ele>
        <time>2014-06-21T07:54:59Z</time>
      </trkpt>
      <trkpt lat="59.9791065" lon="17.7259077">
        <ele>26.0929</ele>
        <time>2014-06-21T07:55:00Z</time>
      </trkpt>
      <trkpt lat="59.9791236" lon="17.7259429">
        <ele>25.6123</ele>
        <time>2014-06-21T07:55:01Z</time>
      </trkpt>
      <trkpt lat="59.9791411" lon="17.7259819">
        <ele>25.1317</ele>
        <time>2014-06-21T07:55:02Z</time>
      </trkpt>
      <trkpt lat="59.9791603" lon="17.7260221">
        <ele>25.1317</ele>
        <time>2014-06-21T07:55:03Z</time>
      </trkpt>
      <trkpt lat="59.9791724" lon="17.7260618">
        <ele>24.651</ele>
        <time>2014-06-21T07:55:04Z</time>
      </trkpt>
      <trkpt lat="59.9791895" lon="17.7261">
        <ele>24.651</ele>
        <time>2014-06-21T07:55:05Z</time>
      </trkpt>
      <trkpt lat="59.9792096" lon="17.7261352">
        <ele>24.1703</ele>
        <time>2014-06-21T07:55:06Z</time>
      </trkpt>
      <trkpt lat="59.9792306" lon="17.7261674">
        <ele>23.6896</ele>
        <time>2014-06-21T07:55:07Z</time>
      </trkpt>
      <trkpt lat="59.9792509" lon="17.7261958">
        <ele>23.209</ele>
        <time>2014-06-21T07:55:08Z</time>
      </trkpt>
      <trkpt lat="59.9792707" lon="17.7262224">
        <ele>22.7283</ele>
        <time>2014-06-21T07:55:09Z</time>
      </trkpt>
      <trkpt lat="59.9792925" lon="17.7262491">
        <ele>22.2476</ele>
        <time>2014-06-21T07:55:10Z</time>
      </trkpt>
      <trkpt lat="59.9793162" lon="17.7262702">
        <ele>21.767</ele>
        <time>2014-06-21T07:55:11Z</time>
      </trkpt>
      <trkpt lat="59.9793412" lon="17.7262889">
        <ele>21.767</ele>
        <time>2014-06-21T07:55:12Z</time>
      </trkpt>
      <trkpt lat="59.9793665" lon="17.7263082">
        <ele>21.767</ele>
        <time>2014-06-21T07:55:13Z</time>
      </trkpt>
      <trkpt lat="59.9793915" lon="17.7263227">
        <ele>21.767</ele>
        <time>2014-06-21T07:55:14Z</time>
      </trkpt>
      <trkpt lat="59.9794188" lon="17.7263351">
        <ele>21.767</ele>
        <time>2014-06-21T07:55:15Z</time>
      </trkpt>
      <trkpt lat="59.9794451" lon="17.7263433">
        <ele>21.2864</ele>
        <time>2014-06-21T07:55:16Z</time>
      </trkpt>
      <trkpt lat="59.9794741" lon="17.7263512">
        <ele>21.2864</ele>
        <time>2014-06-21T07:55:17Z</time>
      </trkpt>
      <trkpt lat="59.9795046" lon="17.7263585">
        <ele>21.2864</ele>
        <time>2014-06-21T07:55:18Z</time>
      </trkpt>
      <trkpt lat="59.9795349" lon="17.7263673">
        <ele>21.767</ele>
        <time>2014-06-21T07:55:19Z</time>
      </trkpt>
      <trkpt lat="59.9795603" lon="17.726385">
        <ele>21.767</ele>
        <time>2014-06-21T07:55:20Z</time>
      </trkpt>
      <trkpt lat="59.9795819" lon="17.726405">
        <ele>21.767</ele>
        <time>2014-06-21T07:55:21Z</time>
      </trkpt>
      <trkpt lat="59.9796052" lon="17.7264253">
        <ele>21.767</ele>
        <time>2014-06-21T07:55:22Z</time>
      </trkpt>
      <trkpt lat="59.9796284" lon="17.7264502">
        <ele>21.767</ele>
        <time>2014-06-21T07:55:23Z</time>
      </trkpt>
      <trkpt lat="59.9796462" lon="17.7264786">
        <ele>21.767</ele>
        <time>2014-06-21T07:55:24Z</time>
      </trkpt>
      <trkpt lat="59.9796587" lon="17.7265144">
        <ele>21.767</ele>
        <time>2014-06-21T07:55:25Z</time>
      </trkpt>
      <trkpt lat="59.979682" lon="17.7265435">
        <ele>22.2476</ele>
        <time>2014-06-21T07:55:26Z</time>
      </trkpt>
      <trkpt lat="59.9797172" lon="17.7265587">
        <ele>22.2476</ele>
        <time>2014-06-21T07:55:27Z</time>
      </trkpt>
      <trkpt lat="59.9797476" lon="17.7265837">
        <ele>21.767</ele>
        <time>2014-06-21T07:55:28Z</time>
      </trkpt>
      <trkpt lat="59.9797689" lon="17.726621">
        <ele>21.767</ele>
        <time>2014-06-21T07:55:29Z</time>
      </trkpt>
      <trkpt lat="59.9797828" lon="17.7266675">
        <ele>21.767</ele>
        <time>2014-06-21T07:55:30Z</time>
      </trkpt>
      <trkpt lat="59.9797973" lon="17.7267119">
        <ele>21.2864</ele>
        <time>2014-06-21T07:55:31Z</time>
      </trkpt>
      <trkpt lat="59.9798135" lon="17.7267527">
        <ele>21.2864</ele>
        <time>2014-06-21T07:55:32Z</time>
      </trkpt>
      <trkpt lat="59.9798303" lon="17.7267936">
        <ele>21.2864</ele>
        <time>2014-06-21T07:55:33Z</time>
      </trkpt>
      <trkpt lat="59.9798465" lon="17.7268329">
        <ele>20.8057</ele>
        <time>2014-06-21T07:55:34Z</time>
      </trkpt>
      <trkpt lat="59.9798655" lon="17.7268717">
        <ele>21.2864</ele>
        <time>2014-06-21T07:55:35Z</time>
      </trkpt>
      <trkpt lat="59.9798826" lon="17.7269043">
        <ele>21.2864</ele>
        <time>2014-06-21T07:55:36Z</time>
      </trkpt>
      <trkpt lat="59.9798964" lon="17.7269407">
        <ele>21.2864</ele>
        <time>2014-06-21T07:55:37Z</time>
      </trkpt>
      <trkpt lat="59.9799142" lon="17.726982">
        <ele>21.2864</ele>
        <time>2014-06-21T07:55:38Z</time>
      </trkpt>
      <trkpt lat="59.9799338" lon="17.7270131">
        <ele>21.767</ele>
        <time>2014-06-21T07:55:39Z</time>
      </trkpt>
      <trkpt lat="59.9799572" lon="17.727055">
        <ele>21.767</ele>
        <time>2014-06-21T07:55:40Z</time>
      </trkpt>
      <trkpt lat="59.9799813" lon="17.7270991">
        <ele>21.2864</ele>
        <time>2014-06-21T07:55:41Z</time>
      </trkpt>
      <trkpt lat="59.9800031" lon="17.727137">
        <ele>21.767</ele>
        <time>2014-06-21T07:55:42Z</time>
      </trkpt>
      <trkpt lat="59.9800229" lon="17.7271737">
        <ele>22.2476</ele>
        <time>2014-06-21T07:55:43Z</time>
      </trkpt>
      <trkpt lat="59.9800406" lon="17.7272091">
        <ele>22.2476</ele>
        <time>2014-06-21T07:55:44Z</time>
      </trkpt>
      <trkpt lat="59.9800603" lon="17.7272477">
        <ele>22.2476</ele>
        <time>2014-06-21T07:55:45Z</time>
      </trkpt>
      <trkpt lat="59.9800819" lon="17.7272872">
        <ele>22.2476</ele>
        <time>2014-06-21T07:55:46Z</time>
      </trkpt>
      <trkpt lat="59.9801061" lon="17.7273293">
        <ele>22.2476</ele>
        <time>2014-06-21T07:55:47Z</time>
      </trkpt>
      <trkpt lat="59.9801263" lon="17.7273695">
        <ele>22.2476</ele>
        <time>2014-06-21T07:55:48Z</time>
      </trkpt>
      <trkpt lat="59.9801451" lon="17.72741">
        <ele>21.767</ele>
        <time>2014-06-21T07:55:49Z</time>
      </trkpt>
      <trkpt lat="59.980162" lon="17.72745">
        <ele>22.2476</ele>
        <time>2014-06-21T07:55:50Z</time>
      </trkpt>
      <trkpt lat="59.980177" lon="17.7274836">
        <ele>22.2476</ele>
        <time>2014-06-21T07:55:51Z</time>
      </trkpt>
      <trkpt lat="59.9801944" lon="17.7275187">
        <ele>22.2476</ele>
        <time>2014-06-21T07:55:52Z</time>
      </trkpt>
      <trkpt lat="59.9802175" lon="17.7275554">
        <ele>22.2476</ele>
        <time>2014-06-21T07:55:53Z</time>
      </trkpt>
      <trkpt lat="59.9802392" lon="17.7275939">
        <ele>22.2476</ele>
        <time>2014-06-21T07:55:54Z</time>
      </trkpt>
      <trkpt lat="59.9802569" lon="17.7276305">
        <ele>22.2476</ele>
        <time>2014-06-21T07:55:55Z</time>
      </trkpt>
      <trkpt lat="59.9802739" lon="17.7276643">
        <ele>22.2476</ele>
        <time>2014-06-21T07:55:56Z</time>
      </trkpt>
      <trkpt lat="59.9802929" lon="17.7276973">
        <ele>22.7283</ele>
        <time>2014-06-21T07:55:57Z</time>
      </trkpt>
      <trkpt lat="59.9803115" lon="17.7277269">
        <ele>22.2476</ele>
        <time>2014-06-21T07:55:58Z</time>
      </trkpt>
      <trkpt lat="59.9803312" lon="17.7277617">
        <ele>23.209</ele>
        <time>2014-06-21T07:55:59Z</time>
      </trkpt>
      <trkpt lat="59.9803476" lon="17.7277987">
        <ele>22.7283</ele>
        <time>2014-06-21T07:56:00Z</time>
      </trkpt>
      <trkpt lat="59.9803646" lon="17.7278333">
        <ele>22.7283</ele>
        <time>2014-06-21T07:56:01Z</time>
      </trkpt>
      <trkpt lat="59.9803828" lon="17.727868">
        <ele>22.7283</ele>
        <time>2014-06-21T07:56:02Z</time>
      </trkpt>
      <trkpt lat="59.9804022" lon="17.7279028">
        <ele>23.209</ele>
        <time>2014-06-21T07:56:03Z</time>
      </trkpt>
      <trkpt lat="59.9804207" lon="17.7279348">
        <ele>23.209</ele>
        <time>2014-06-21T07:56:04Z</time>
      </trkpt>
      <trkpt lat="59.9804386" lon="17.7279695">
        <ele>23.6896</ele>
        <time>2014-06-21T07:56:05Z</time>
      </trkpt>
      <trkpt lat="59.980456" lon="17.7280017">
        <ele>23.6896</ele>
        <time>2014-06-21T07:56:06Z</time>
      </trkpt>
      <trkpt lat="59.9804723" lon="17.7280359">
        <ele>23.6896</ele>
        <time>2014-06-21T07:56:07Z</time>
      </trkpt>
      <trkpt lat="59.9804878" lon="17.7280725">
        <ele>24.1703</ele>
        <time>2014-06-21T07:56:08Z</time>
      </trkpt>
      <trkpt lat="59.9805055" lon="17.7281079">
        <ele>24.1703</ele>
        <time>2014-06-21T07:56:09Z</time>
      </trkpt>
      <trkpt lat="59.9805259" lon="17.7281404">
        <ele>24.651</ele>
        <time>2014-06-21T07:56:10Z</time>
      </trkpt>
      <trkpt lat="59.9805439" lon="17.7281666">
        <ele>24.1703</ele>
        <time>2014-06-21T07:56:11Z</time>
      </trkpt>
      <trkpt lat="59.9805611" lon="17.7282003">
        <ele>24.651</ele>
        <time>2014-06-21T07:56:12Z</time>
      </trkpt>
      <trkpt lat="59.9805781" lon="17.7282312">
        <ele>25.1317</ele>
        <time>2014-06-21T07:56:13Z</time>
      </trkpt>
      <trkpt lat="59.9805937" lon="17.7282627">
        <ele>25.6123</ele>
        <time>2014-06-21T07:56:14Z</time>
      </trkpt>
      <trkpt lat="59.9806091" lon="17.7282958">
        <ele>25.1317</ele>
        <time>2014-06-21T07:56:15Z</time>
      </trkpt>
      <trkpt lat="59.9806252" lon="17.7283252">
        <ele>25.1317</ele>
        <time>2014-06-21T07:56:16Z</time>
      </trkpt>
      <trkpt lat="59.9806414" lon="17.7283566">
        <ele>25.6123</ele>
        <time>2014-06-21T07:56:17Z</time>
      </trkpt>
      <trkpt lat="59.9806574" lon="17.728385">
        <ele>25.1317</ele>
        <time>2014-06-21T07:56:18Z</time>
      </trkpt>
      <trkpt lat="59.9806709" lon="17.728417">
        <ele>25.6123</ele>
        <time>2014-06-21T07:56:19Z</time>
      </trkpt>
      <trkpt lat="59.9806845" lon="17.7284471">
        <ele>25.6123</ele>
        <time>2014-06-21T07:56:20Z</time>
      </trkpt>
      <trkpt lat="59.9806993" lon="17.7284744">
        <ele>25.6123</ele>
        <time>2014-06-21T07:56:21Z</time>
      </trkpt>
      <trkpt lat="59.9807185" lon="17.7284967">
        <ele>26.0929</ele>
        <time>2014-06-21T07:56:22Z</time>
      </trkpt>
      <trkpt lat="59.9807371" lon="17.7285169">
        <ele>26.0929</ele>
        <time>2014-06-21T07:56:23Z</time>
      </trkpt>
      <trkpt lat="59.9807506" lon="17.7285522">
        <ele>26.0929</ele>
        <time>2014-06-21T07:56:24Z</time>
      </trkpt>
      <trkpt lat="59.9807646" lon="17.7285978">
        <ele>26.0929</ele>
        <time>2014-06-21T07:56:25Z</time>
      </trkpt>
      <trkpt lat="59.9807822" lon="17.7286357">
        <ele>25.6123</ele>
        <time>2014-06-21T07:56:26Z</time>
      </trkpt>
      <trkpt lat="59.9808033" lon="17.7286702">
        <ele>25.6123</ele>
        <time>2014-06-21T07:56:27Z</time>
      </trkpt>
      <trkpt lat="59.9808194" lon="17.7287118">
        <ele>25.1317</ele>
        <time>2014-06-21T07:56:28Z</time>
      </trkpt>
      <trkpt lat="59.9808299" lon="17.7287538">
        <ele>25.1317</ele>
        <time>2014-06-21T07:56:29Z</time>
      </trkpt>
      <trkpt lat="59.9808376" lon="17.7287914">
        <ele>24.651</ele>
        <time>2014-06-21T07:56:30Z</time>
      </trkpt>
      <trkpt lat="59.9808485" lon="17.7288214">
        <ele>24.1703</ele>
        <time>2014-06-21T07:56:31Z</time>
      </trkpt>
      <trkpt lat="59.9808666" lon="17.7288435">
        <ele>24.1703</ele>
        <time>2014-06-21T07:56:32Z</time>
      </trkpt>
      <trkpt lat="59.9808857" lon="17.7288685">
        <ele>24.1703</ele>
        <time>2014-06-21T07:56:33Z</time>
      </trkpt>
      <trkpt lat="59.9809053" lon="17.7288889">
        <ele>24.1703</ele>
        <time>2014-06-21T07:56:34Z</time>
      </trkpt>
      <trkpt lat="59.9809263" lon="17.7289024">
        <ele>23.6896</ele>
        <time>2014-06-21T07:56:35Z</time>
      </trkpt>
      <trkpt lat="59.9809485" lon="17.7289111">
        <ele>23.6896</ele>
        <time>2014-06-21T07:56:36Z</time>
      </trkpt>
      <trkpt lat="59.9809714" lon="17.7289164">
        <ele>23.6896</ele>
        <time>2014-06-21T07:56:37Z</time>
      </trkpt>
      <trkpt lat="59.9809942" lon="17.7289215">
        <ele>23.6896</ele>
        <time>2014-06-21T07:56:38Z</time>
      </trkpt>
      <trkpt lat="59.9810152" lon="17.728923">
        <ele>23.6896</ele>
        <time>2014-06-21T07:56:39Z</time>
      </trkpt>
      <trkpt lat="59.981036" lon="17.7289189">
        <ele>23.6896</ele>
        <time>2014-06-21T07:56:40Z</time>
      </trkpt>
      <trkpt lat="59.9810576" lon="17.7289123">
        <ele>23.6896</ele>
        <time>2014-06-21T07:56:41Z</time>
      </trkpt>
      <trkpt lat="59.981079" lon="17.7289007">
        <ele>23.6896</ele>
        <time>2014-06-21T07:56:42Z</time>
      </trkpt>
      <trkpt lat="59.9811002" lon="17.7288812">
        <ele>23.6896</ele>
        <time>2014-06-21T07:56:43Z</time>
      </trkpt>
      <trkpt lat="59.9811255" lon="17.7288593">
        <ele>23.6896</ele>
        <time>2014-06-21T07:56:44Z</time>
      </trkpt>
      <trkpt lat="59.9811485" lon="17.7288404">
        <ele>24.1703</ele>
        <time>2014-06-21T07:56:45Z</time>
      </trkpt>
      <trkpt lat="59.9811692" lon="17.7288179">
        <ele>24.1703</ele>
        <time>2014-06-21T07:56:46Z</time>
      </trkpt>
      <trkpt lat="59.9811928" lon="17.7287961">
        <ele>24.1703</ele>
        <time>2014-06-21T07:56:47Z</time>
      </trkpt>
      <trkpt lat="59.9812147" lon="17.728777">
        <ele>24.1703</ele>
        <time>2014-06-21T07:56:48Z</time>
      </trkpt>
      <trkpt lat="59.9812335" lon="17.7287531">
        <ele>24.651</ele>
        <time>2014-06-21T07:56:49Z</time>
      </trkpt>
      <trkpt lat="59.9812542" lon="17.7287285">
        <ele>24.651</ele>
        <time>2014-06-21T07:56:50Z</time>
      </trkpt>
      <trkpt lat="59.9812748" lon="17.7287002">
        <ele>25.1317</ele>
        <time>2014-06-21T07:56:51Z</time>
      </trkpt>
      <trkpt lat="59.9812971" lon="17.7286683">
        <ele>25.1317</ele>
        <time>2014-06-21T07:56:52Z</time>
      </trkpt>
      <trkpt lat="59.9813224" lon="17.7286417">
        <ele>25.6123</ele>
        <time>2014-06-21T07:56:53Z</time>
      </trkpt>
      <trkpt lat="59.9813443" lon="17.7286185">
        <ele>25.6123</ele>
        <time>2014-06-21T07:56:54Z</time>
      </trkpt>
      <trkpt lat="59.9813646" lon="17.7285915">
        <ele>25.6123</ele>
        <time>2014-06-21T07:56:55Z</time>
      </trkpt>
      <trkpt lat="59.9813848" lon="17.72856">
        <ele>25.6123</ele>
        <time>2014-06-21T07:56:56Z</time>
      </trkpt>
      <trkpt lat="59.9814032" lon="17.7285264">
        <ele>26.0929</ele>
        <time>2014-06-21T07:56:57Z</time>
      </trkpt>
      <trkpt lat="59.981421" lon="17.7284922">
        <ele>26.0929</ele>
        <time>2014-06-21T07:56:58Z</time>
      </trkpt>
      <trkpt lat="59.9814391" lon="17.7284554">
        <ele>25.6123</ele>
        <time>2014-06-21T07:56:59Z</time>
      </trkpt>
      <trkpt lat="59.9814552" lon="17.7284176">
        <ele>25.6123</ele>
        <time>2014-06-21T07:57:00Z</time>
      </trkpt>
      <trkpt lat="59.9814732" lon="17.7283829">
        <ele>25.6123</ele>
        <time>2014-06-21T07:57:01Z</time>
      </trkpt>
      <trkpt lat="59.9814919" lon="17.7283523">
        <ele>25.1317</ele>
        <time>2014-06-21T07:57:02Z</time>
      </trkpt>
      <trkpt lat="59.9815111" lon="17.728321">
        <ele>25.1317</ele>
        <time>2014-06-21T07:57:03Z</time>
      </trkpt>
      <trkpt lat="59.9815308" lon="17.7282882">
        <ele>25.1317</ele>
        <time>2014-06-21T07:57:04Z</time>
      </trkpt>
      <trkpt lat="59.981557" lon="17.7282642">
        <ele>25.1317</ele>
        <time>2014-06-21T07:57:05Z</time>
      </trkpt>
      <trkpt lat="59.9815826" lon="17.7282446">
        <ele>25.1317</ele>
        <time>2014-06-21T07:57:06Z</time>
      </trkpt>
      <trkpt lat="59.9816069" lon="17.7282259">
        <ele>25.6123</ele>
        <time>2014-06-21T07:57:07Z</time>
      </trkpt>
      <trkpt lat="59.9816328" lon="17.7282078">
        <ele>25.6123</ele>
        <time>2014-06-21T07:57:08Z</time>
      </trkpt>
      <trkpt lat="59.9816582" lon="17.7281871">
        <ele>26.0929</ele>
        <time>2014-06-21T07:57:09Z</time>
      </trkpt>
      <trkpt lat="59.9816815" lon="17.7281709">
        <ele>26.0929</ele>
        <time>2014-06-21T07:57:10Z</time>
      </trkpt>
      <trkpt lat="59.981706" lon="17.7281584">
        <ele>26.5736</ele>
        <time>2014-06-21T07:57:11Z</time>
      </trkpt>
      <trkpt lat="59.9817319" lon="17.7281425">
        <ele>27.0543</ele>
        <time>2014-06-21T07:57:12Z</time>
      </trkpt>
      <trkpt lat="59.9817578" lon="17.7281249">
        <ele>27.0543</ele>
        <time>2014-06-21T07:57:13Z</time>
      </trkpt>
      <trkpt lat="59.9817835" lon="17.7281109">
        <ele>27.0543</ele>
        <time>2014-06-21T07:57:14Z</time>
      </trkpt>
      <trkpt lat="59.9818059" lon="17.7280928">
        <ele>27.0543</ele>
        <time>2014-06-21T07:57:15Z</time>
      </trkpt>
      <trkpt lat="59.9818261" lon="17.7280693">
        <ele>27.0543</ele>
        <time>2014-06-21T07:57:16Z</time>
      </trkpt>
      <trkpt lat="59.9818466" lon="17.7280456">
        <ele>27.5349</ele>
        <time>2014-06-21T07:57:17Z</time>
      </trkpt>
      <trkpt lat="59.9818654" lon="17.7280195">
        <ele>27.5349</ele>
        <time>2014-06-21T07:57:18Z</time>
      </trkpt>
      <trkpt lat="59.9818846" lon="17.7279897">
        <ele>28.0155</ele>
        <time>2014-06-21T07:57:19Z</time>
      </trkpt>
      <trkpt lat="59.9819039" lon="17.7279574">
        <ele>28.0155</ele>
        <time>2014-06-21T07:57:20Z</time>
      </trkpt>
      <trkpt lat="59.9819232" lon="17.727929">
        <ele>28.4962</ele>
        <time>2014-06-21T07:57:21Z</time>
      </trkpt>
      <trkpt lat="59.9819405" lon="17.727899">
        <ele>28.4962</ele>
        <time>2014-06-21T07:57:22Z</time>
      </trkpt>
      <trkpt lat="59.9819638" lon="17.7278714">
        <ele>28.9769</ele>
        <time>2014-06-21T07:57:23Z</time>
      </trkpt>
      <trkpt lat="59.9819847" lon="17.7278448">
        <ele>28.9769</ele>
        <time>2014-06-21T07:57:24Z</time>
      </trkpt>
      <trkpt lat="59.9820063" lon="17.7278152">
        <ele>29.4575</ele>
        <time>2014-06-21T07:57:25Z</time>
      </trkpt>
      <trkpt lat="59.9820286" lon="17.7277877">
        <ele>29.9381</ele>
        <time>2014-06-21T07:57:26Z</time>
      </trkpt>
      <trkpt lat="59.9820488" lon="17.7277637">
        <ele>29.9381</ele>
        <time>2014-06-21T07:57:27Z</time>
      </trkpt>
      <trkpt lat="59.9820704" lon="17.727737">
        <ele>30.4188</ele>
        <time>2014-06-21T07:57:28Z</time>
      </trkpt>
      <trkpt lat="59.9820928" lon="17.7277084">
        <ele>30.8995</ele>
        <time>2014-06-21T07:57:29Z</time>
      </trkpt>
      <trkpt lat="59.9821126" lon="17.7276762">
        <ele>30.8995</ele>
        <time>2014-06-21T07:57:30Z</time>
      </trkpt>
      <trkpt lat="59.9821342" lon="17.7276403">
        <ele>30.8995</ele>
        <time>2014-06-21T07:57:31Z</time>
      </trkpt>
      <trkpt lat="59.9821565" lon="17.727612">
        <ele>31.3801</ele>
        <time>2014-06-21T07:57:32Z</time>
      </trkpt>
      <trkpt lat="59.9821761" lon="17.7275836">
        <ele>31.3801</ele>
        <time>2014-06-21T07:57:33Z</time>
      </trkpt>
      <trkpt lat="59.9821964" lon="17.7275508">
        <ele>31.3801</ele>
        <time>2014-06-21T07:57:34Z</time>
      </trkpt>
      <trkpt lat="59.9822147" lon="17.7275181">
        <ele>31.3801</ele>
        <time>2014-06-21T07:57:35Z</time>
      </trkpt>
      <trkpt lat="59.9822306" lon="17.7274818">
        <ele>31.8607</ele>
        <time>2014-06-21T07:57:36Z</time>
      </trkpt>
      <trkpt lat="59.9822492" lon="17.7274452">
        <ele>31.8607</ele>
        <time>2014-06-21T07:57:37Z</time>
      </trkpt>
      <trkpt lat="59.9822667" lon="17.7274074">
        <ele>31.8607</ele>
        <time>2014-06-21T07:57:38Z</time>
      </trkpt>
      <trkpt lat="59.9822838" lon="17.7273661">
        <ele>32.3416</ele>
        <time>2014-06-21T07:57:39Z</time>
      </trkpt>
      <trkpt lat="59.9823015" lon="17.7273272">
        <ele>32.3416</ele>
        <time>2014-06-21T07:57:40Z</time>
      </trkpt>
      <trkpt lat="59.9823171" lon="17.7272898">
        <ele>32.3416</ele>
        <time>2014-06-21T07:57:41Z</time>
      </trkpt>
      <trkpt lat="59.9823286" lon="17.7272493">
        <ele>32.8223</ele>
        <time>2014-06-21T07:57:42Z</time>
      </trkpt>
      <trkpt lat="59.9823408" lon="17.7272074">
        <ele>33.3029</ele>
        <time>2014-06-21T07:57:43Z</time>
      </trkpt>
      <trkpt lat="59.9823539" lon="17.7271656">
        <ele>33.3029</ele>
        <time>2014-06-21T07:57:44Z</time>
      </trkpt>
      <trkpt lat="59.9823683" lon="17.7271273">
        <ele>33.3029</ele>
        <time>2014-06-21T07:57:45Z</time>
      </trkpt>
      <trkpt lat="59.9823824" lon="17.7270888">
        <ele>33.3029</ele>
        <time>2014-06-21T07:57:46Z</time>
      </trkpt>
      <trkpt lat="59.9823982" lon="17.727049">
        <ele>32.8223</ele>
        <time>2014-06-21T07:57:47Z</time>
      </trkpt>
      <trkpt lat="59.9824185" lon="17.7270102">
        <ele>32.8223</ele>
        <time>2014-06-21T07:57:48Z</time>
      </trkpt>
      <trkpt lat="59.9824409" lon="17.7269765">
        <ele>32.3416</ele>
        <time>2014-06-21T07:57:49Z</time>
      </trkpt>
      <trkpt lat="59.982461" lon="17.7269469">
        <ele>32.8223</ele>
        <time>2014-06-21T07:57:50Z</time>
      </trkpt>
      <trkpt lat="59.9824771" lon="17.7269178">
        <ele>32.8223</ele>
        <time>2014-06-21T07:57:51Z</time>
      </trkpt>
      <trkpt lat="59.9824989" lon="17.726892">
        <ele>32.3416</ele>
        <time>2014-06-21T07:57:52Z</time>
      </trkpt>
      <trkpt lat="59.9825229" lon="17.7268729">
        <ele>32.8223</ele>
        <time>2014-06-21T07:57:53Z</time>
      </trkpt>
      <trkpt lat="59.982544" lon="17.7268554">
        <ele>32.3416</ele>
        <time>2014-06-21T07:57:54Z</time>
      </trkpt>
      <trkpt lat="59.9825673" lon="17.7268387">
        <ele>32.3416</ele>
        <time>2014-06-21T07:57:55Z</time>
      </trkpt>
      <trkpt lat="59.9825906" lon="17.726819">
        <ele>32.8223</ele>
        <time>2014-06-21T07:57:56Z</time>
      </trkpt>
      <trkpt lat="59.9826138" lon="17.7267988">
        <ele>32.8223</ele>
        <time>2014-06-21T07:57:57Z</time>
      </trkpt>
      <trkpt lat="59.9826363" lon="17.7267782">
        <ele>32.3416</ele>
        <time>2014-06-21T07:57:58Z</time>
      </trkpt>
      <trkpt lat="59.9826604" lon="17.7267567">
        <ele>32.8223</ele>
        <time>2014-06-21T07:57:59Z</time>
      </trkpt>
      <trkpt lat="59.9826835" lon="17.7267339">
        <ele>33.3029</ele>
        <time>2014-06-21T07:58:00Z</time>
      </trkpt>
      <trkpt lat="59.9827063" lon="17.7267116">
        <ele>33.3029</ele>
        <time>2014-06-21T07:58:01Z</time>
      </trkpt>
      <trkpt lat="59.9827305" lon="17.7266885">
        <ele>33.3029</ele>
        <time>2014-06-21T07:58:02Z</time>
      </trkpt>
      <trkpt lat="59.9827567" lon="17.7266621">
        <ele>33.3029</ele>
        <time>2014-06-21T07:58:03Z</time>
      </trkpt>
      <trkpt lat="59.9827801" lon="17.7266365">
        <ele>33.3029</ele>
        <time>2014-06-21T07:58:04Z</time>
      </trkpt>
      <trkpt lat="59.9828025" lon="17.7266153">
        <ele>33.3029</ele>
        <time>2014-06-21T07:58:05Z</time>
      </trkpt>
      <trkpt lat="59.9828263" lon="17.7266018">
        <ele>33.3029</ele>
        <time>2014-06-21T07:58:06Z</time>
      </trkpt>
      <trkpt lat="59.9828536" lon="17.7265971">
        <ele>33.3029</ele>
        <time>2014-06-21T07:58:07Z</time>
      </trkpt>
      <trkpt lat="59.9828807" lon="17.7266">
        <ele>33.3029</ele>
        <time>2014-06-21T07:58:08Z</time>
      </trkpt>
      <trkpt lat="59.9829113" lon="17.7265963">
        <ele>33.3029</ele>
        <time>2014-06-21T07:58:09Z</time>
      </trkpt>
      <trkpt lat="59.9829402" lon="17.7265898">
        <ele>33.3029</ele>
        <time>2014-06-21T07:58:10Z</time>
      </trkpt>
      <trkpt lat="59.9829681" lon="17.7265883">
        <ele>33.7834</ele>
        <time>2014-06-21T07:58:11Z</time>
      </trkpt>
      <trkpt lat="59.9829963" lon="17.7265877">
        <ele>33.7834</ele>
        <time>2014-06-21T07:58:12Z</time>
      </trkpt>
      <trkpt lat="59.9830252" lon="17.7265874">
        <ele>33.7834</ele>
        <time>2014-06-21T07:58:13Z</time>
      </trkpt>
      <trkpt lat="59.9830543" lon="17.7265832">
        <ele>33.7834</ele>
        <time>2014-06-21T07:58:14Z</time>
      </trkpt>
      <trkpt lat="59.9830834" lon="17.7265811">
        <ele>33.7834</ele>
        <time>2014-06-21T07:58:15Z</time>
      </trkpt>
      <trkpt lat="59.9831113" lon="17.7265852">
        <ele>34.2642</ele>
        <time>2014-06-21T07:58:16Z</time>
      </trkpt>
      <trkpt lat="59.9831359" lon="17.7265846">
        <ele>34.7449</ele>
        <time>2014-06-21T07:58:17Z</time>
      </trkpt>
      <trkpt lat="59.9831639" lon="17.7265858">
        <ele>35.2255</ele>
        <time>2014-06-21T07:58:18Z</time>
      </trkpt>
      <trkpt lat="59.9831918" lon="17.7265888">
        <ele>35.2255</ele>
        <time>2014-06-21T07:58:19Z</time>
      </trkpt>
      <trkpt lat="59.9832179" lon="17.7265896">
        <ele>35.2255</ele>
        <time>2014-06-21T07:58:20Z</time>
      </trkpt>
      <trkpt lat="59.9832462" lon="17.7265916">
        <ele>35.2255</ele>
        <time>2014-06-21T07:58:21Z</time>
      </trkpt>
      <trkpt lat="59.9832732" lon="17.72659">
        <ele>35.7061</ele>
        <time>2014-06-21T07:58:22Z</time>
      </trkpt>
      <trkpt lat="59.9833008" lon="17.7265906">
        <ele>35.7061</ele>
        <time>2014-06-21T07:58:23Z</time>
      </trkpt>
      <trkpt lat="59.9833288" lon="17.7265935">
        <ele>35.7061</ele>
        <time>2014-06-21T07:58:24Z</time>
      </trkpt>
      <trkpt lat="59.9833552" lon="17.7265948">
        <ele>35.7061</ele>
        <time>2014-06-21T07:58:25Z</time>
      </trkpt>
      <trkpt lat="59.9833821" lon="17.7265983">
        <ele>35.7061</ele>
        <time>2014-06-21T07:58:26Z</time>
      </trkpt>
      <trkpt lat="59.983406" lon="17.7266008">
        <ele>35.7061</ele>
        <time>2014-06-21T07:58:27Z</time>
      </trkpt>
      <trkpt lat="59.9834301" lon="17.7266017">
        <ele>35.7061</ele>
        <time>2014-06-21T07:58:28Z</time>
      </trkpt>
      <trkpt lat="59.9834556" lon="17.7266035">
        <ele>35.7061</ele>
        <time>2014-06-21T07:58:29Z</time>
      </trkpt>
      <trkpt lat="59.9834801" lon="17.7266036">
        <ele>35.7061</ele>
        <time>2014-06-21T07:58:30Z</time>
      </trkpt>
      <trkpt lat="59.9835055" lon="17.7266029">
        <ele>35.7061</ele>
        <time>2014-06-21T07:58:31Z</time>
      </trkpt>
      <trkpt lat="59.9835323" lon="17.7266082">
        <ele>35.7061</ele>
        <time>2014-06-21T07:58:32Z</time>
      </trkpt>
      <trkpt lat="59.983557" lon="17.7266124">
        <ele>36.1868</ele>
        <time>2014-06-21T07:58:33Z</time>
      </trkpt>
      <trkpt lat="59.9835826" lon="17.7266147">
        <ele>36.1868</ele>
        <time>2014-06-21T07:58:34Z</time>
      </trkpt>
      <trkpt lat="59.9836091" lon="17.7266147">
        <ele>36.1868</ele>
        <time>2014-06-21T07:58:35Z</time>
      </trkpt>
      <trkpt lat="59.9836371" lon="17.7266139">
        <ele>35.7061</ele>
        <time>2014-06-21T07:58:36Z</time>
      </trkpt>
      <trkpt lat="59.9836583" lon="17.7266174">
        <ele>34.7449</ele>
        <time>2014-06-21T07:58:37Z</time>
      </trkpt>
      <trkpt lat="59.9836822" lon="17.726617">
        <ele>34.7449</ele>
        <time>2014-06-21T07:58:38Z</time>
      </trkpt>
      <trkpt lat="59.983706" lon="17.7266159">
        <ele>34.7449</ele>
        <time>2014-06-21T07:58:39Z</time>
      </trkpt>
      <trkpt lat="59.9837307" lon="17.7266149">
        <ele>34.7449</ele>
        <time>2014-06-21T07:58:40Z</time>
      </trkpt>
      <trkpt lat="59.9837551" lon="17.7266107">
        <ele>34.2642</ele>
        <time>2014-06-21T07:58:41Z</time>
      </trkpt>
      <trkpt lat="59.9837811" lon="17.7266071">
        <ele>34.2642</ele>
        <time>2014-06-21T07:58:42Z</time>
      </trkpt>
      <trkpt lat="59.9838064" lon="17.7266033">
        <ele>34.2642</ele>
        <time>2014-06-21T07:58:43Z</time>
      </trkpt>
      <trkpt lat="59.9838324" lon="17.7265995">
        <ele>34.2642</ele>
        <time>2014-06-21T07:58:44Z</time>
      </trkpt>
      <trkpt lat="59.9838578" lon="17.726596">
        <ele>34.2642</ele>
        <time>2014-06-21T07:58:45Z</time>
      </trkpt>
      <trkpt lat="59.9838826" lon="17.7265936">
        <ele>34.2642</ele>
        <time>2014-06-21T07:58:46Z</time>
      </trkpt>
      <trkpt lat="59.9839085" lon="17.7265961">
        <ele>34.2642</ele>
        <time>2014-06-21T07:58:47Z</time>
      </trkpt>
      <trkpt lat="59.9839316" lon="17.7265993">
        <ele>33.7834</ele>
        <time>2014-06-21T07:58:48Z</time>
      </trkpt>
      <trkpt lat="59.9839577" lon="17.7266029">
        <ele>33.7834</ele>
        <time>2014-06-21T07:58:49Z</time>
      </trkpt>
      <trkpt lat="59.983985" lon="17.7266045">
        <ele>34.2642</ele>
        <time>2014-06-21T07:58:50Z</time>
      </trkpt>
      <trkpt lat="59.9840109" lon="17.7266043">
        <ele>33.7834</ele>
        <time>2014-06-21T07:58:51Z</time>
      </trkpt>
      <trkpt lat="59.9840381" lon="17.7266077">
        <ele>33.7834</ele>
        <time>2014-06-21T07:58:52Z</time>
      </trkpt>
      <trkpt lat="59.9840639" lon="17.7266087">
        <ele>33.7834</ele>
        <time>2014-06-21T07:58:53Z</time>
      </trkpt>
      <trkpt lat="59.9840908" lon="17.7266072">
        <ele>33.7834</ele>
        <time>2014-06-21T07:58:54Z</time>
      </trkpt>
      <trkpt lat="59.9841173" lon="17.7266064">
        <ele>33.7834</ele>
        <time>2014-06-21T07:58:55Z</time>
      </trkpt>
      <trkpt lat="59.9841441" lon="17.7266018">
        <ele>33.3029</ele>
        <time>2014-06-21T07:58:56Z</time>
      </trkpt>
      <trkpt lat="59.9841695" lon="17.7266">
        <ele>33.3029</ele>
        <time>2014-06-21T07:58:57Z</time>
      </trkpt>
      <trkpt lat="59.9841932" lon="17.7265968">
        <ele>32.8223</ele>
        <time>2014-06-21T07:58:58Z</time>
      </trkpt>
      <trkpt lat="59.984219" lon="17.7265952">
        <ele>32.8223</ele>
        <time>2014-06-21T07:58:59Z</time>
      </trkpt>
      <trkpt lat="59.9842432" lon="17.7265934">
        <ele>32.8223</ele>
        <time>2014-06-21T07:59:00Z</time>
      </trkpt>
      <trkpt lat="59.9842663" lon="17.7265917">
        <ele>32.3416</ele>
        <time>2014-06-21T07:59:01Z</time>
      </trkpt>
      <trkpt lat="59.9842923" lon="17.726592">
        <ele>32.3416</ele>
        <time>2014-06-21T07:59:02Z</time>
      </trkpt>
      <trkpt lat="59.9843177" lon="17.7265878">
        <ele>32.3416</ele>
        <time>2014-06-21T07:59:03Z</time>
      </trkpt>
      <trkpt lat="59.9843441" lon="17.7265855">
        <ele>32.3416</ele>
        <time>2014-06-21T07:59:04Z</time>
      </trkpt>
      <trkpt lat="59.9843695" lon="17.7265854">
        <ele>32.3416</ele>
        <time>2014-06-21T07:59:05Z</time>
      </trkpt>
      <trkpt lat="59.9843954" lon="17.7265848">
        <ele>32.3416</ele>
        <time>2014-06-21T07:59:06Z</time>
      </trkpt>
      <trkpt lat="59.9844214" lon="17.7265877">
        <ele>32.3416</ele>
        <time>2014-06-21T07:59:07Z</time>
      </trkpt>
      <trkpt lat="59.9844459" lon="17.726589">
        <ele>32.3416</ele>
        <time>2014-06-21T07:59:08Z</time>
      </trkpt>
      <trkpt lat="59.9844734" lon="17.7265903">
        <ele>32.8223</ele>
        <time>2014-06-21T07:59:09Z</time>
      </trkpt>
      <trkpt lat="59.9844994" lon="17.7265907">
        <ele>32.8223</ele>
        <time>2014-06-21T07:59:10Z</time>
      </trkpt>
      <trkpt lat="59.984525" lon="17.7265903">
        <ele>32.8223</ele>
        <time>2014-06-21T07:59:11Z</time>
      </trkpt>
      <trkpt lat="59.9845511" lon="17.7265899">
        <ele>32.8223</ele>
        <time>2014-06-21T07:59:12Z</time>
      </trkpt>
      <trkpt lat="59.9845755" lon="17.726588">
        <ele>32.8223</ele>
        <time>2014-06-21T07:59:13Z</time>
      </trkpt>
      <trkpt lat="59.9846009" lon="17.7265875">
        <ele>32.8223</ele>
        <time>2014-06-21T07:59:14Z</time>
      </trkpt>
      <trkpt lat="59.9846265" lon="17.726589">
        <ele>32.3416</ele>
        <time>2014-06-21T07:59:15Z</time>
      </trkpt>
      <trkpt lat="59.9846518" lon="17.7265899">
        <ele>32.8223</ele>
        <time>2014-06-21T07:59:16Z</time>
      </trkpt>
      <trkpt lat="59.9846777" lon="17.7265924">
        <ele>32.3416</ele>
        <time>2014-06-21T07:59:17Z</time>
      </trkpt>
      <trkpt lat="59.9847044" lon="17.7265966">
        <ele>32.3416</ele>
        <time>2014-06-21T07:59:18Z</time>
      </trkpt>
      <trkpt lat="59.9847316" lon="17.7265991">
        <ele>32.3416</ele>
        <time>2014-06-21T07:59:19Z</time>
      </trkpt>
      <trkpt lat="59.9847599" lon="17.7266013">
        <ele>32.8223</ele>
        <time>2014-06-21T07:59:20Z</time>
      </trkpt>
      <trkpt lat="59.9847878" lon="17.726604">
        <ele>32.8223</ele>
        <time>2014-06-21T07:59:21Z</time>
      </trkpt>
      <trkpt lat="59.9848107" lon="17.7266043">
        <ele>32.3416</ele>
        <time>2014-06-21T07:59:22Z</time>
      </trkpt>
      <trkpt lat="59.9848347" lon="17.7266061">
        <ele>32.3416</ele>
        <time>2014-06-21T07:59:23Z</time>
      </trkpt>
      <trkpt lat="59.9848593" lon="17.7266069">
        <ele>32.3416</ele>
        <time>2014-06-21T07:59:24Z</time>
      </trkpt>
      <trkpt lat="59.9848853" lon="17.7266071">
        <ele>32.3416</ele>
        <time>2014-06-21T07:59:25Z</time>
      </trkpt>
      <trkpt lat="59.9849125" lon="17.7266087">
        <ele>32.3416</ele>
        <time>2014-06-21T07:59:26Z</time>
      </trkpt>
      <trkpt lat="59.9849403" lon="17.7266087">
        <ele>32.3416</ele>
        <time>2014-06-21T07:59:27Z</time>
      </trkpt>
      <trkpt lat="59.9849672" lon="17.7266087">
        <ele>32.3416</ele>
        <time>2014-06-21T07:59:28Z</time>
      </trkpt>
      <trkpt lat="59.9849947" lon="17.726608">
        <ele>32.3416</ele>
        <time>2014-06-21T07:59:29Z</time>
      </trkpt>
      <trkpt lat="59.9850206" lon="17.7266086">
        <ele>31.8607</ele>
        <time>2014-06-21T07:59:30Z</time>
      </trkpt>
      <trkpt lat="59.985046" lon="17.7266107">
        <ele>31.8607</ele>
        <time>2014-06-21T07:59:31Z</time>
      </trkpt>
      <trkpt lat="59.9850729" lon="17.7266102">
        <ele>32.3416</ele>
        <time>2014-06-21T07:59:32Z</time>
      </trkpt>
      <trkpt lat="59.9850991" lon="17.72661">
        <ele>31.8607</ele>
        <time>2014-06-21T07:59:33Z</time>
      </trkpt>
      <trkpt lat="59.9851246" lon="17.726609">
        <ele>31.8607</ele>
        <time>2014-06-21T07:59:34Z</time>
      </trkpt>
      <trkpt lat="59.9851506" lon="17.7266078">
        <ele>32.3416</ele>
        <time>2014-06-21T07:59:35Z</time>
      </trkpt>
      <trkpt lat="59.9851775" lon="17.7266096">
        <ele>32.3416</ele>
        <time>2014-06-21T07:59:36Z</time>
      </trkpt>
      <trkpt lat="59.985204" lon="17.7266138">
        <ele>32.8223</ele>
        <time>2014-06-21T07:59:37Z</time>
      </trkpt>
      <trkpt lat="59.9852303" lon="17.7266148">
        <ele>32.8223</ele>
        <time>2014-06-21T07:59:38Z</time>
      </trkpt>
      <trkpt lat="59.9852577" lon="17.7266157">
        <ele>33.3029</ele>
        <time>2014-06-21T07:59:39Z</time>
      </trkpt>
      <trkpt lat="59.9852833" lon="17.7266162">
        <ele>33.3029</ele>
        <time>2014-06-21T07:59:40Z</time>
      </trkpt>
      <trkpt lat="59.9853096" lon="17.7266149">
        <ele>33.3029</ele>
        <time>2014-06-21T07:59:41Z</time>
      </trkpt>
      <trkpt lat="59.9853361" lon="17.7266157">
        <ele>33.3029</ele>
        <time>2014-06-21T07:59:42Z</time>
      </trkpt>
      <trkpt lat="59.9853624" lon="17.7266165">
        <ele>33.7834</ele>
        <time>2014-06-21T07:59:43Z</time>
      </trkpt>
      <trkpt lat="59.9853884" lon="17.7266173">
        <ele>33.7834</ele>
        <time>2014-06-21T07:59:44Z</time>
      </trkpt>
      <trkpt lat="59.9854143" lon="17.7266183">
        <ele>33.7834</ele>
        <time>2014-06-21T07:59:45Z</time>
      </trkpt>
      <trkpt lat="59.9854388" lon="17.7266149">
        <ele>33.7834</ele>
        <time>2014-06-21T07:59:46Z</time>
      </trkpt>
      <trkpt lat="59.985465" lon="17.7266149">
        <ele>33.7834</ele>
        <time>2014-06-21T07:59:47Z</time>
      </trkpt>
      <trkpt lat="59.9854908" lon="17.7266154">
        <ele>33.7834</ele>
        <time>2014-06-21T07:59:48Z</time>
      </trkpt>
      <trkpt lat="59.9855168" lon="17.7266133">
        <ele>34.2642</ele>
        <time>2014-06-21T07:59:49Z</time>
      </trkpt>
      <trkpt lat="59.9855428" lon="17.7266117">
        <ele>34.2642</ele>
        <time>2014-06-21T07:59:50Z</time>
      </trkpt>
      <trkpt lat="59.9855667" lon="17.726608">
        <ele>33.7834</ele>
        <time>2014-06-21T07:59:51Z</time>
      </trkpt>
      <trkpt lat="59.985594" lon="17.7266077">
        <ele>33.7834</ele>
        <time>2014-06-21T07:59:52Z</time>
      </trkpt>
      <trkpt lat="59.985619" lon="17.7266066">
        <ele>33.7834</ele>
        <time>2014-06-21T07:59:53Z</time>
      </trkpt>
      <trkpt lat="59.9856444" lon="17.7266038">
        <ele>33.7834</ele>
        <time>2014-06-21T07:59:54Z</time>
      </trkpt>
      <trkpt lat="59.9856723" lon="17.7266029">
        <ele>33.7834</ele>
        <time>2014-06-21T07:59:55Z</time>
      </trkpt>
      <trkpt lat="59.9856978" lon="17.7266023">
        <ele>33.7834</ele>
        <time>2014-06-21T07:59:56Z</time>
      </trkpt>
      <trkpt lat="59.985723" lon="17.726603">
        <ele>33.7834</ele>
        <time>2014-06-21T07:59:57Z</time>
      </trkpt>
      <trkpt lat="59.9857485" lon="17.7266024">
        <ele>33.3029</ele>
        <time>2014-06-21T07:59:58Z</time>
      </trkpt>
      <trkpt lat="59.9857743" lon="17.7266014">
        <ele>33.7834</ele>
        <time>2014-06-21T07:59:59Z</time>
      </trkpt>
      <trkpt lat="59.9858011" lon="17.7265988">
        <ele>33.7834</ele>
        <time>2014-06-21T08:00:00Z</time>
      </trkpt>
      <trkpt lat="59.985829" lon="17.7265962">
        <ele>33.7834</ele>
        <time>2014-06-21T08:00:01Z</time>
      </trkpt>
      <trkpt lat="59.9858554" lon="17.7265936">
        <ele>34.2642</ele>
        <time>2014-06-21T08:00:02Z</time>
      </trkpt>
      <trkpt lat="59.9858821" lon="17.7265947">
        <ele>34.2642</ele>
        <time>2014-06-21T08:00:03Z</time>
      </trkpt>
      <trkpt lat="59.98591" lon="17.7265977">
        <ele>34.7449</ele>
        <time>2014-06-21T08:00:04Z</time>
      </trkpt>
      <trkpt lat="59.9859375" lon="17.7265961">
        <ele>34.7449</ele>
        <time>2014-06-21T08:00:05Z</time>
      </trkpt>
      <trkpt lat="59.9859639" lon="17.7265946">
        <ele>34.2642</ele>
        <time>2014-06-21T08:00:06Z</time>
      </trkpt>
      <trkpt lat="59.9859903" lon="17.726595">
        <ele>34.2642</ele>
        <time>2014-06-21T08:00:07Z</time>
      </trkpt>
      <trkpt lat="59.9860178" lon="17.7265956">
        <ele>34.2642</ele>
        <time>2014-06-21T08:00:08Z</time>
      </trkpt>
      <trkpt lat="59.9860453" lon="17.7265962">
        <ele>34.7449</ele>
        <time>2014-06-21T08:00:09Z</time>
      </trkpt>
      <trkpt lat="59.9860728" lon="17.7265968">
        <ele>34.2642</ele>
        <time>2014-06-21T08:00:10Z</time>
      </trkpt>
      <trkpt lat="59.9861005" lon="17.7265995">
        <ele>34.2642</ele>
        <time>2014-06-21T08:00:11Z</time>
      </trkpt>
      <trkpt lat="59.9861267" lon="17.7265983">
        <ele>34.2642</ele>
        <time>2014-06-21T08:00:12Z</time>
      </trkpt>
      <trkpt lat="59.9861544" lon="17.7265934">
        <ele>34.2642</ele>
        <time>2014-06-21T08:00:13Z</time>
      </trkpt>
      <trkpt lat="59.9861799" lon="17.7265904">
        <ele>34.2642</ele>
        <time>2014-06-21T08:00:14Z</time>
      </trkpt>
      <trkpt lat="59.9862064" lon="17.7265874">
        <ele>33.7834</ele>
        <time>2014-06-21T08:00:15Z</time>
      </trkpt>
      <trkpt lat="59.9862343" lon="17.7265895">
        <ele>34.2642</ele>
        <time>2014-06-21T08:00:16Z</time>
      </trkpt>
      <trkpt lat="59.986259" lon="17.7265895">
        <ele>33.7834</ele>
        <time>2014-06-21T08:00:17Z</time>
      </trkpt>
      <trkpt lat="59.9862862" lon="17.7265909">
        <ele>33.7834</ele>
        <time>2014-06-21T08:00:18Z</time>
      </trkpt>
      <trkpt lat="59.986312" lon="17.7265962">
        <ele>33.7834</ele>
        <time>2014-06-21T08:00:19Z</time>
      </trkpt>
      <trkpt lat="59.9863378" lon="17.7265988">
        <ele>33.7834</ele>
        <time>2014-06-21T08:00:20Z</time>
      </trkpt>
      <trkpt lat="59.9863628" lon="17.7265952">
        <ele>33.3029</ele>
        <time>2014-06-21T08:00:21Z</time>
      </trkpt>
      <trkpt lat="59.9863864" lon="17.7265889">
        <ele>33.3029</ele>
        <time>2014-06-21T08:00:22Z</time>
      </trkpt>
      <trkpt lat="59.9864115" lon="17.7265819">
        <ele>32.8223</ele>
        <time>2014-06-21T08:00:23Z</time>
      </trkpt>
      <trkpt lat="59.9864364" lon="17.726577">
        <ele>32.8223</ele>
        <time>2014-06-21T08:00:24Z</time>
      </trkpt>
      <trkpt lat="59.9864605" lon="17.7265758">
        <ele>32.3416</ele>
        <time>2014-06-21T08:00:25Z</time>
      </trkpt>
      <trkpt lat="59.9864879" lon="17.7265785">
        <ele>32.3416</ele>
        <time>2014-06-21T08:00:26Z</time>
      </trkpt>
      <trkpt lat="59.9865129" lon="17.7265792">
        <ele>31.8607</ele>
        <time>2014-06-21T08:00:27Z</time>
      </trkpt>
      <trkpt lat="59.9865383" lon="17.7265775">
        <ele>32.3416</ele>
        <time>2014-06-21T08:00:28Z</time>
      </trkpt>
      <trkpt lat="59.9865636" lon="17.7265761">
        <ele>31.8607</ele>
        <time>2014-06-21T08:00:29Z</time>
      </trkpt>
      <trkpt lat="59.9865886" lon="17.726575">
        <ele>31.3801</ele>
        <time>2014-06-21T08:00:30Z</time>
      </trkpt>
      <trkpt lat="59.986614" lon="17.7265759">
        <ele>31.3801</ele>
        <time>2014-06-21T08:00:31Z</time>
      </trkpt>
      <trkpt lat="59.9866378" lon="17.7265765">
        <ele>31.3801</ele>
        <time>2014-06-21T08:00:32Z</time>
      </trkpt>
      <trkpt lat="59.9866632" lon="17.726572">
        <ele>31.3801</ele>
        <time>2014-06-21T08:00:33Z</time>
      </trkpt>
      <trkpt lat="59.9866885" lon="17.7265693">
        <ele>30.8995</ele>
        <time>2014-06-21T08:00:34Z</time>
      </trkpt>
      <trkpt lat="59.986715" lon="17.7265689">
        <ele>30.8995</ele>
        <time>2014-06-21T08:00:35Z</time>
      </trkpt>
      <trkpt lat="59.986745" lon="17.7265698">
        <ele>30.8995</ele>
        <time>2014-06-21T08:00:36Z</time>
      </trkpt>
      <trkpt lat="59.9867725" lon="17.7265709">
        <ele>31.3801</ele>
        <time>2014-06-21T08:00:37Z</time>
      </trkpt>
      <trkpt lat="59.9867985" lon="17.7265714">
        <ele>30.8995</ele>
        <time>2014-06-21T08:00:38Z</time>
      </trkpt>
      <trkpt lat="59.9868265" lon="17.7265693">
        <ele>30.8995</ele>
        <time>2014-06-21T08:00:39Z</time>
      </trkpt>
      <trkpt lat="59.9868539" lon="17.7265626">
        <ele>30.8995</ele>
        <time>2014-06-21T08:00:40Z</time>
      </trkpt>
      <trkpt lat="59.9868816" lon="17.7265575">
        <ele>30.8995</ele>
        <time>2014-06-21T08:00:41Z</time>
      </trkpt>
      <trkpt lat="59.9869098" lon="17.7265605">
        <ele>30.8995</ele>
        <time>2014-06-21T08:00:42Z</time>
      </trkpt>
      <trkpt lat="59.9869383" lon="17.726566">
        <ele>30.8995</ele>
        <time>2014-06-21T08:00:43Z</time>
      </trkpt>
      <trkpt lat="59.9869683" lon="17.726572">
        <ele>31.3801</ele>
        <time>2014-06-21T08:00:44Z</time>
      </trkpt>
      <trkpt lat="59.9869952" lon="17.726575">
        <ele>31.3801</ele>
        <time>2014-06-21T08:00:45Z</time>
      </trkpt>
      <trkpt lat="59.9870222" lon="17.7265785">
        <ele>31.3801</ele>
        <time>2014-06-21T08:00:46Z</time>
      </trkpt>
      <trkpt lat="59.9870492" lon="17.7265844">
        <ele>31.3801</ele>
        <time>2014-06-21T08:00:47Z</time>
      </trkpt>
      <trkpt lat="59.9870771" lon="17.7265881">
        <ele>31.3801</ele>
        <time>2014-06-21T08:00:48Z</time>
      </trkpt>
      <trkpt lat="59.9871061" lon="17.7265926">
        <ele>31.8607</ele>
        <time>2014-06-21T08:00:49Z</time>
      </trkpt>
      <trkpt lat="59.987134" lon="17.7265981">
        <ele>31.8607</ele>
        <time>2014-06-21T08:00:50Z</time>
      </trkpt>
      <trkpt lat="59.9871601" lon="17.7266008">
        <ele>31.3801</ele>
        <time>2014-06-21T08:00:51Z</time>
      </trkpt>
      <trkpt lat="59.9871872" lon="17.726605">
        <ele>31.8607</ele>
        <time>2014-06-21T08:00:52Z</time>
      </trkpt>
      <trkpt lat="59.9872118" lon="17.7266081">
        <ele>31.3801</ele>
        <time>2014-06-21T08:00:53Z</time>
      </trkpt>
      <trkpt lat="59.9872378" lon="17.7266082">
        <ele>31.3801</ele>
        <time>2014-06-21T08:00:54Z</time>
      </trkpt>
      <trkpt lat="59.9872649" lon="17.726605">
        <ele>30.8995</ele>
        <time>2014-06-21T08:00:55Z</time>
      </trkpt>
      <trkpt lat="59.9872921" lon="17.7266014">
        <ele>31.3801</ele>
        <time>2014-06-21T08:00:56Z</time>
      </trkpt>
      <trkpt lat="59.987319" lon="17.7266019">
        <ele>30.8995</ele>
        <time>2014-06-21T08:00:57Z</time>
      </trkpt>
      <trkpt lat="59.987346" lon="17.7266024">
        <ele>30.8995</ele>
        <time>2014-06-21T08:00:58Z</time>
      </trkpt>
      <trkpt lat="59.9873745" lon="17.7265971">
        <ele>30.8995</ele>
        <time>2014-06-21T08:00:59Z</time>
      </trkpt>
      <trkpt lat="59.9874023" lon="17.7265927">
        <ele>30.8995</ele>
        <time>2014-06-21T08:01:00Z</time>
      </trkpt>
      <trkpt lat="59.9874302" lon="17.7265877">
        <ele>30.8995</ele>
        <time>2014-06-21T08:01:01Z</time>
      </trkpt>
      <trkpt lat="59.9874594" lon="17.7265864">
        <ele>31.3801</ele>
        <time>2014-06-21T08:01:02Z</time>
      </trkpt>
      <trkpt lat="59.9874844" lon="17.726585">
        <ele>31.3801</ele>
        <time>2014-06-21T08:01:03Z</time>
      </trkpt>
      <trkpt lat="59.9875101" lon="17.7265826">
        <ele>31.3801</ele>
        <time>2014-06-21T08:01:04Z</time>
      </trkpt>
      <trkpt lat="59.9875329" lon="17.7265828">
        <ele>30.8995</ele>
        <time>2014-06-21T08:01:05Z</time>
      </trkpt>
      <trkpt lat="59.9875572" lon="17.7265798">
        <ele>30.8995</ele>
        <time>2014-06-21T08:01:06Z</time>
      </trkpt>
      <trkpt lat="59.9875833" lon="17.7265774">
        <ele>30.8995</ele>
        <time>2014-06-21T08:01:07Z</time>
      </trkpt>
      <trkpt lat="59.9876076" lon="17.726575">
        <ele>30.4188</ele>
        <time>2014-06-21T08:01:08Z</time>
      </trkpt>
      <trkpt lat="59.987634" lon="17.7265736">
        <ele>30.4188</ele>
        <time>2014-06-21T08:01:09Z</time>
      </trkpt>
      <trkpt lat="59.9876587" lon="17.7265751">
        <ele>30.4188</ele>
        <time>2014-06-21T08:01:10Z</time>
      </trkpt>
      <trkpt lat="59.9876841" lon="17.7265771">
        <ele>29.9381</ele>
        <time>2014-06-21T08:01:11Z</time>
      </trkpt>
      <trkpt lat="59.98771" lon="17.7265797">
        <ele>29.9381</ele>
        <time>2014-06-21T08:01:12Z</time>
      </trkpt>
      <trkpt lat="59.9877329" lon="17.7265792">
        <ele>29.4575</ele>
        <time>2014-06-21T08:01:13Z</time>
      </trkpt>
      <trkpt lat="59.9877579" lon="17.7265795">
        <ele>28.9769</ele>
        <time>2014-06-21T08:01:14Z</time>
      </trkpt>
      <trkpt lat="59.987782" lon="17.7265824">
        <ele>28.9769</ele>
        <time>2014-06-21T08:01:15Z</time>
      </trkpt>
      <trkpt lat="59.9878057" lon="17.7265833">
        <ele>28.9769</ele>
        <time>2014-06-21T08:01:16Z</time>
      </trkpt>
      <trkpt lat="59.9878298" lon="17.7265848">
        <ele>28.9769</ele>
        <time>2014-06-21T08:01:17Z</time>
      </trkpt>
      <trkpt lat="59.9878526" lon="17.7265855">
        <ele>28.9769</ele>
        <time>2014-06-21T08:01:18Z</time>
      </trkpt>
      <trkpt lat="59.9878752" lon="17.7265842">
        <ele>28.4962</ele>
        <time>2014-06-21T08:01:19Z</time>
      </trkpt>
      <trkpt lat="59.9879013" lon="17.7265872">
        <ele>28.4962</ele>
        <time>2014-06-21T08:01:20Z</time>
      </trkpt>
      <trkpt lat="59.9879255" lon="17.7265885">
        <ele>28.9769</ele>
        <time>2014-06-21T08:01:21Z</time>
      </trkpt>
      <trkpt lat="59.9879518" lon="17.7265901">
        <ele>28.9769</ele>
        <time>2014-06-21T08:01:22Z</time>
      </trkpt>
      <trkpt lat="59.9879772" lon="17.7265962">
        <ele>29.4575</ele>
        <time>2014-06-21T08:01:23Z</time>
      </trkpt>
      <trkpt lat="59.9880016" lon="17.7265992">
        <ele>29.4575</ele>
        <time>2014-06-21T08:01:24Z</time>
      </trkpt>
      <trkpt lat="59.9880273" lon="17.7265991">
        <ele>29.4575</ele>
        <time>2014-06-21T08:01:25Z</time>
      </trkpt>
      <trkpt lat="59.9880509" lon="17.7265998">
        <ele>28.9769</ele>
        <time>2014-06-21T08:01:26Z</time>
      </trkpt>
      <trkpt lat="59.9880748" lon="17.7266031">
        <ele>28.9769</ele>
        <time>2014-06-21T08:01:27Z</time>
      </trkpt>
      <trkpt lat="59.9880969" lon="17.7266092">
        <ele>28.9769</ele>
        <time>2014-06-21T08:01:28Z</time>
      </trkpt>
      <trkpt lat="59.9881168" lon="17.7266096">
        <ele>28.4962</ele>
        <time>2014-06-21T08:01:29Z</time>
      </trkpt>
      <trkpt lat="59.9881416" lon="17.7266055">
        <ele>28.4962</ele>
        <time>2014-06-21T08:01:30Z</time>
      </trkpt>
      <trkpt lat="59.9881647" lon="17.7266052">
        <ele>28.4962</ele>
        <time>2014-06-21T08:01:31Z</time>
      </trkpt>
      <trkpt lat="59.9881872" lon="17.7266048">
        <ele>28.4962</ele>
        <time>2014-06-21T08:01:32Z</time>
      </trkpt>
      <trkpt lat="59.9882132" lon="17.7266052">
        <ele>28.4962</ele>
        <time>2014-06-21T08:01:33Z</time>
      </trkpt>
      <trkpt lat="59.9882391" lon="17.7266118">
        <ele>28.9769</ele>
        <time>2014-06-21T08:01:34Z</time>
      </trkpt>
      <trkpt lat="59.9882617" lon="17.7266163">
        <ele>28.9769</ele>
        <time>2014-06-21T08:01:35Z</time>
      </trkpt>
      <trkpt lat="59.9882841" lon="17.7266157">
        <ele>28.4962</ele>
        <time>2014-06-21T08:01:36Z</time>
      </trkpt>
      <trkpt lat="59.9883059" lon="17.7266119">
        <ele>28.4962</ele>
        <time>2014-06-21T08:01:37Z</time>
      </trkpt>
      <trkpt lat="59.9883285" lon="17.7266067">
        <ele>28.4962</ele>
        <time>2014-06-21T08:01:38Z</time>
      </trkpt>
      <trkpt lat="59.9883519" lon="17.7266076">
        <ele>28.0155</ele>
        <time>2014-06-21T08:01:39Z</time>
      </trkpt>
      <trkpt lat="59.9883746" lon="17.7266102">
        <ele>28.0155</ele>
        <time>2014-06-21T08:01:40Z</time>
      </trkpt>
      <trkpt lat="59.9883965" lon="17.7266082">
        <ele>27.5349</ele>
        <time>2014-06-21T08:01:41Z</time>
      </trkpt>
      <trkpt lat="59.9884193" lon="17.72661">
        <ele>27.5349</ele>
        <time>2014-06-21T08:01:42Z</time>
      </trkpt>
      <trkpt lat="59.9884414" lon="17.7266111">
        <ele>27.0543</ele>
        <time>2014-06-21T08:01:43Z</time>
      </trkpt>
      <trkpt lat="59.9884626" lon="17.726608">
        <ele>26.5736</ele>
        <time>2014-06-21T08:01:44Z</time>
      </trkpt>
      <trkpt lat="59.9884861" lon="17.7266085">
        <ele>26.5736</ele>
        <time>2014-06-21T08:01:45Z</time>
      </trkpt>
      <trkpt lat="59.9885073" lon="17.7266081">
        <ele>26.5736</ele>
        <time>2014-06-21T08:01:46Z</time>
      </trkpt>
      <trkpt lat="59.988529" lon="17.726606">
        <ele>26.0929</ele>
        <time>2014-06-21T08:01:47Z</time>
      </trkpt>
      <trkpt lat="59.9885528" lon="17.7266061">
        <ele>26.0929</ele>
        <time>2014-06-21T08:01:48Z</time>
      </trkpt>
      <trkpt lat="59.9885771" lon="17.7266082">
        <ele>26.5736</ele>
        <time>2014-06-21T08:01:49Z</time>
      </trkpt>
      <trkpt lat="59.9885999" lon="17.7266145">
        <ele>27.0543</ele>
        <time>2014-06-21T08:01:50Z</time>
      </trkpt>
      <trkpt lat="59.9886244" lon="17.7266268">
        <ele>27.0543</ele>
        <time>2014-06-21T08:01:51Z</time>
      </trkpt>
      <trkpt lat="59.9886488" lon="17.7266347">
        <ele>27.5349</ele>
        <time>2014-06-21T08:01:52Z</time>
      </trkpt>
      <trkpt lat="59.9886731" lon="17.7266323">
        <ele>27.5349</ele>
        <time>2014-06-21T08:01:53Z</time>
      </trkpt>
      <trkpt lat="59.9887009" lon="17.7266262">
        <ele>28.0155</ele>
        <time>2014-06-21T08:01:54Z</time>
      </trkpt>
      <trkpt lat="59.9887269" lon="17.7266196">
        <ele>27.5349</ele>
        <time>2014-06-21T08:01:55Z</time>
      </trkpt>
      <trkpt lat="59.988753" lon="17.7266163">
        <ele>27.5349</ele>
        <time>2014-06-21T08:01:56Z</time>
      </trkpt>
      <trkpt lat="59.9887797" lon="17.7266149">
        <ele>28.0155</ele>
        <time>2014-06-21T08:01:57Z</time>
      </trkpt>
      <trkpt lat="59.9888031" lon="17.7266143">
        <ele>28.0155</ele>
        <time>2014-06-21T08:01:58Z</time>
      </trkpt>
      <trkpt lat="59.9888265" lon="17.7266138">
        <ele>28.0155</ele>
        <time>2014-06-21T08:01:59Z</time>
      </trkpt>
      <trkpt lat="59.9888539" lon="17.7266133">
        <ele>28.0155</ele>
        <time>2014-06-21T08:02:00Z</time>
      </trkpt>
      <trkpt lat="59.9888786" lon="17.7266111">
        <ele>28.4962</ele>
        <time>2014-06-21T08:02:01Z</time>
      </trkpt>
      <trkpt lat="59.9889017" lon="17.7266091">
        <ele>28.0155</ele>
        <time>2014-06-21T08:02:02Z</time>
      </trkpt>
      <trkpt lat="59.9889254" lon="17.7266064">
        <ele>28.0155</ele>
        <time>2014-06-21T08:02:03Z</time>
      </trkpt>
      <trkpt lat="59.9889495" lon="17.7266031">
        <ele>28.0155</ele>
        <time>2014-06-21T08:02:04Z</time>
      </trkpt>
      <trkpt lat="59.9889739" lon="17.7266017">
        <ele>28.0155</ele>
        <time>2014-06-21T08:02:05Z</time>
      </trkpt>
      <trkpt lat="59.9889983" lon="17.7266029">
        <ele>28.0155</ele>
        <time>2014-06-21T08:02:06Z</time>
      </trkpt>
      <trkpt lat="59.9890221" lon="17.7266051">
        <ele>28.0155</ele>
        <time>2014-06-21T08:02:07Z</time>
      </trkpt>
      <trkpt lat="59.9890445" lon="17.72661">
        <ele>28.4962</ele>
        <time>2014-06-21T08:02:08Z</time>
      </trkpt>
      <trkpt lat="59.9890656" lon="17.7266118">
        <ele>28.0155</ele>
        <time>2014-06-21T08:02:09Z</time>
      </trkpt>
      <trkpt lat="59.9890896" lon="17.7266114">
        <ele>28.0155</ele>
        <time>2014-06-21T08:02:10Z</time>
      </trkpt>
      <trkpt lat="59.9891123" lon="17.7266117">
        <ele>28.0155</ele>
        <time>2014-06-21T08:02:11Z</time>
      </trkpt>
      <trkpt lat="59.9891345" lon="17.7266098">
        <ele>28.0155</ele>
        <time>2014-06-21T08:02:12Z</time>
      </trkpt>
      <trkpt lat="59.9891584" lon="17.7266095">
        <ele>28.4962</ele>
        <time>2014-06-21T08:02:13Z</time>
      </trkpt>
      <trkpt lat="59.9891828" lon="17.7266102">
        <ele>28.4962</ele>
        <time>2014-06-21T08:02:14Z</time>
      </trkpt>
      <trkpt lat="59.9892067" lon="17.7266096">
        <ele>28.4962</ele>
        <time>2014-06-21T08:02:15Z</time>
      </trkpt>
      <trkpt lat="59.9892315" lon="17.7266092">
        <ele>28.4962</ele>
        <time>2014-06-21T08:02:16Z</time>
      </trkpt>
      <trkpt lat="59.9892551" lon="17.7266087">
        <ele>28.4962</ele>
        <time>2014-06-21T08:02:17Z</time>
      </trkpt>
      <trkpt lat="59.9892771" lon="17.7266093">
        <ele>28.4962</ele>
        <time>2014-06-21T08:02:18Z</time>
      </trkpt>
      <trkpt lat="59.9893009" lon="17.7266095">
        <ele>28.4962</ele>
        <time>2014-06-21T08:02:19Z</time>
      </trkpt>
      <trkpt lat="59.9893236" lon="17.7266066">
        <ele>28.4962</ele>
        <time>2014-06-21T08:02:20Z</time>
      </trkpt>
      <trkpt lat="59.9893463" lon="17.7266052">
        <ele>28.4962</ele>
        <time>2014-06-21T08:02:21Z</time>
      </trkpt>
      <trkpt lat="59.9893713" lon="17.726603">
        <ele>28.4962</ele>
        <time>2014-06-21T08:02:22Z</time>
      </trkpt>
      <trkpt lat="59.9893957" lon="17.7266015">
        <ele>28.4962</ele>
        <time>2014-06-21T08:02:23Z</time>
      </trkpt>
      <trkpt lat="59.9894155" lon="17.7266045">
        <ele>28.4962</ele>
        <time>2014-06-21T08:02:24Z</time>
      </trkpt>
      <trkpt lat="59.9894339" lon="17.7266046">
        <ele>28.0155</ele>
        <time>2014-06-21T08:02:25Z</time>
      </trkpt>
      <trkpt lat="59.9894561" lon="17.7266025">
        <ele>28.0155</ele>
        <time>2014-06-21T08:02:26Z</time>
      </trkpt>
      <trkpt lat="59.9894776" lon="17.7265977">
        <ele>27.5349</ele>
        <time>2014-06-21T08:02:27Z</time>
      </trkpt>
      <trkpt lat="59.9895009" lon="17.7265911">
        <ele>28.0155</ele>
        <time>2014-06-21T08:02:28Z</time>
      </trkpt>
      <trkpt lat="59.9895243" lon="17.7265849">
        <ele>27.5349</ele>
        <time>2014-06-21T08:02:29Z</time>
      </trkpt>
      <trkpt lat="59.9895485" lon="17.7265762">
        <ele>27.5349</ele>
        <time>2014-06-21T08:02:30Z</time>
      </trkpt>
      <trkpt lat="59.9895742" lon="17.7265624">
        <ele>27.5349</ele>
        <time>2014-06-21T08:02:31Z</time>
      </trkpt>
      <trkpt lat="59.9896028" lon="17.7265499">
        <ele>27.5349</ele>
        <time>2014-06-21T08:02:32Z</time>
      </trkpt>
      <trkpt lat="59.9896283" lon="17.7265387">
        <ele>27.5349</ele>
        <time>2014-06-21T08:02:33Z</time>
      </trkpt>
      <trkpt lat="59.9896547" lon="17.7265377">
        <ele>28.0155</ele>
        <time>2014-06-21T08:02:34Z</time>
      </trkpt>
      <trkpt lat="59.9896768" lon="17.7265544">
        <ele>28.4962</ele>
        <time>2014-06-21T08:02:35Z</time>
      </trkpt>
      <trkpt lat="59.9896908" lon="17.7265807">
        <ele>28.9769</ele>
        <time>2014-06-21T08:02:36Z</time>
      </trkpt>
      <trkpt lat="59.9896988" lon="17.7266186">
        <ele>28.9769</ele>
        <time>2014-06-21T08:02:37Z</time>
      </trkpt>
      <trkpt lat="59.9897009" lon="17.7266672">
        <ele>29.4575</ele>
        <time>2014-06-21T08:02:38Z</time>
      </trkpt>
      <trkpt lat="59.9896998" lon="17.7267128">
        <ele>29.9381</ele>
        <time>2014-06-21T08:02:39Z</time>
      </trkpt>
      <trkpt lat="59.9897001" lon="17.7267551">
        <ele>29.9381</ele>
        <time>2014-06-21T08:02:40Z</time>
      </trkpt>
      <trkpt lat="59.9896976" lon="17.726797">
        <ele>30.4188</ele>
        <time>2014-06-21T08:02:41Z</time>
      </trkpt>
      <trkpt lat="59.9896915" lon="17.72684">
        <ele>30.8995</ele>
        <time>2014-06-21T08:02:42Z</time>
      </trkpt>
      <trkpt lat="59.9896857" lon="17.7268785">
        <ele>31.3801</ele>
        <time>2014-06-21T08:02:43Z</time>
      </trkpt>
      <trkpt lat="59.9896773" lon="17.7269243">
        <ele>31.3801</ele>
        <time>2014-06-21T08:02:44Z</time>
      </trkpt>
      <trkpt lat="59.9896708" lon="17.7269719">
        <ele>31.8607</ele>
        <time>2014-06-21T08:02:45Z</time>
      </trkpt>
      <trkpt lat="59.9896659" lon="17.727019">
        <ele>32.3416</ele>
        <time>2014-06-21T08:02:46Z</time>
      </trkpt>
      <trkpt lat="59.989663" lon="17.7270671">
        <ele>32.8223</ele>
        <time>2014-06-21T08:02:47Z</time>
      </trkpt>
      <trkpt lat="59.9896583" lon="17.7271081">
        <ele>32.8223</ele>
        <time>2014-06-21T08:02:48Z</time>
      </trkpt>
      <trkpt lat="59.9896522" lon="17.7271555">
        <ele>32.8223</ele>
        <time>2014-06-21T08:02:49Z</time>
      </trkpt>
      <trkpt lat="59.9896489" lon="17.7272058">
        <ele>33.7834</ele>
        <time>2014-06-21T08:02:50Z</time>
      </trkpt>
      <trkpt lat="59.9896457" lon="17.7272525">
        <ele>34.2642</ele>
        <time>2014-06-21T08:02:51Z</time>
      </trkpt>
      <trkpt lat="59.9896427" lon="17.7272986">
        <ele>34.7449</ele>
        <time>2014-06-21T08:02:52Z</time>
      </trkpt>
      <trkpt lat="59.9896397" lon="17.7273494">
        <ele>35.2255</ele>
        <time>2014-06-21T08:02:53Z</time>
      </trkpt>
      <trkpt lat="59.9896382" lon="17.7274052">
        <ele>35.2255</ele>
        <time>2014-06-21T08:02:54Z</time>
      </trkpt>
      <trkpt lat="59.9896346" lon="17.7274577">
        <ele>35.7061</ele>
        <time>2014-06-21T08:02:55Z</time>
      </trkpt>
      <trkpt lat="59.9896299" lon="17.7275059">
        <ele>36.1868</ele>
        <time>2014-06-21T08:02:56Z</time>
      </trkpt>
      <trkpt lat="59.9896269" lon="17.727558">
        <ele>36.6675</ele>
        <time>2014-06-21T08:02:57Z</time>
      </trkpt>
      <trkpt lat="59.9896271" lon="17.727612">
        <ele>36.6675</ele>
        <time>2014-06-21T08:02:58Z</time>
      </trkpt>
      <trkpt lat="59.9896282" lon="17.7276701">
        <ele>37.1481</ele>
        <time>2014-06-21T08:02:59Z</time>
      </trkpt>
      <trkpt lat="59.9896278" lon="17.7277258">
        <ele>37.1481</ele>
        <time>2014-06-21T08:03:00Z</time>
      </trkpt>
      <trkpt lat="59.9896255" lon="17.7277776">
        <ele>37.6287</ele>
        <time>2014-06-21T08:03:01Z</time>
      </trkpt>
      <trkpt lat="59.9896227" lon="17.7278237">
        <ele>37.6287</ele>
        <time>2014-06-21T08:03:02Z</time>
      </trkpt>
      <trkpt lat="59.9896204" lon="17.727867">
        <ele>37.6287</ele>
        <time>2014-06-21T08:03:03Z</time>
      </trkpt>
      <trkpt lat="59.9896186" lon="17.7279103">
        <ele>38.1094</ele>
        <time>2014-06-21T08:03:04Z</time>
      </trkpt>
      <trkpt lat="59.9896175" lon="17.7279544">
        <ele>38.1094</ele>
        <time>2014-06-21T08:03:05Z</time>
      </trkpt>
      <trkpt lat="59.9896169" lon="17.7279968">
        <ele>38.5901</ele>
        <time>2014-06-21T08:03:06Z</time>
      </trkpt>
      <trkpt lat="59.9896149" lon="17.7280379">
        <ele>38.5901</ele>
        <time>2014-06-21T08:03:07Z</time>
      </trkpt>
      <trkpt lat="59.9896126" lon="17.7280783">
        <ele>38.5901</ele>
        <time>2014-06-21T08:03:08Z</time>
      </trkpt>
      <trkpt lat="59.9896112" lon="17.7281252">
        <ele>38.5901</ele>
        <time>2014-06-21T08:03:09Z</time>
      </trkpt>
      <trkpt lat="59.9896087" lon="17.7281794">
        <ele>38.5901</ele>
        <time>2014-06-21T08:03:10Z</time>
      </trkpt>
      <trkpt lat="59.9896033" lon="17.7282337">
        <ele>38.5901</ele>
        <time>2014-06-21T08:03:11Z</time>
      </trkpt>
      <trkpt lat="59.9895975" lon="17.7282875">
        <ele>39.0707</ele>
        <time>2014-06-21T08:03:12Z</time>
      </trkpt>
      <trkpt lat="59.9895936" lon="17.7283459">
        <ele>39.5513</ele>
        <time>2014-06-21T08:03:13Z</time>
      </trkpt>
      <trkpt lat="59.9895908" lon="17.7284016">
        <ele>39.5513</ele>
        <time>2014-06-21T08:03:14Z</time>
      </trkpt>
      <trkpt lat="59.9895875" lon="17.7284574">
        <ele>40.0321</ele>
        <time>2014-06-21T08:03:15Z</time>
      </trkpt>
      <trkpt lat="59.9895852" lon="17.728522">
        <ele>40.0321</ele>
        <time>2014-06-21T08:03:16Z</time>
      </trkpt>
      <trkpt lat="59.9895842" lon="17.7285775">
        <ele>40.0321</ele>
        <time>2014-06-21T08:03:17Z</time>
      </trkpt>
      <trkpt lat="59.9895817" lon="17.7286314">
        <ele>40.0321</ele>
        <time>2014-06-21T08:03:18Z</time>
      </trkpt>
      <trkpt lat="59.989577" lon="17.728688">
        <ele>39.5513</ele>
        <time>2014-06-21T08:03:19Z</time>
      </trkpt>
      <trkpt lat="59.9895712" lon="17.7287334">
        <ele>39.0707</ele>
        <time>2014-06-21T08:03:20Z</time>
      </trkpt>
      <trkpt lat="59.9895632" lon="17.7287781">
        <ele>38.5901</ele>
        <time>2014-06-21T08:03:21Z</time>
      </trkpt>
      <trkpt lat="59.989553" lon="17.72881">
        <ele>38.5901</ele>
        <time>2014-06-21T08:03:22Z</time>
      </trkpt>
      <trkpt lat="59.9895449" lon="17.7288304">
        <ele>38.1094</ele>
        <time>2014-06-21T08:03:23Z</time>
      </trkpt>
      <trkpt lat="59.989538" lon="17.7288546">
        <ele>38.1094</ele>
        <time>2014-06-21T08:03:24Z</time>
      </trkpt>
      <trkpt lat="59.9895261" lon="17.7288802">
        <ele>38.5901</ele>
        <time>2014-06-21T08:03:25Z</time>
      </trkpt>
      <trkpt lat="59.9895124" lon="17.7289045">
        <ele>39.0707</ele>
        <time>2014-06-21T08:03:26Z</time>
      </trkpt>
      <trkpt lat="59.9894988" lon="17.7289257">
        <ele>39.0707</ele>
        <time>2014-06-21T08:03:27Z</time>
      </trkpt>
      <trkpt lat="59.9894851" lon="17.7289457">
        <ele>39.0707</ele>
        <time>2014-06-21T08:03:28Z</time>
      </trkpt>
      <trkpt lat="59.9894702" lon="17.7289739">
        <ele>39.0707</ele>
        <time>2014-06-21T08:03:29Z</time>
      </trkpt>
      <trkpt lat="59.9894496" lon="17.729009">
        <ele>39.0707</ele>
        <time>2014-06-21T08:03:30Z</time>
      </trkpt>
      <trkpt lat="59.9894232" lon="17.7290344">
        <ele>38.5901</ele>
        <time>2014-06-21T08:03:31Z</time>
      </trkpt>
      <trkpt lat="59.9893994" lon="17.7290564">
        <ele>38.5901</ele>
        <time>2014-06-21T08:03:32Z</time>
      </trkpt>
      <trkpt lat="59.9893758" lon="17.7290774">
        <ele>38.1094</ele>
        <time>2014-06-21T08:03:33Z</time>
      </trkpt>
      <trkpt lat="59.9893491" lon="17.7291082">
        <ele>37.6287</ele>
        <time>2014-06-21T08:03:34Z</time>
      </trkpt>
      <trkpt lat="59.9893274" lon="17.7291308">
        <ele>37.6287</ele>
        <time>2014-06-21T08:03:35Z</time>
      </trkpt>
      <trkpt lat="59.9893046" lon="17.7291595">
        <ele>37.6287</ele>
        <time>2014-06-21T08:03:36Z</time>
      </trkpt>
      <trkpt lat="59.9892805" lon="17.7291935">
        <ele>38.1094</ele>
        <time>2014-06-21T08:03:37Z</time>
      </trkpt>
      <trkpt lat="59.9892588" lon="17.729227">
        <ele>38.5901</ele>
        <time>2014-06-21T08:03:38Z</time>
      </trkpt>
      <trkpt lat="59.9892384" lon="17.7292485">
        <ele>38.5901</ele>
        <time>2014-06-21T08:03:39Z</time>
      </trkpt>
      <trkpt lat="59.9892184" lon="17.729263">
        <ele>38.5901</ele>
        <time>2014-06-21T08:03:40Z</time>
      </trkpt>
      <trkpt lat="59.9891941" lon="17.7292866">
        <ele>39.0707</ele>
        <time>2014-06-21T08:03:41Z</time>
      </trkpt>
      <trkpt lat="59.9891724" lon="17.7293091">
        <ele>39.0707</ele>
        <time>2014-06-21T08:03:42Z</time>
      </trkpt>
      <trkpt lat="59.9891531" lon="17.7293365">
        <ele>39.0707</ele>
        <time>2014-06-21T08:03:43Z</time>
      </trkpt>
      <trkpt lat="59.9891296" lon="17.7293653">
        <ele>39.5513</ele>
        <time>2014-06-21T08:03:44Z</time>
      </trkpt>
      <trkpt lat="59.9891066" lon="17.7293904">
        <ele>39.5513</ele>
        <time>2014-06-21T08:03:45Z</time>
      </trkpt>
      <trkpt lat="59.9890866" lon="17.7294184">
        <ele>39.5513</ele>
        <time>2014-06-21T08:03:46Z</time>
      </trkpt>
      <trkpt lat="59.9890735" lon="17.7294371">
        <ele>39.5513</ele>
        <time>2014-06-21T08:03:47Z</time>
      </trkpt>
      <trkpt lat="59.9890642" lon="17.7294482">
        <ele>39.5513</ele>
        <time>2014-06-21T08:03:48Z</time>
      </trkpt>
      <trkpt lat="59.989051" lon="17.7294629">
        <ele>40.0321</ele>
        <time>2014-06-21T08:03:49Z</time>
      </trkpt>
      <trkpt lat="59.9890305" lon="17.7294825">
        <ele>40.0321</ele>
        <time>2014-06-21T08:03:50Z</time>
      </trkpt>
      <trkpt lat="59.9890036" lon="17.7295158">
        <ele>40.5128</ele>
        <time>2014-06-21T08:03:51Z</time>
      </trkpt>
      <trkpt lat="59.988977" lon="17.7295546">
        <ele>40.9934</ele>
        <time>2014-06-21T08:03:52Z</time>
      </trkpt>
      <trkpt lat="59.9889443" lon="17.729573">
        <ele>40.9934</ele>
        <time>2014-06-21T08:03:53Z</time>
      </trkpt>
      <trkpt lat="59.988913" lon="17.7295929">
        <ele>41.474</ele>
        <time>2014-06-21T08:03:54Z</time>
      </trkpt>
      <trkpt lat="59.9888876" lon="17.7296183">
        <ele>40.9934</ele>
        <time>2014-06-21T08:03:55Z</time>
      </trkpt>
      <trkpt lat="59.9888602" lon="17.7296492">
        <ele>41.9547</ele>
        <time>2014-06-21T08:03:56Z</time>
      </trkpt>
      <trkpt lat="59.9888394" lon="17.7296783">
        <ele>41.9547</ele>
        <time>2014-06-21T08:03:57Z</time>
      </trkpt>
      <trkpt lat="59.9888169" lon="17.729711">
        <ele>41.474</ele>
        <time>2014-06-21T08:03:58Z</time>
      </trkpt>
      <trkpt lat="59.9887892" lon="17.7297499">
        <ele>41.9547</ele>
        <time>2014-06-21T08:03:59Z</time>
      </trkpt>
      <trkpt lat="59.9887599" lon="17.7297816">
        <ele>41.9547</ele>
        <time>2014-06-21T08:04:00Z</time>
      </trkpt>
      <trkpt lat="59.9887292" lon="17.7298199">
        <ele>42.916</ele>
        <time>2014-06-21T08:04:01Z</time>
      </trkpt>
      <trkpt lat="59.9887076" lon="17.72985">
        <ele>43.3966</ele>
        <time>2014-06-21T08:04:02Z</time>
      </trkpt>
      <trkpt lat="59.9886892" lon="17.729897">
        <ele>43.3966</ele>
        <time>2014-06-21T08:04:03Z</time>
      </trkpt>
      <trkpt lat="59.9886705" lon="17.7299186">
        <ele>42.916</ele>
        <time>2014-06-21T08:04:04Z</time>
      </trkpt>
      <trkpt lat="59.9886493" lon="17.7299316">
        <ele>41.9547</ele>
        <time>2014-06-21T08:04:05Z</time>
      </trkpt>
      <trkpt lat="59.9886306" lon="17.7299551">
        <ele>41.9547</ele>
        <time>2014-06-21T08:04:06Z</time>
      </trkpt>
      <trkpt lat="59.9886126" lon="17.7299844">
        <ele>40.9934</ele>
        <time>2014-06-21T08:04:07Z</time>
      </trkpt>
      <trkpt lat="59.9885949" lon="17.7300124">
        <ele>40.5128</ele>
        <time>2014-06-21T08:04:08Z</time>
      </trkpt>
      <trkpt lat="59.9885736" lon="17.73003">
        <ele>40.5128</ele>
        <time>2014-06-21T08:04:09Z</time>
      </trkpt>
      <trkpt lat="59.9885491" lon="17.7300467">
        <ele>40.0321</ele>
        <time>2014-06-21T08:04:10Z</time>
      </trkpt>
      <trkpt lat="59.988525" lon="17.7300748">
        <ele>40.0321</ele>
        <time>2014-06-21T08:04:11Z</time>
      </trkpt>
      <trkpt lat="59.9885078" lon="17.7300898">
        <ele>40.0321</ele>
        <time>2014-06-21T08:04:12Z</time>
      </trkpt>
      <trkpt lat="59.9884916" lon="17.7301032">
        <ele>39.0707</ele>
        <time>2014-06-21T08:04:13Z</time>
      </trkpt>
      <trkpt lat="59.9884733" lon="17.7301327">
        <ele>39.0707</ele>
        <time>2014-06-21T08:04:14Z</time>
      </trkpt>
      <trkpt lat="59.988455" lon="17.7301553">
        <ele>38.5901</ele>
        <time>2014-06-21T08:04:15Z</time>
      </trkpt>
      <trkpt lat="59.9884329" lon="17.730184">
        <ele>38.5901</ele>
        <time>2014-06-21T08:04:16Z</time>
      </trkpt>
      <trkpt lat="59.9884105" lon="17.7302214">
        <ele>38.5901</ele>
        <time>2014-06-21T08:04:17Z</time>
      </trkpt>
      <trkpt lat="59.9883906" lon="17.7302487">
        <ele>38.1094</ele>
        <time>2014-06-21T08:04:18Z</time>
      </trkpt>
      <trkpt lat="59.9883704" lon="17.7302786">
        <ele>37.6287</ele>
        <time>2014-06-21T08:04:19Z</time>
      </trkpt>
      <trkpt lat="59.9883493" lon="17.7303133">
        <ele>37.1481</ele>
        <time>2014-06-21T08:04:20Z</time>
      </trkpt>
      <trkpt lat="59.9883316" lon="17.7303412">
        <ele>37.1481</ele>
        <time>2014-06-21T08:04:21Z</time>
      </trkpt>
      <trkpt lat="59.9883165" lon="17.7303612">
        <ele>36.6675</ele>
        <time>2014-06-21T08:04:22Z</time>
      </trkpt>
      <trkpt lat="59.9882954" lon="17.7303876">
        <ele>36.6675</ele>
        <time>2014-06-21T08:04:23Z</time>
      </trkpt>
      <trkpt lat="59.9882727" lon="17.7304229">
        <ele>37.1481</ele>
        <time>2014-06-21T08:04:24Z</time>
      </trkpt>
      <trkpt lat="59.9882545" lon="17.730444">
        <ele>37.1481</ele>
        <time>2014-06-21T08:04:25Z</time>
      </trkpt>
      <trkpt lat="59.988238" lon="17.7304621">
        <ele>36.6675</ele>
        <time>2014-06-21T08:04:26Z</time>
      </trkpt>
      <trkpt lat="59.9882208" lon="17.7304874">
        <ele>36.6675</ele>
        <time>2014-06-21T08:04:27Z</time>
      </trkpt>
      <trkpt lat="59.9882065" lon="17.7305175">
        <ele>36.6675</ele>
        <time>2014-06-21T08:04:28Z</time>
      </trkpt>
      <trkpt lat="59.9881934" lon="17.7305533">
        <ele>36.6675</ele>
        <time>2014-06-21T08:04:29Z</time>
      </trkpt>
      <trkpt lat="59.9881794" lon="17.7305869">
        <ele>36.6675</ele>
        <time>2014-06-21T08:04:30Z</time>
      </trkpt>
      <trkpt lat="59.9881603" lon="17.7306311">
        <ele>37.1481</ele>
        <time>2014-06-21T08:04:31Z</time>
      </trkpt>
      <trkpt lat="59.9881411" lon="17.730672">
        <ele>37.1481</ele>
        <time>2014-06-21T08:04:32Z</time>
      </trkpt>
      <trkpt lat="59.9881235" lon="17.7307123">
        <ele>36.6675</ele>
        <time>2014-06-21T08:04:33Z</time>
      </trkpt>
      <trkpt lat="59.9881062" lon="17.7307501">
        <ele>36.6675</ele>
        <time>2014-06-21T08:04:34Z</time>
      </trkpt>
      <trkpt lat="59.9880914" lon="17.7307784">
        <ele>37.1481</ele>
        <time>2014-06-21T08:04:35Z</time>
      </trkpt>
      <trkpt lat="59.9880763" lon="17.7308104">
        <ele>37.1481</ele>
        <time>2014-06-21T08:04:36Z</time>
      </trkpt>
      <trkpt lat="59.9880622" lon="17.7308404">
        <ele>37.6287</ele>
        <time>2014-06-21T08:04:37Z</time>
      </trkpt>
      <trkpt lat="59.9880487" lon="17.7308729">
        <ele>37.6287</ele>
        <time>2014-06-21T08:04:38Z</time>
      </trkpt>
      <trkpt lat="59.9880311" lon="17.7309077">
        <ele>38.1094</ele>
        <time>2014-06-21T08:04:39Z</time>
      </trkpt>
      <trkpt lat="59.9880116" lon="17.7309496">
        <ele>38.5901</ele>
        <time>2014-06-21T08:04:40Z</time>
      </trkpt>
      <trkpt lat="59.9879931" lon="17.7309927">
        <ele>38.5901</ele>
        <time>2014-06-21T08:04:41Z</time>
      </trkpt>
      <trkpt lat="59.9879736" lon="17.7310345">
        <ele>39.0707</ele>
        <time>2014-06-21T08:04:42Z</time>
      </trkpt>
      <trkpt lat="59.9879576" lon="17.7310697">
        <ele>39.0707</ele>
        <time>2014-06-21T08:04:43Z</time>
      </trkpt>
      <trkpt lat="59.9879412" lon="17.731105">
        <ele>38.5901</ele>
        <time>2014-06-21T08:04:44Z</time>
      </trkpt>
      <trkpt lat="59.9879256" lon="17.7311283">
        <ele>38.1094</ele>
        <time>2014-06-21T08:04:45Z</time>
      </trkpt>
      <trkpt lat="59.9879101" lon="17.7311571">
        <ele>38.1094</ele>
        <time>2014-06-21T08:04:46Z</time>
      </trkpt>
      <trkpt lat="59.9878935" lon="17.7311905">
        <ele>37.6287</ele>
        <time>2014-06-21T08:04:47Z</time>
      </trkpt>
      <trkpt lat="59.9878783" lon="17.731219">
        <ele>37.1481</ele>
        <time>2014-06-21T08:04:48Z</time>
      </trkpt>
      <trkpt lat="59.9878623" lon="17.7312448">
        <ele>36.6675</ele>
        <time>2014-06-21T08:04:49Z</time>
      </trkpt>
      <trkpt lat="59.9878458" lon="17.7312816">
        <ele>37.1481</ele>
        <time>2014-06-21T08:04:50Z</time>
      </trkpt>
      <trkpt lat="59.9878251" lon="17.7313322">
        <ele>38.1094</ele>
        <time>2014-06-21T08:04:51Z</time>
      </trkpt>
      <trkpt lat="59.9878075" lon="17.7313667">
        <ele>38.1094</ele>
        <time>2014-06-21T08:04:52Z</time>
      </trkpt>
      <trkpt lat="59.9877898" lon="17.7313871">
        <ele>38.1094</ele>
        <time>2014-06-21T08:04:53Z</time>
      </trkpt>
      <trkpt lat="59.9877643" lon="17.7314142">
        <ele>39.0707</ele>
        <time>2014-06-21T08:04:54Z</time>
      </trkpt>
      <trkpt lat="59.9877438" lon="17.7314391">
        <ele>39.5513</ele>
        <time>2014-06-21T08:04:55Z</time>
      </trkpt>
      <trkpt lat="59.9877276" lon="17.7314872">
        <ele>40.0321</ele>
        <time>2014-06-21T08:04:56Z</time>
      </trkpt>
      <trkpt lat="59.98771" lon="17.7315313">
        <ele>40.5128</ele>
        <time>2014-06-21T08:04:57Z</time>
      </trkpt>
      <trkpt lat="59.9876993" lon="17.7315649">
        <ele>40.5128</ele>
        <time>2014-06-21T08:04:58Z</time>
      </trkpt>
      <trkpt lat="59.9876853" lon="17.7315977">
        <ele>40.9934</ele>
        <time>2014-06-21T08:04:59Z</time>
      </trkpt>
      <trkpt lat="59.9876775" lon="17.7316188">
        <ele>40.5128</ele>
        <time>2014-06-21T08:05:00Z</time>
      </trkpt>
      <trkpt lat="59.9876729" lon="17.7316463">
        <ele>40.5128</ele>
        <time>2014-06-21T08:05:01Z</time>
      </trkpt>
      <trkpt lat="59.987668" lon="17.731677">
        <ele>40.9934</ele>
        <time>2014-06-21T08:05:02Z</time>
      </trkpt>
      <trkpt lat="59.9876547" lon="17.7317109">
        <ele>40.9934</ele>
        <time>2014-06-21T08:05:03Z</time>
      </trkpt>
      <trkpt lat="59.9876465" lon="17.731741">
        <ele>40.5128</ele>
        <time>2014-06-21T08:05:04Z</time>
      </trkpt>
      <trkpt lat="59.9876291" lon="17.731767">
        <ele>40.0321</ele>
        <time>2014-06-21T08:05:05Z</time>
      </trkpt>
      <trkpt lat="59.9876059" lon="17.7317992">
        <ele>39.5513</ele>
        <time>2014-06-21T08:05:06Z</time>
      </trkpt>
      <trkpt lat="59.987588" lon="17.7318235">
        <ele>38.5901</ele>
        <time>2014-06-21T08:05:07Z</time>
      </trkpt>
      <trkpt lat="59.9875698" lon="17.7318406">
        <ele>37.1481</ele>
        <time>2014-06-21T08:05:08Z</time>
      </trkpt>
      <trkpt lat="59.9875512" lon="17.7318564">
        <ele>36.1868</ele>
        <time>2014-06-21T08:05:09Z</time>
      </trkpt>
      <trkpt lat="59.9875349" lon="17.7318694">
        <ele>35.2255</ele>
        <time>2014-06-21T08:05:10Z</time>
      </trkpt>
      <trkpt lat="59.9875231" lon="17.7318885">
        <ele>34.7449</ele>
        <time>2014-06-21T08:05:11Z</time>
      </trkpt>
      <trkpt lat="59.9875102" lon="17.7319193">
        <ele>33.7834</ele>
        <time>2014-06-21T08:05:12Z</time>
      </trkpt>
      <trkpt lat="59.9874939" lon="17.7319609">
        <ele>33.3029</ele>
        <time>2014-06-21T08:05:13Z</time>
      </trkpt>
      <trkpt lat="59.987477" lon="17.7320239">
        <ele>33.3029</ele>
        <time>2014-06-21T08:05:14Z</time>
      </trkpt>
      <trkpt lat="59.9874606" lon="17.7320992">
        <ele>32.8223</ele>
        <time>2014-06-21T08:05:15Z</time>
      </trkpt>
      <trkpt lat="59.9874489" lon="17.7321457">
        <ele>32.8223</ele>
        <time>2014-06-21T08:05:16Z</time>
      </trkpt>
      <trkpt lat="59.9874346" lon="17.7321745">
        <ele>32.8223</ele>
        <time>2014-06-21T08:05:17Z</time>
      </trkpt>
      <trkpt lat="59.9874252" lon="17.7321971">
        <ele>33.3029</ele>
        <time>2014-06-21T08:05:18Z</time>
      </trkpt>
      <trkpt lat="59.9874237" lon="17.7322186">
        <ele>33.3029</ele>
        <time>2014-06-21T08:05:19Z</time>
      </trkpt>
      <trkpt lat="59.9874206" lon="17.7322565">
        <ele>33.7834</ele>
        <time>2014-06-21T08:05:20Z</time>
      </trkpt>
      <trkpt lat="59.9874108" lon="17.7323057">
        <ele>34.2642</ele>
        <time>2014-06-21T08:05:21Z</time>
      </trkpt>
      <trkpt lat="59.9873931" lon="17.7323761">
        <ele>35.7061</ele>
        <time>2014-06-21T08:05:22Z</time>
      </trkpt>
      <trkpt lat="59.9873765" lon="17.7324451">
        <ele>36.6675</ele>
        <time>2014-06-21T08:05:23Z</time>
      </trkpt>
      <trkpt lat="59.9873641" lon="17.7324885">
        <ele>37.1481</ele>
        <time>2014-06-21T08:05:24Z</time>
      </trkpt>
      <trkpt lat="59.9873531" lon="17.732531">
        <ele>37.6287</ele>
        <time>2014-06-21T08:05:25Z</time>
      </trkpt>
      <trkpt lat="59.9873417" lon="17.7325713">
        <ele>37.1481</ele>
        <time>2014-06-21T08:05:26Z</time>
      </trkpt>
      <trkpt lat="59.9873304" lon="17.7326159">
        <ele>36.6675</ele>
        <time>2014-06-21T08:05:27Z</time>
      </trkpt>
      <trkpt lat="59.9873174" lon="17.7326628">
        <ele>36.1868</ele>
        <time>2014-06-21T08:05:28Z</time>
      </trkpt>
      <trkpt lat="59.9873045" lon="17.7327058">
        <ele>36.1868</ele>
        <time>2014-06-21T08:05:29Z</time>
      </trkpt>
      <trkpt lat="59.9872942" lon="17.7327547">
        <ele>35.7061</ele>
        <time>2014-06-21T08:05:30Z</time>
      </trkpt>
      <trkpt lat="59.9872836" lon="17.7328009">
        <ele>35.7061</ele>
        <time>2014-06-21T08:05:31Z</time>
      </trkpt>
      <trkpt lat="59.9872745" lon="17.7328311">
        <ele>35.7061</ele>
        <time>2014-06-21T08:05:32Z</time>
      </trkpt>
      <trkpt lat="59.9872646" lon="17.7328546">
        <ele>35.2255</ele>
        <time>2014-06-21T08:05:33Z</time>
      </trkpt>
      <trkpt lat="59.9872567" lon="17.7328793">
        <ele>35.2255</ele>
        <time>2014-06-21T08:05:34Z</time>
      </trkpt>
      <trkpt lat="59.987249" lon="17.7329135">
        <ele>34.7449</ele>
        <time>2014-06-21T08:05:35Z</time>
      </trkpt>
      <trkpt lat="59.9872412" lon="17.7329517">
        <ele>34.2642</ele>
        <time>2014-06-21T08:05:36Z</time>
      </trkpt>
      <trkpt lat="59.9872295" lon="17.7329989">
        <ele>34.2642</ele>
        <time>2014-06-21T08:05:37Z</time>
      </trkpt>
      <trkpt lat="59.9872175" lon="17.7330445">
        <ele>33.7834</ele>
        <time>2014-06-21T08:05:38Z</time>
      </trkpt>
      <trkpt lat="59.9872095" lon="17.7330855">
        <ele>33.7834</ele>
        <time>2014-06-21T08:05:39Z</time>
      </trkpt>
      <trkpt lat="59.9872025" lon="17.733122">
        <ele>33.3029</ele>
        <time>2014-06-21T08:05:40Z</time>
      </trkpt>
      <trkpt lat="59.9871948" lon="17.7331558">
        <ele>32.8223</ele>
        <time>2014-06-21T08:05:41Z</time>
      </trkpt>
      <trkpt lat="59.9871886" lon="17.7331898">
        <ele>32.3416</ele>
        <time>2014-06-21T08:05:42Z</time>
      </trkpt>
      <trkpt lat="59.9871788" lon="17.733238">
        <ele>32.3416</ele>
        <time>2014-06-21T08:05:43Z</time>
      </trkpt>
      <trkpt lat="59.9871704" lon="17.733292">
        <ele>32.8223</ele>
        <time>2014-06-21T08:05:44Z</time>
      </trkpt>
      <trkpt lat="59.9871553" lon="17.7333677">
        <ele>34.2642</ele>
        <time>2014-06-21T08:05:45Z</time>
      </trkpt>
      <trkpt lat="59.9871425" lon="17.7334355">
        <ele>35.7061</ele>
        <time>2014-06-21T08:05:46Z</time>
      </trkpt>
      <trkpt lat="59.9871241" lon="17.7334936">
        <ele>36.1868</ele>
        <time>2014-06-21T08:05:47Z</time>
      </trkpt>
      <trkpt lat="59.9871061" lon="17.7335427">
        <ele>36.6675</ele>
        <time>2014-06-21T08:05:48Z</time>
      </trkpt>
      <trkpt lat="59.9870952" lon="17.7335867">
        <ele>36.6675</ele>
        <time>2014-06-21T08:05:49Z</time>
      </trkpt>
      <trkpt lat="59.9870775" lon="17.7336358">
        <ele>36.6675</ele>
        <time>2014-06-21T08:05:50Z</time>
      </trkpt>
      <trkpt lat="59.9870647" lon="17.7336619">
        <ele>36.1868</ele>
        <time>2014-06-21T08:05:51Z</time>
      </trkpt>
      <trkpt lat="59.9870517" lon="17.7336887">
        <ele>35.2255</ele>
        <time>2014-06-21T08:05:52Z</time>
      </trkpt>
      <trkpt lat="59.9870391" lon="17.7337251">
        <ele>35.2255</ele>
        <time>2014-06-21T08:05:53Z</time>
      </trkpt>
      <trkpt lat="59.9870348" lon="17.7337668">
        <ele>34.2642</ele>
        <time>2014-06-21T08:05:54Z</time>
      </trkpt>
      <trkpt lat="59.9870289" lon="17.7338166">
        <ele>33.7834</ele>
        <time>2014-06-21T08:05:55Z</time>
      </trkpt>
      <trkpt lat="59.9870228" lon="17.7338677">
        <ele>33.7834</ele>
        <time>2014-06-21T08:05:56Z</time>
      </trkpt>
      <trkpt lat="59.9870196" lon="17.7339028">
        <ele>33.3029</ele>
        <time>2014-06-21T08:05:57Z</time>
      </trkpt>
      <trkpt lat="59.9870113" lon="17.7339446">
        <ele>33.3029</ele>
        <time>2014-06-21T08:05:58Z</time>
      </trkpt>
      <trkpt lat="59.9870015" lon="17.7339855">
        <ele>32.8223</ele>
        <time>2014-06-21T08:05:59Z</time>
      </trkpt>
      <trkpt lat="59.9869859" lon="17.7340472">
        <ele>32.8223</ele>
        <time>2014-06-21T08:06:00Z</time>
      </trkpt>
      <trkpt lat="59.9869689" lon="17.7341172">
        <ele>32.8223</ele>
        <time>2014-06-21T08:06:01Z</time>
      </trkpt>
      <trkpt lat="59.9869493" lon="17.7341836">
        <ele>33.3029</ele>
        <time>2014-06-21T08:06:02Z</time>
      </trkpt>
      <trkpt lat="59.9869366" lon="17.7342296">
        <ele>33.3029</ele>
        <time>2014-06-21T08:06:03Z</time>
      </trkpt>
      <trkpt lat="59.9869236" lon="17.7342898">
        <ele>33.7834</ele>
        <time>2014-06-21T08:06:04Z</time>
      </trkpt>
      <trkpt lat="59.986913" lon="17.7343536">
        <ele>33.7834</ele>
        <time>2014-06-21T08:06:05Z</time>
      </trkpt>
      <trkpt lat="59.9869045" lon="17.7344165">
        <ele>33.7834</ele>
        <time>2014-06-21T08:06:06Z</time>
      </trkpt>
      <trkpt lat="59.9868953" lon="17.7344648">
        <ele>33.7834</ele>
        <time>2014-06-21T08:06:07Z</time>
      </trkpt>
      <trkpt lat="59.9868856" lon="17.7345007">
        <ele>33.3029</ele>
        <time>2014-06-21T08:06:08Z</time>
      </trkpt>
      <trkpt lat="59.9868786" lon="17.7345383">
        <ele>33.3029</ele>
        <time>2014-06-21T08:06:09Z</time>
      </trkpt>
      <trkpt lat="59.9868707" lon="17.7345808">
        <ele>33.3029</ele>
        <time>2014-06-21T08:06:10Z</time>
      </trkpt>
      <trkpt lat="59.9868616" lon="17.7346192">
        <ele>33.3029</ele>
        <time>2014-06-21T08:06:11Z</time>
      </trkpt>
      <trkpt lat="59.9868492" lon="17.7346611">
        <ele>34.2642</ele>
        <time>2014-06-21T08:06:12Z</time>
      </trkpt>
      <trkpt lat="59.9868346" lon="17.7347067">
        <ele>34.7449</ele>
        <time>2014-06-21T08:06:13Z</time>
      </trkpt>
      <trkpt lat="59.9868239" lon="17.734742">
        <ele>35.2255</ele>
        <time>2014-06-21T08:06:14Z</time>
      </trkpt>
      <trkpt lat="59.9868128" lon="17.7347798">
        <ele>35.7061</ele>
        <time>2014-06-21T08:06:15Z</time>
      </trkpt>
      <trkpt lat="59.9868027" lon="17.7348123">
        <ele>36.1868</ele>
        <time>2014-06-21T08:06:16Z</time>
      </trkpt>
      <trkpt lat="59.9867829" lon="17.7348834">
        <ele>38.1094</ele>
        <time>2014-06-21T08:06:17Z</time>
      </trkpt>
      <trkpt lat="59.9867698" lon="17.7349233">
        <ele>39.0707</ele>
        <time>2014-06-21T08:06:18Z</time>
      </trkpt>
      <trkpt lat="59.9867597" lon="17.7349661">
        <ele>39.5513</ele>
        <time>2014-06-21T08:06:19Z</time>
      </trkpt>
      <trkpt lat="59.9867508" lon="17.7350112">
        <ele>40.0321</ele>
        <time>2014-06-21T08:06:20Z</time>
      </trkpt>
      <trkpt lat="59.9867425" lon="17.7350543">
        <ele>40.0321</ele>
        <time>2014-06-21T08:06:21Z</time>
      </trkpt>
      <trkpt lat="59.9867347" lon="17.7351018">
        <ele>40.0321</ele>
        <time>2014-06-21T08:06:22Z</time>
      </trkpt>
      <trkpt lat="59.986725" lon="17.735146">
        <ele>40.0321</ele>
        <time>2014-06-21T08:06:23Z</time>
      </trkpt>
      <trkpt lat="59.9867139" lon="17.7351878">
        <ele>39.5513</ele>
        <time>2014-06-21T08:06:24Z</time>
      </trkpt>
      <trkpt lat="59.9867014" lon="17.7352526">
        <ele>40.5128</ele>
        <time>2014-06-21T08:06:25Z</time>
      </trkpt>
      <trkpt lat="59.9866886" lon="17.7353085">
        <ele>40.9934</ele>
        <time>2014-06-21T08:06:26Z</time>
      </trkpt>
      <trkpt lat="59.9866726" lon="17.7353663">
        <ele>41.474</ele>
        <time>2014-06-21T08:06:27Z</time>
      </trkpt>
      <trkpt lat="59.9866602" lon="17.735421">
        <ele>41.9547</ele>
        <time>2014-06-21T08:06:28Z</time>
      </trkpt>
      <trkpt lat="59.9866533" lon="17.7354692">
        <ele>41.9547</ele>
        <time>2014-06-21T08:06:29Z</time>
      </trkpt>
      <trkpt lat="59.9866456" lon="17.7355229">
        <ele>41.9547</ele>
        <time>2014-06-21T08:06:30Z</time>
      </trkpt>
      <trkpt lat="59.9866358" lon="17.7355727">
        <ele>42.4354</ele>
        <time>2014-06-21T08:06:31Z</time>
      </trkpt>
      <trkpt lat="59.9866252" lon="17.7356236">
        <ele>42.4354</ele>
        <time>2014-06-21T08:06:32Z</time>
      </trkpt>
      <trkpt lat="59.9866125" lon="17.7356736">
        <ele>42.916</ele>
        <time>2014-06-21T08:06:33Z</time>
      </trkpt>
      <trkpt lat="59.9866019" lon="17.7357236">
        <ele>42.4354</ele>
        <time>2014-06-21T08:06:34Z</time>
      </trkpt>
      <trkpt lat="59.9865919" lon="17.73579">
        <ele>42.4354</ele>
        <time>2014-06-21T08:06:35Z</time>
      </trkpt>
      <trkpt lat="59.9865845" lon="17.7358451">
        <ele>41.9547</ele>
        <time>2014-06-21T08:06:36Z</time>
      </trkpt>
      <trkpt lat="59.9865752" lon="17.7358845">
        <ele>41.9547</ele>
        <time>2014-06-21T08:06:37Z</time>
      </trkpt>
      <trkpt lat="59.9865638" lon="17.7359238">
        <ele>41.474</ele>
        <time>2014-06-21T08:06:38Z</time>
      </trkpt>
      <trkpt lat="59.9865524" lon="17.7359632">
        <ele>40.9934</ele>
        <time>2014-06-21T08:06:39Z</time>
      </trkpt>
      <trkpt lat="59.9865408" lon="17.7359928">
        <ele>40.9934</ele>
        <time>2014-06-21T08:06:40Z</time>
      </trkpt>
      <trkpt lat="59.9865286" lon="17.7360309">
        <ele>40.9934</ele>
        <time>2014-06-21T08:06:41Z</time>
      </trkpt>
      <trkpt lat="59.9865112" lon="17.7360749">
        <ele>40.5128</ele>
        <time>2014-06-21T08:06:42Z</time>
      </trkpt>
      <trkpt lat="59.9864944" lon="17.7361147">
        <ele>40.0321</ele>
        <time>2014-06-21T08:06:43Z</time>
      </trkpt>
      <trkpt lat="59.9864762" lon="17.7361525">
        <ele>39.5513</ele>
        <time>2014-06-21T08:06:44Z</time>
      </trkpt>
      <trkpt lat="59.9864584" lon="17.7362">
        <ele>39.5513</ele>
        <time>2014-06-21T08:06:45Z</time>
      </trkpt>
      <trkpt lat="59.9864415" lon="17.736239">
        <ele>39.0707</ele>
        <time>2014-06-21T08:06:46Z</time>
      </trkpt>
      <trkpt lat="59.9864247" lon="17.7362699">
        <ele>38.5901</ele>
        <time>2014-06-21T08:06:47Z</time>
      </trkpt>
      <trkpt lat="59.9864082" lon="17.7363057">
        <ele>38.1094</ele>
        <time>2014-06-21T08:06:48Z</time>
      </trkpt>
      <trkpt lat="59.9863917" lon="17.7363399">
        <ele>36.6675</ele>
        <time>2014-06-21T08:06:49Z</time>
      </trkpt>
      <trkpt lat="59.9863721" lon="17.7363748">
        <ele>36.1868</ele>
        <time>2014-06-21T08:06:50Z</time>
      </trkpt>
      <trkpt lat="59.9863512" lon="17.7364087">
        <ele>35.7061</ele>
        <time>2014-06-21T08:06:51Z</time>
      </trkpt>
      <trkpt lat="59.9863194" lon="17.7364515">
        <ele>36.6675</ele>
        <time>2014-06-21T08:06:52Z</time>
      </trkpt>
      <trkpt lat="59.986296" lon="17.7364777">
        <ele>36.6675</ele>
        <time>2014-06-21T08:06:53Z</time>
      </trkpt>
      <trkpt lat="59.986271" lon="17.7365077">
        <ele>37.6287</ele>
        <time>2014-06-21T08:06:54Z</time>
      </trkpt>
      <trkpt lat="59.9862494" lon="17.7365488">
        <ele>37.6287</ele>
        <time>2014-06-21T08:06:55Z</time>
      </trkpt>
      <trkpt lat="59.9862286" lon="17.7365755">
        <ele>38.1094</ele>
        <time>2014-06-21T08:06:56Z</time>
      </trkpt>
      <trkpt lat="59.9861999" lon="17.7366208">
        <ele>39.0707</ele>
        <time>2014-06-21T08:06:57Z</time>
      </trkpt>
      <trkpt lat="59.9861689" lon="17.7366636">
        <ele>40.5128</ele>
        <time>2014-06-21T08:06:58Z</time>
      </trkpt>
      <trkpt lat="59.9861403" lon="17.7366943">
        <ele>41.474</ele>
        <time>2014-06-21T08:06:59Z</time>
      </trkpt>
      <trkpt lat="59.9861161" lon="17.7367197">
        <ele>41.474</ele>
        <time>2014-06-21T08:07:00Z</time>
      </trkpt>
      <trkpt lat="59.9860939" lon="17.736744">
        <ele>41.474</ele>
        <time>2014-06-21T08:07:01Z</time>
      </trkpt>
      <trkpt lat="59.9860711" lon="17.7367601">
        <ele>41.9547</ele>
        <time>2014-06-21T08:07:02Z</time>
      </trkpt>
      <trkpt lat="59.986042" lon="17.7367993">
        <ele>43.3966</ele>
        <time>2014-06-21T08:07:03Z</time>
      </trkpt>
      <trkpt lat="59.9860156" lon="17.7368404">
        <ele>44.358</ele>
        <time>2014-06-21T08:07:04Z</time>
      </trkpt>
      <trkpt lat="59.9859858" lon="17.7368922">
        <ele>45.3192</ele>
        <time>2014-06-21T08:07:05Z</time>
      </trkpt>
      <trkpt lat="59.9859571" lon="17.7369428">
        <ele>45.7999</ele>
        <time>2014-06-21T08:07:06Z</time>
      </trkpt>
      <trkpt lat="59.9859331" lon="17.7369734">
        <ele>46.2806</ele>
        <time>2014-06-21T08:07:07Z</time>
      </trkpt>
      <trkpt lat="59.9859049" lon="17.737033">
        <ele>47.7225</ele>
        <time>2014-06-21T08:07:08Z</time>
      </trkpt>
      <trkpt lat="59.9858827" lon="17.7370771">
        <ele>47.7225</ele>
        <time>2014-06-21T08:07:09Z</time>
      </trkpt>
      <trkpt lat="59.9858596" lon="17.7371296">
        <ele>48.2034</ele>
        <time>2014-06-21T08:07:10Z</time>
      </trkpt>
      <trkpt lat="59.9858384" lon="17.737174">
        <ele>48.684</ele>
        <time>2014-06-21T08:07:11Z</time>
      </trkpt>
      <trkpt lat="59.9858153" lon="17.7372092">
        <ele>49.1646</ele>
        <time>2014-06-21T08:07:12Z</time>
      </trkpt>
      <trkpt lat="59.9857925" lon="17.7372382">
        <ele>50.126</ele>
        <time>2014-06-21T08:07:13Z</time>
      </trkpt>
      <trkpt lat="59.9857686" lon="17.7372708">
        <ele>51.0872</ele>
        <time>2014-06-21T08:07:14Z</time>
      </trkpt>
      <trkpt lat="59.9857417" lon="17.7373184">
        <ele>51.5679</ele>
        <time>2014-06-21T08:07:15Z</time>
      </trkpt>
      <trkpt lat="59.9857112" lon="17.7373698">
        <ele>53.0098</ele>
        <time>2014-06-21T08:07:16Z</time>
      </trkpt>
      <trkpt lat="59.9856858" lon="17.7374137">
        <ele>53.4905</ele>
        <time>2014-06-21T08:07:17Z</time>
      </trkpt>
      <trkpt lat="59.9856633" lon="17.7374564">
        <ele>53.9712</ele>
        <time>2014-06-21T08:07:18Z</time>
      </trkpt>
      <trkpt lat="59.9856413" lon="17.7375142">
        <ele>54.9324</ele>
        <time>2014-06-21T08:07:19Z</time>
      </trkpt>
      <trkpt lat="59.985617" lon="17.7375729">
        <ele>54.9324</ele>
        <time>2014-06-21T08:07:20Z</time>
      </trkpt>
      <trkpt lat="59.9855951" lon="17.737621">
        <ele>55.4131</ele>
        <time>2014-06-21T08:07:21Z</time>
      </trkpt>
      <trkpt lat="59.9855755" lon="17.7376645">
        <ele>55.4131</ele>
        <time>2014-06-21T08:07:22Z</time>
      </trkpt>
      <trkpt lat="59.9855578" lon="17.7377101">
        <ele>55.4131</ele>
        <time>2014-06-21T08:07:23Z</time>
      </trkpt>
      <trkpt lat="59.9855443" lon="17.7377698">
        <ele>55.8938</ele>
        <time>2014-06-21T08:07:24Z</time>
      </trkpt>
      <trkpt lat="59.9855338" lon="17.7378247">
        <ele>55.8938</ele>
        <time>2014-06-21T08:07:25Z</time>
      </trkpt>
      <trkpt lat="59.9855236" lon="17.7378796">
        <ele>56.3745</ele>
        <time>2014-06-21T08:07:26Z</time>
      </trkpt>
      <trkpt lat="59.9855148" lon="17.7379375">
        <ele>56.3745</ele>
        <time>2014-06-21T08:07:27Z</time>
      </trkpt>
      <trkpt lat="59.9855074" lon="17.7379855">
        <ele>56.3745</ele>
        <time>2014-06-21T08:07:28Z</time>
      </trkpt>
      <trkpt lat="59.9855025" lon="17.7380184">
        <ele>56.8551</ele>
        <time>2014-06-21T08:07:29Z</time>
      </trkpt>
      <trkpt lat="59.9854997" lon="17.7380469">
        <ele>56.3745</ele>
        <time>2014-06-21T08:07:30Z</time>
      </trkpt>
      <trkpt lat="59.9854996" lon="17.7380759">
        <ele>56.3745</ele>
        <time>2014-06-21T08:07:31Z</time>
      </trkpt>
      <trkpt lat="59.9855001" lon="17.738098">
        <ele>56.8551</ele>
        <time>2014-06-21T08:07:32Z</time>
      </trkpt>
      <trkpt lat="59.9855019" lon="17.7381218">
        <ele>56.8551</ele>
        <time>2014-06-21T08:07:33Z</time>
      </trkpt>
      <trkpt lat="59.9855033" lon="17.738144">
        <ele>56.8551</ele>
        <time>2014-06-21T08:07:34Z</time>
      </trkpt>
      <trkpt lat="59.985504" lon="17.7381644">
        <ele>56.8551</ele>
        <time>2014-06-21T08:07:35Z</time>
      </trkpt>
      <trkpt lat="59.9855084" lon="17.7381928">
        <ele>57.3358</ele>
        <time>2014-06-21T08:07:36Z</time>
      </trkpt>
      <trkpt lat="59.9855132" lon="17.7382226">
        <ele>56.8551</ele>
        <time>2014-06-21T08:07:37Z</time>
      </trkpt>
      <trkpt lat="59.9855048" lon="17.7382515">
        <ele>56.8551</ele>
        <time>2014-06-21T08:07:38Z</time>
      </trkpt>
      <trkpt lat="59.9854867" lon="17.7382761">
        <ele>56.3745</ele>
        <time>2014-06-21T08:07:39Z</time>
      </trkpt>
      <trkpt lat="59.9854738" lon="17.7382928">
        <ele>55.8938</ele>
        <time>2014-06-21T08:07:40Z</time>
      </trkpt>
      <trkpt lat="59.9854517" lon="17.7382953">
        <ele>54.9324</ele>
        <time>2014-06-21T08:07:41Z</time>
      </trkpt>
      <trkpt lat="59.9854205" lon="17.73828">
        <ele>54.4518</ele>
        <time>2014-06-21T08:07:42Z</time>
      </trkpt>
      <trkpt lat="59.9853935" lon="17.7382648">
        <ele>53.9712</ele>
        <time>2014-06-21T08:07:43Z</time>
      </trkpt>
      <trkpt lat="59.9853687" lon="17.7382343">
        <ele>53.4905</ele>
        <time>2014-06-21T08:07:44Z</time>
      </trkpt>
      <trkpt lat="59.9853433" lon="17.7381996">
        <ele>53.4905</ele>
        <time>2014-06-21T08:07:45Z</time>
      </trkpt>
      <trkpt lat="59.9853185" lon="17.7381592">
        <ele>53.0098</ele>
        <time>2014-06-21T08:07:46Z</time>
      </trkpt>
      <trkpt lat="59.985288" lon="17.7381571">
        <ele>53.0098</ele>
        <time>2014-06-21T08:07:47Z</time>
      </trkpt>
      <trkpt lat="59.9852584" lon="17.7381546">
        <ele>53.0098</ele>
        <time>2014-06-21T08:07:48Z</time>
      </trkpt>
      <trkpt lat="59.9852336" lon="17.7381541">
        <ele>52.0486</ele>
        <time>2014-06-21T08:07:49Z</time>
      </trkpt>
      <trkpt lat="59.985207" lon="17.7381463">
        <ele>51.5679</ele>
        <time>2014-06-21T08:07:50Z</time>
      </trkpt>
      <trkpt lat="59.9851803" lon="17.7381433">
        <ele>51.5679</ele>
        <time>2014-06-21T08:07:51Z</time>
      </trkpt>
      <trkpt lat="59.9851569" lon="17.7381365">
        <ele>51.0872</ele>
        <time>2014-06-21T08:07:52Z</time>
      </trkpt>
      <trkpt lat="59.9851285" lon="17.7381318">
        <ele>50.6066</ele>
        <time>2014-06-21T08:07:53Z</time>
      </trkpt>
      <trkpt lat="59.9850995" lon="17.738136">
        <ele>50.6066</ele>
        <time>2014-06-21T08:07:54Z</time>
      </trkpt>
      <trkpt lat="59.9850704" lon="17.7381317">
        <ele>50.6066</ele>
        <time>2014-06-21T08:07:55Z</time>
      </trkpt>
      <trkpt lat="59.9850435" lon="17.73813">
        <ele>50.6066</ele>
        <time>2014-06-21T08:07:56Z</time>
      </trkpt>
      <trkpt lat="59.9850152" lon="17.7381223">
        <ele>50.126</ele>
        <time>2014-06-21T08:07:57Z</time>
      </trkpt>
      <trkpt lat="59.9849854" lon="17.738108">
        <ele>50.126</ele>
        <time>2014-06-21T08:07:58Z</time>
      </trkpt>
      <trkpt lat="59.9849621" lon="17.7381078">
        <ele>49.6453</ele>
        <time>2014-06-21T08:07:59Z</time>
      </trkpt>
      <trkpt lat="59.9849417" lon="17.7381101">
        <ele>49.6453</ele>
        <time>2014-06-21T08:08:00Z</time>
      </trkpt>
      <trkpt lat="59.9849191" lon="17.738106">
        <ele>49.1646</ele>
        <time>2014-06-21T08:08:01Z</time>
      </trkpt>
      <trkpt lat="59.9848964" lon="17.7381034">
        <ele>48.684</ele>
        <time>2014-06-21T08:08:02Z</time>
      </trkpt>
      <trkpt lat="59.9848802" lon="17.7381107">
        <ele>47.7225</ele>
        <time>2014-06-21T08:08:03Z</time>
      </trkpt>
      <trkpt lat="59.984861" lon="17.7381075">
        <ele>46.7612</ele>
        <time>2014-06-21T08:08:04Z</time>
      </trkpt>
      <trkpt lat="59.9848334" lon="17.7380899">
        <ele>46.7612</ele>
        <time>2014-06-21T08:08:05Z</time>
      </trkpt>
      <trkpt lat="59.984808" lon="17.7380759">
        <ele>45.7999</ele>
        <time>2014-06-21T08:08:06Z</time>
      </trkpt>
      <trkpt lat="59.9847865" lon="17.7380551">
        <ele>44.8386</ele>
        <time>2014-06-21T08:08:07Z</time>
      </trkpt>
      <trkpt lat="59.9847646" lon="17.7380406">
        <ele>44.358</ele>
        <time>2014-06-21T08:08:08Z</time>
      </trkpt>
      <trkpt lat="59.9847431" lon="17.7380319">
        <ele>43.8773</ele>
        <time>2014-06-21T08:08:09Z</time>
      </trkpt>
      <trkpt lat="59.98472" lon="17.7380216">
        <ele>42.916</ele>
        <time>2014-06-21T08:08:10Z</time>
      </trkpt>
      <trkpt lat="59.9846992" lon="17.7380187">
        <ele>41.9547</ele>
        <time>2014-06-21T08:08:11Z</time>
      </trkpt>
      <trkpt lat="59.9846759" lon="17.738014">
        <ele>40.9934</ele>
        <time>2014-06-21T08:08:12Z</time>
      </trkpt>
      <trkpt lat="59.9846351" lon="17.7380226">
        <ele>42.916</ele>
        <time>2014-06-21T08:08:13Z</time>
      </trkpt>
      <trkpt lat="59.9846098" lon="17.7380194">
        <ele>42.916</ele>
        <time>2014-06-21T08:08:14Z</time>
      </trkpt>
      <trkpt lat="59.9845725" lon="17.7380251">
        <ele>44.8386</ele>
        <time>2014-06-21T08:08:15Z</time>
      </trkpt>
      <trkpt lat="59.9845446" lon="17.7380182">
        <ele>44.8386</ele>
        <time>2014-06-21T08:08:16Z</time>
      </trkpt>
      <trkpt lat="59.984524" lon="17.7380132">
        <ele>44.358</ele>
        <time>2014-06-21T08:08:17Z</time>
      </trkpt>
      <trkpt lat="59.9845017" lon="17.7380197">
        <ele>44.358</ele>
        <time>2014-06-21T08:08:18Z</time>
      </trkpt>
      <trkpt lat="59.9844756" lon="17.7380223">
        <ele>43.8773</ele>
        <time>2014-06-21T08:08:19Z</time>
      </trkpt>
      <trkpt lat="59.9844516" lon="17.7380053">
        <ele>43.3966</ele>
        <time>2014-06-21T08:08:20Z</time>
      </trkpt>
      <trkpt lat="59.98443" lon="17.7379949">
        <ele>42.4354</ele>
        <time>2014-06-21T08:08:21Z</time>
      </trkpt>
      <trkpt lat="59.9844021" lon="17.7379847">
        <ele>41.9547</ele>
        <time>2014-06-21T08:08:22Z</time>
      </trkpt>
      <trkpt lat="59.9843777" lon="17.7379692">
        <ele>41.9547</ele>
        <time>2014-06-21T08:08:23Z</time>
      </trkpt>
      <trkpt lat="59.9843566" lon="17.7379589">
        <ele>40.9934</ele>
        <time>2014-06-21T08:08:24Z</time>
      </trkpt>
      <trkpt lat="59.9843348" lon="17.7379551">
        <ele>40.5128</ele>
        <time>2014-06-21T08:08:25Z</time>
      </trkpt>
      <trkpt lat="59.9843142" lon="17.7379499">
        <ele>39.5513</ele>
        <time>2014-06-21T08:08:26Z</time>
      </trkpt>
      <trkpt lat="59.9842903" lon="17.7379482">
        <ele>38.5901</ele>
        <time>2014-06-21T08:08:27Z</time>
      </trkpt>
      <trkpt lat="59.9842653" lon="17.7379453">
        <ele>38.5901</ele>
        <time>2014-06-21T08:08:28Z</time>
      </trkpt>
      <trkpt lat="59.9842425" lon="17.7379354">
        <ele>38.1094</ele>
        <time>2014-06-21T08:08:29Z</time>
      </trkpt>
      <trkpt lat="59.9842213" lon="17.7379228">
        <ele>37.6287</ele>
        <time>2014-06-21T08:08:30Z</time>
      </trkpt>
      <trkpt lat="59.9842001" lon="17.7379109">
        <ele>37.1481</ele>
        <time>2014-06-21T08:08:31Z</time>
      </trkpt>
      <trkpt lat="59.9841793" lon="17.7379009">
        <ele>36.6675</ele>
        <time>2014-06-21T08:08:32Z</time>
      </trkpt>
      <trkpt lat="59.9841549" lon="17.7378959">
        <ele>36.6675</ele>
        <time>2014-06-21T08:08:33Z</time>
      </trkpt>
      <trkpt lat="59.9841344" lon="17.7378845">
        <ele>36.1868</ele>
        <time>2014-06-21T08:08:34Z</time>
      </trkpt>
      <trkpt lat="59.9841088" lon="17.7378852">
        <ele>36.1868</ele>
        <time>2014-06-21T08:08:35Z</time>
      </trkpt>
      <trkpt lat="59.9840799" lon="17.7378893">
        <ele>36.6675</ele>
        <time>2014-06-21T08:08:36Z</time>
      </trkpt>
      <trkpt lat="59.9840618" lon="17.7378799">
        <ele>36.1868</ele>
        <time>2014-06-21T08:08:37Z</time>
      </trkpt>
      <trkpt lat="59.9840385" lon="17.7378843">
        <ele>36.1868</ele>
        <time>2014-06-21T08:08:38Z</time>
      </trkpt>
      <trkpt lat="59.9840121" lon="17.7378858">
        <ele>36.1868</ele>
        <time>2014-06-21T08:08:39Z</time>
      </trkpt>
      <trkpt lat="59.9839859" lon="17.7378997">
        <ele>35.7061</ele>
        <time>2014-06-21T08:08:40Z</time>
      </trkpt>
      <trkpt lat="59.9839592" lon="17.737918">
        <ele>35.7061</ele>
        <time>2014-06-21T08:08:41Z</time>
      </trkpt>
      <trkpt lat="59.9839327" lon="17.7379184">
        <ele>35.7061</ele>
        <time>2014-06-21T08:08:42Z</time>
      </trkpt>
      <trkpt lat="59.9839131" lon="17.7379168">
        <ele>35.7061</ele>
        <time>2014-06-21T08:08:43Z</time>
      </trkpt>
      <trkpt lat="59.9838929" lon="17.7379166">
        <ele>35.2255</ele>
        <time>2014-06-21T08:08:44Z</time>
      </trkpt>
      <trkpt lat="59.9838686" lon="17.7379158">
        <ele>34.7449</ele>
        <time>2014-06-21T08:08:45Z</time>
      </trkpt>
      <trkpt lat="59.9838484" lon="17.7379144">
        <ele>34.2642</ele>
        <time>2014-06-21T08:08:46Z</time>
      </trkpt>
      <trkpt lat="59.9838255" lon="17.7379144">
        <ele>34.2642</ele>
        <time>2014-06-21T08:08:47Z</time>
      </trkpt>
      <trkpt lat="59.9838019" lon="17.7379166">
        <ele>34.2642</ele>
        <time>2014-06-21T08:08:48Z</time>
      </trkpt>
      <trkpt lat="59.9837778" lon="17.7379255">
        <ele>34.2642</ele>
        <time>2014-06-21T08:08:49Z</time>
      </trkpt>
      <trkpt lat="59.9837529" lon="17.7379333">
        <ele>33.7834</ele>
        <time>2014-06-21T08:08:50Z</time>
      </trkpt>
      <trkpt lat="59.9837297" lon="17.7379454">
        <ele>33.3029</ele>
        <time>2014-06-21T08:08:51Z</time>
      </trkpt>
      <trkpt lat="59.9837069" lon="17.7379484">
        <ele>32.8223</ele>
        <time>2014-06-21T08:08:52Z</time>
      </trkpt>
      <trkpt lat="59.9836883" lon="17.737939">
        <ele>32.3416</ele>
        <time>2014-06-21T08:08:53Z</time>
      </trkpt>
      <trkpt lat="59.9836702" lon="17.737934">
        <ele>31.8607</ele>
        <time>2014-06-21T08:08:54Z</time>
      </trkpt>
      <trkpt lat="59.9836488" lon="17.7379355">
        <ele>31.8607</ele>
        <time>2014-06-21T08:08:55Z</time>
      </trkpt>
      <trkpt lat="59.9836298" lon="17.7379401">
        <ele>30.8995</ele>
        <time>2014-06-21T08:08:56Z</time>
      </trkpt>
      <trkpt lat="59.9836073" lon="17.7379451">
        <ele>30.4188</ele>
        <time>2014-06-21T08:08:57Z</time>
      </trkpt>
      <trkpt lat="59.983584" lon="17.7379493">
        <ele>29.9381</ele>
        <time>2014-06-21T08:08:58Z</time>
      </trkpt>
      <trkpt lat="59.9835648" lon="17.7379484">
        <ele>28.9769</ele>
        <time>2014-06-21T08:08:59Z</time>
      </trkpt>
      <trkpt lat="59.9835422" lon="17.7379494">
        <ele>28.4962</ele>
        <time>2014-06-21T08:09:00Z</time>
      </trkpt>
      <trkpt lat="59.9835184" lon="17.7379522">
        <ele>28.0155</ele>
        <time>2014-06-21T08:09:01Z</time>
      </trkpt>
      <trkpt lat="59.9834987" lon="17.737943">
        <ele>27.5349</ele>
        <time>2014-06-21T08:09:02Z</time>
      </trkpt>
      <trkpt lat="59.9834783" lon="17.737943">
        <ele>27.0543</ele>
        <time>2014-06-21T08:09:03Z</time>
      </trkpt>
      <trkpt lat="59.9834527" lon="17.737948">
        <ele>27.0543</ele>
        <time>2014-06-21T08:09:04Z</time>
      </trkpt>
      <trkpt lat="59.9834284" lon="17.7379495">
        <ele>27.0543</ele>
        <time>2014-06-21T08:09:05Z</time>
      </trkpt>
      <trkpt lat="59.98341" lon="17.7379496">
        <ele>26.5736</ele>
        <time>2014-06-21T08:09:06Z</time>
      </trkpt>
      <trkpt lat="59.9833851" lon="17.7379614">
        <ele>26.0929</ele>
        <time>2014-06-21T08:09:07Z</time>
      </trkpt>
      <trkpt lat="59.9833578" lon="17.737977">
        <ele>25.6123</ele>
        <time>2014-06-21T08:09:08Z</time>
      </trkpt>
      <trkpt lat="59.9833348" lon="17.7379868">
        <ele>25.1317</ele>
        <time>2014-06-21T08:09:09Z</time>
      </trkpt>
      <trkpt lat="59.9833081" lon="17.7379935">
        <ele>24.651</ele>
        <time>2014-06-21T08:09:10Z</time>
      </trkpt>
      <trkpt lat="59.9832856" lon="17.7379847">
        <ele>24.1703</ele>
        <time>2014-06-21T08:09:11Z</time>
      </trkpt>
      <trkpt lat="59.983263" lon="17.7379764">
        <ele>23.6896</ele>
        <time>2014-06-21T08:09:12Z</time>
      </trkpt>
      <trkpt lat="59.9832405" lon="17.7379679">
        <ele>23.209</ele>
        <time>2014-06-21T08:09:13Z</time>
      </trkpt>
      <trkpt lat="59.9832154" lon="17.7379681">
        <ele>22.2476</ele>
        <time>2014-06-21T08:09:14Z</time>
      </trkpt>
      <trkpt lat="59.9831884" lon="17.737979">
        <ele>22.2476</ele>
        <time>2014-06-21T08:09:15Z</time>
      </trkpt>
      <trkpt lat="59.9831667" lon="17.7379919">
        <ele>21.2864</ele>
        <time>2014-06-21T08:09:16Z</time>
      </trkpt>
      <trkpt lat="59.9831488" lon="17.7380013">
        <ele>20.325</ele>
        <time>2014-06-21T08:09:17Z</time>
      </trkpt>
      <trkpt lat="59.9831283" lon="17.7379974">
        <ele>19.8444</ele>
        <time>2014-06-21T08:09:18Z</time>
      </trkpt>
      <trkpt lat="59.9831003" lon="17.7379987">
        <ele>19.8444</ele>
        <time>2014-06-21T08:09:19Z</time>
      </trkpt>
      <trkpt lat="59.9830751" lon="17.7379965">
        <ele>19.3638</ele>
        <time>2014-06-21T08:09:20Z</time>
      </trkpt>
      <trkpt lat="59.983052" lon="17.7379894">
        <ele>19.3638</ele>
        <time>2014-06-21T08:09:21Z</time>
      </trkpt>
      <trkpt lat="59.9830299" lon="17.7379857">
        <ele>18.8831</ele>
        <time>2014-06-21T08:09:22Z</time>
      </trkpt>
      <trkpt lat="59.9830071" lon="17.7379832">
        <ele>18.4023</ele>
        <time>2014-06-21T08:09:23Z</time>
      </trkpt>
      <trkpt lat="59.9829834" lon="17.737979">
        <ele>17.9218</ele>
        <time>2014-06-21T08:09:24Z</time>
      </trkpt>
      <trkpt lat="59.9829564" lon="17.7379801">
        <ele>17.9218</ele>
        <time>2014-06-21T08:09:25Z</time>
      </trkpt>
      <trkpt lat="59.982931" lon="17.7379749">
        <ele>17.9218</ele>
        <time>2014-06-21T08:09:26Z</time>
      </trkpt>
      <trkpt lat="59.9829074" lon="17.7379684">
        <ele>17.9218</ele>
        <time>2014-06-21T08:09:27Z</time>
      </trkpt>
      <trkpt lat="59.9828859" lon="17.7379539">
        <ele>17.9218</ele>
        <time>2014-06-21T08:09:28Z</time>
      </trkpt>
      <trkpt lat="59.9828631" lon="17.7379391">
        <ele>17.9218</ele>
        <time>2014-06-21T08:09:29Z</time>
      </trkpt>
      <trkpt lat="59.9828425" lon="17.7379301">
        <ele>17.9218</ele>
        <time>2014-06-21T08:09:30Z</time>
      </trkpt>
      <trkpt lat="59.98282" lon="17.7379235">
        <ele>17.9218</ele>
        <time>2014-06-21T08:09:31Z</time>
      </trkpt>
      <trkpt lat="59.9827984" lon="17.7379239">
        <ele>17.9218</ele>
        <time>2014-06-21T08:09:32Z</time>
      </trkpt>
      <trkpt lat="59.9827749" lon="17.7379301">
        <ele>18.4023</ele>
        <time>2014-06-21T08:09:33Z</time>
      </trkpt>
      <trkpt lat="59.9827467" lon="17.737937">
        <ele>18.8831</ele>
        <time>2014-06-21T08:09:34Z</time>
      </trkpt>
      <trkpt lat="59.9827139" lon="17.7379482">
        <ele>19.3638</ele>
        <time>2014-06-21T08:09:35Z</time>
      </trkpt>
      <trkpt lat="59.9826802" lon="17.7379596">
        <ele>19.8444</ele>
        <time>2014-06-21T08:09:36Z</time>
      </trkpt>
      <trkpt lat="59.982645" lon="17.7379757">
        <ele>19.8444</ele>
        <time>2014-06-21T08:09:37Z</time>
      </trkpt>
      <trkpt lat="59.9826077" lon="17.7379931">
        <ele>20.8057</ele>
        <time>2014-06-21T08:09:38Z</time>
      </trkpt>
      <trkpt lat="59.9825812" lon="17.7379904">
        <ele>21.2864</ele>
        <time>2014-06-21T08:09:39Z</time>
      </trkpt>
      <trkpt lat="59.982554" lon="17.7379926">
        <ele>21.2864</ele>
        <time>2014-06-21T08:09:40Z</time>
      </trkpt>
      <trkpt lat="59.9825248" lon="17.7379965">
        <ele>21.2864</ele>
        <time>2014-06-21T08:09:41Z</time>
      </trkpt>
      <trkpt lat="59.9824979" lon="17.7379976">
        <ele>21.2864</ele>
        <time>2014-06-21T08:09:42Z</time>
      </trkpt>
      <trkpt lat="59.982469" lon="17.7380063">
        <ele>21.767</ele>
        <time>2014-06-21T08:09:43Z</time>
      </trkpt>
      <trkpt lat="59.982443" lon="17.7380119">
        <ele>21.767</ele>
        <time>2014-06-21T08:09:44Z</time>
      </trkpt>
      <trkpt lat="59.9824182" lon="17.7379852">
        <ele>22.2476</ele>
        <time>2014-06-21T08:09:45Z</time>
      </trkpt>
      <trkpt lat="59.9823891" lon="17.7379851">
        <ele>22.2476</ele>
        <time>2014-06-21T08:09:46Z</time>
      </trkpt>
      <trkpt lat="59.9823618" lon="17.737994">
        <ele>22.2476</ele>
        <time>2014-06-21T08:09:47Z</time>
      </trkpt>
      <trkpt lat="59.9823296" lon="17.7380329">
        <ele>22.2476</ele>
        <time>2014-06-21T08:09:48Z</time>
      </trkpt>
      <trkpt lat="59.9823001" lon="17.7380558">
        <ele>22.2476</ele>
        <time>2014-06-21T08:09:49Z</time>
      </trkpt>
      <trkpt lat="59.9822679" lon="17.7380698">
        <ele>23.209</ele>
        <time>2014-06-21T08:09:50Z</time>
      </trkpt>
      <trkpt lat="59.982241" lon="17.7380684">
        <ele>23.209</ele>
        <time>2014-06-21T08:09:51Z</time>
      </trkpt>
      <trkpt lat="59.9822107" lon="17.7380764">
        <ele>23.6896</ele>
        <time>2014-06-21T08:09:52Z</time>
      </trkpt>
      <trkpt lat="59.9821812" lon="17.7380779">
        <ele>23.6896</ele>
        <time>2014-06-21T08:09:53Z</time>
      </trkpt>
      <trkpt lat="59.9821492" lon="17.7380919">
        <ele>24.1703</ele>
        <time>2014-06-21T08:09:54Z</time>
      </trkpt>
      <trkpt lat="59.9821192" lon="17.7381106">
        <ele>24.651</ele>
        <time>2014-06-21T08:09:55Z</time>
      </trkpt>
      <trkpt lat="59.98209" lon="17.7381233">
        <ele>24.651</ele>
        <time>2014-06-21T08:09:56Z</time>
      </trkpt>
      <trkpt lat="59.9820636" lon="17.7381148">
        <ele>24.1703</ele>
        <time>2014-06-21T08:09:57Z</time>
      </trkpt>
      <trkpt lat="59.9820364" lon="17.7381138">
        <ele>24.1703</ele>
        <time>2014-06-21T08:09:58Z</time>
      </trkpt>
      <trkpt lat="59.9820119" lon="17.7381214">
        <ele>23.6896</ele>
        <time>2014-06-21T08:09:59Z</time>
      </trkpt>
      <trkpt lat="59.9819869" lon="17.7381313">
        <ele>23.6896</ele>
        <time>2014-06-21T08:10:00Z</time>
      </trkpt>
      <trkpt lat="59.9819643" lon="17.7381376">
        <ele>23.6896</ele>
        <time>2014-06-21T08:10:01Z</time>
      </trkpt>
      <trkpt lat="59.9819306" lon="17.7381531">
        <ele>25.1317</ele>
        <time>2014-06-21T08:10:02Z</time>
      </trkpt>
      <trkpt lat="59.9818934" lon="17.7381752">
        <ele>26.0929</ele>
        <time>2014-06-21T08:10:03Z</time>
      </trkpt>
      <trkpt lat="59.9818556" lon="17.7382135">
        <ele>27.5349</ele>
        <time>2014-06-21T08:10:04Z</time>
      </trkpt>
      <trkpt lat="59.9818187" lon="17.7382487">
        <ele>28.9769</ele>
        <time>2014-06-21T08:10:05Z</time>
      </trkpt>
      <trkpt lat="59.9817912" lon="17.7382694">
        <ele>28.9769</ele>
        <time>2014-06-21T08:10:06Z</time>
      </trkpt>
      <trkpt lat="59.9817686" lon="17.7382784">
        <ele>28.9769</ele>
        <time>2014-06-21T08:10:07Z</time>
      </trkpt>
      <trkpt lat="59.9817474" lon="17.7382875">
        <ele>28.4962</ele>
        <time>2014-06-21T08:10:08Z</time>
      </trkpt>
      <trkpt lat="59.981724" lon="17.7382945">
        <ele>28.4962</ele>
        <time>2014-06-21T08:10:09Z</time>
      </trkpt>
      <trkpt lat="59.9816992" lon="17.7382944">
        <ele>28.0155</ele>
        <time>2014-06-21T08:10:10Z</time>
      </trkpt>
      <trkpt lat="59.9816748" lon="17.7383012">
        <ele>28.0155</ele>
        <time>2014-06-21T08:10:11Z</time>
      </trkpt>
      <trkpt lat="59.9816525" lon="17.7383021">
        <ele>27.5349</ele>
        <time>2014-06-21T08:10:12Z</time>
      </trkpt>
      <trkpt lat="59.9816282" lon="17.7383047">
        <ele>27.0543</ele>
        <time>2014-06-21T08:10:13Z</time>
      </trkpt>
      <trkpt lat="59.9816036" lon="17.7383085">
        <ele>26.5736</ele>
        <time>2014-06-21T08:10:14Z</time>
      </trkpt>
      <trkpt lat="59.9815785" lon="17.7383091">
        <ele>26.5736</ele>
        <time>2014-06-21T08:10:15Z</time>
      </trkpt>
      <trkpt lat="59.9815529" lon="17.7383108">
        <ele>26.0929</ele>
        <time>2014-06-21T08:10:16Z</time>
      </trkpt>
      <trkpt lat="59.9815245" lon="17.73833">
        <ele>26.0929</ele>
        <time>2014-06-21T08:10:17Z</time>
      </trkpt>
      <trkpt lat="59.9814997" lon="17.7383456">
        <ele>25.6123</ele>
        <time>2014-06-21T08:10:18Z</time>
      </trkpt>
      <trkpt lat="59.9814785" lon="17.7383578">
        <ele>25.1317</ele>
        <time>2014-06-21T08:10:19Z</time>
      </trkpt>
      <trkpt lat="59.9814535" lon="17.7383711">
        <ele>24.651</ele>
        <time>2014-06-21T08:10:20Z</time>
      </trkpt>
      <trkpt lat="59.981428" lon="17.7383855">
        <ele>24.1703</ele>
        <time>2014-06-21T08:10:21Z</time>
      </trkpt>
      <trkpt lat="59.9814058" lon="17.738396">
        <ele>23.6896</ele>
        <time>2014-06-21T08:10:22Z</time>
      </trkpt>
      <trkpt lat="59.9813795" lon="17.73841">
        <ele>22.7283</ele>
        <time>2014-06-21T08:10:23Z</time>
      </trkpt>
      <trkpt lat="59.9813517" lon="17.7384286">
        <ele>22.7283</ele>
        <time>2014-06-21T08:10:24Z</time>
      </trkpt>
      <trkpt lat="59.981324" lon="17.7384572">
        <ele>22.2476</ele>
        <time>2014-06-21T08:10:25Z</time>
      </trkpt>
      <trkpt lat="59.9813001" lon="17.7384761">
        <ele>21.767</ele>
        <time>2014-06-21T08:10:26Z</time>
      </trkpt>
      <trkpt lat="59.9812758" lon="17.7385064">
        <ele>21.767</ele>
        <time>2014-06-21T08:10:27Z</time>
      </trkpt>
      <trkpt lat="59.9812542" lon="17.7385343">
        <ele>21.2864</ele>
        <time>2014-06-21T08:10:28Z</time>
      </trkpt>
      <trkpt lat="59.9812319" lon="17.7385517">
        <ele>20.8057</ele>
        <time>2014-06-21T08:10:29Z</time>
      </trkpt>
      <trkpt lat="59.9812092" lon="17.7385665">
        <ele>20.325</ele>
        <time>2014-06-21T08:10:30Z</time>
      </trkpt>
      <trkpt lat="59.9811853" lon="17.7385779">
        <ele>19.3638</ele>
        <time>2014-06-21T08:10:31Z</time>
      </trkpt>
      <trkpt lat="59.9811618" lon="17.7385821">
        <ele>18.8831</ele>
        <time>2014-06-21T08:10:32Z</time>
      </trkpt>
      <trkpt lat="59.9811355" lon="17.7385907">
        <ele>18.8831</ele>
        <time>2014-06-21T08:10:33Z</time>
      </trkpt>
      <trkpt lat="59.9811134" lon="17.7385856">
        <ele>18.4023</ele>
        <time>2014-06-21T08:10:34Z</time>
      </trkpt>
      <trkpt lat="59.981089" lon="17.7385926">
        <ele>18.4023</ele>
        <time>2014-06-21T08:10:35Z</time>
      </trkpt>
      <trkpt lat="59.9810552" lon="17.7385964">
        <ele>19.3638</ele>
        <time>2014-06-21T08:10:36Z</time>
      </trkpt>
      <trkpt lat="59.9810341" lon="17.7385954">
        <ele>19.3638</ele>
        <time>2014-06-21T08:10:37Z</time>
      </trkpt>
      <trkpt lat="59.9810123" lon="17.7386007">
        <ele>18.4023</ele>
        <time>2014-06-21T08:10:38Z</time>
      </trkpt>
      <trkpt lat="59.9809873" lon="17.7386061">
        <ele>17.9218</ele>
        <time>2014-06-21T08:10:39Z</time>
      </trkpt>
      <trkpt lat="59.9809641" lon="17.7386018">
        <ele>17.9218</ele>
        <time>2014-06-21T08:10:40Z</time>
      </trkpt>
      <trkpt lat="59.9809385" lon="17.7386069">
        <ele>17.4412</ele>
        <time>2014-06-21T08:10:41Z</time>
      </trkpt>
      <trkpt lat="59.9809138" lon="17.738611">
        <ele>17.4412</ele>
        <time>2014-06-21T08:10:42Z</time>
      </trkpt>
      <trkpt lat="59.9808889" lon="17.7386167">
        <ele>16.4797</ele>
        <time>2014-06-21T08:10:43Z</time>
      </trkpt>
      <trkpt lat="59.9808653" lon="17.7386152">
        <ele>15.999</ele>
        <time>2014-06-21T08:10:44Z</time>
      </trkpt>
      <trkpt lat="59.9808393" lon="17.7386208">
        <ele>15.5184</ele>
        <time>2014-06-21T08:10:45Z</time>
      </trkpt>
      <trkpt lat="59.9808147" lon="17.7386242">
        <ele>15.0377</ele>
        <time>2014-06-21T08:10:46Z</time>
      </trkpt>
      <trkpt lat="59.9807925" lon="17.7386307">
        <ele>14.557</ele>
        <time>2014-06-21T08:10:47Z</time>
      </trkpt>
      <trkpt lat="59.9807601" lon="17.7386439">
        <ele>15.999</ele>
        <time>2014-06-21T08:10:48Z</time>
      </trkpt>
      <trkpt lat="59.9807349" lon="17.7386462">
        <ele>15.5184</ele>
        <time>2014-06-21T08:10:49Z</time>
      </trkpt>
      <trkpt lat="59.9807111" lon="17.7386382">
        <ele>15.0377</ele>
        <time>2014-06-21T08:10:50Z</time>
      </trkpt>
      <trkpt lat="59.9806812" lon="17.7386281">
        <ele>15.999</ele>
        <time>2014-06-21T08:10:51Z</time>
      </trkpt>
      <trkpt lat="59.9806517" lon="17.7386315">
        <ele>16.9604</ele>
        <time>2014-06-21T08:10:52Z</time>
      </trkpt>
      <trkpt lat="59.9806284" lon="17.7386395">
        <ele>16.9604</ele>
        <time>2014-06-21T08:10:53Z</time>
      </trkpt>
      <trkpt lat="59.9806016" lon="17.7386538">
        <ele>16.9604</ele>
        <time>2014-06-21T08:10:54Z</time>
      </trkpt>
      <trkpt lat="59.9805745" lon="17.7386699">
        <ele>16.4797</ele>
        <time>2014-06-21T08:10:55Z</time>
      </trkpt>
      <trkpt lat="59.9805456" lon="17.7386814">
        <ele>15.999</ele>
        <time>2014-06-21T08:10:56Z</time>
      </trkpt>
      <trkpt lat="59.9805175" lon="17.7386891">
        <ele>15.999</ele>
        <time>2014-06-21T08:10:57Z</time>
      </trkpt>
      <trkpt lat="59.9804936" lon="17.7386895">
        <ele>15.5184</ele>
        <time>2014-06-21T08:10:58Z</time>
      </trkpt>
      <trkpt lat="59.9804735" lon="17.7386773">
        <ele>15.0377</ele>
        <time>2014-06-21T08:10:59Z</time>
      </trkpt>
      <trkpt lat="59.9804474" lon="17.7386844">
        <ele>15.0377</ele>
        <time>2014-06-21T08:11:00Z</time>
      </trkpt>
      <trkpt lat="59.9804247" lon="17.7386875">
        <ele>14.557</ele>
        <time>2014-06-21T08:11:01Z</time>
      </trkpt>
      <trkpt lat="59.980404" lon="17.738682">
        <ele>14.0764</ele>
        <time>2014-06-21T08:11:02Z</time>
      </trkpt>
      <trkpt lat="59.9803754" lon="17.7386791">
        <ele>14.0764</ele>
        <time>2014-06-21T08:11:03Z</time>
      </trkpt>
      <trkpt lat="59.9803498" lon="17.738668">
        <ele>13.5958</ele>
        <time>2014-06-21T08:11:04Z</time>
      </trkpt>
      <trkpt lat="59.9803238" lon="17.7386722">
        <ele>13.5958</ele>
        <time>2014-06-21T08:11:05Z</time>
      </trkpt>
      <trkpt lat="59.9802983" lon="17.7386792">
        <ele>13.1151</ele>
        <time>2014-06-21T08:11:06Z</time>
      </trkpt>
      <trkpt lat="59.9802715" lon="17.7386893">
        <ele>13.5958</ele>
        <time>2014-06-21T08:11:07Z</time>
      </trkpt>
      <trkpt lat="59.9802438" lon="17.7386814">
        <ele>13.5958</ele>
        <time>2014-06-21T08:11:08Z</time>
      </trkpt>
      <trkpt lat="59.980215" lon="17.7386608">
        <ele>13.5958</ele>
        <time>2014-06-21T08:11:09Z</time>
      </trkpt>
      <trkpt lat="59.9801876" lon="17.7386601">
        <ele>13.5958</ele>
        <time>2014-06-21T08:11:10Z</time>
      </trkpt>
      <trkpt lat="59.9801658" lon="17.7386522">
        <ele>13.1151</ele>
        <time>2014-06-21T08:11:11Z</time>
      </trkpt>
      <trkpt lat="59.9801416" lon="17.7386439">
        <ele>13.5958</ele>
        <time>2014-06-21T08:11:12Z</time>
      </trkpt>
      <trkpt lat="59.980114" lon="17.7386442">
        <ele>13.5958</ele>
        <time>2014-06-21T08:11:13Z</time>
      </trkpt>
      <trkpt lat="59.9800855" lon="17.7386453">
        <ele>13.5958</ele>
        <time>2014-06-21T08:11:14Z</time>
      </trkpt>
      <trkpt lat="59.9800524" lon="17.7386446">
        <ele>14.557</ele>
        <time>2014-06-21T08:11:15Z</time>
      </trkpt>
      <trkpt lat="59.9800203" lon="17.7386492">
        <ele>15.0377</ele>
        <time>2014-06-21T08:11:16Z</time>
      </trkpt>
      <trkpt lat="59.9799841" lon="17.7386613">
        <ele>15.5184</ele>
        <time>2014-06-21T08:11:17Z</time>
      </trkpt>
      <trkpt lat="59.9799534" lon="17.7386691">
        <ele>15.5184</ele>
        <time>2014-06-21T08:11:18Z</time>
      </trkpt>
      <trkpt lat="59.9799151" lon="17.7386663">
        <ele>17.9218</ele>
        <time>2014-06-21T08:11:19Z</time>
      </trkpt>
      <trkpt lat="59.9798793" lon="17.738665">
        <ele>19.8444</ele>
        <time>2014-06-21T08:11:20Z</time>
      </trkpt>
      <trkpt lat="59.979842" lon="17.7386768">
        <ele>21.767</ele>
        <time>2014-06-21T08:11:21Z</time>
      </trkpt>
      <trkpt lat="59.9798077" lon="17.7386907">
        <ele>23.209</ele>
        <time>2014-06-21T08:11:22Z</time>
      </trkpt>
      <trkpt lat="59.97978" lon="17.738699">
        <ele>23.209</ele>
        <time>2014-06-21T08:11:23Z</time>
      </trkpt>
      <trkpt lat="59.9797431" lon="17.7387202">
        <ele>24.1703</ele>
        <time>2014-06-21T08:11:24Z</time>
      </trkpt>
      <trkpt lat="59.9797064" lon="17.73874">
        <ele>25.6123</ele>
        <time>2014-06-21T08:11:25Z</time>
      </trkpt>
      <trkpt lat="59.9796721" lon="17.7387591">
        <ele>26.5736</ele>
        <time>2014-06-21T08:11:26Z</time>
      </trkpt>
      <trkpt lat="59.9796431" lon="17.7387824">
        <ele>27.5349</ele>
        <time>2014-06-21T08:11:27Z</time>
      </trkpt>
      <trkpt lat="59.979614" lon="17.7388081">
        <ele>28.0155</ele>
        <time>2014-06-21T08:11:28Z</time>
      </trkpt>
      <trkpt lat="59.9795831" lon="17.7388318">
        <ele>28.9769</ele>
        <time>2014-06-21T08:11:29Z</time>
      </trkpt>
      <trkpt lat="59.9795547" lon="17.7388488">
        <ele>29.4575</ele>
        <time>2014-06-21T08:11:30Z</time>
      </trkpt>
      <trkpt lat="59.9795249" lon="17.7388674">
        <ele>29.9381</ele>
        <time>2014-06-21T08:11:31Z</time>
      </trkpt>
      <trkpt lat="59.9794955" lon="17.7388855">
        <ele>30.4188</ele>
        <time>2014-06-21T08:11:32Z</time>
      </trkpt>
      <trkpt lat="59.979466" lon="17.7389084">
        <ele>30.4188</ele>
        <time>2014-06-21T08:11:33Z</time>
      </trkpt>
      <trkpt lat="59.9794321" lon="17.7389408">
        <ele>30.8995</ele>
        <time>2014-06-21T08:11:34Z</time>
      </trkpt>
      <trkpt lat="59.9794032" lon="17.7389558">
        <ele>30.8995</ele>
        <time>2014-06-21T08:11:35Z</time>
      </trkpt>
      <trkpt lat="59.9793753" lon="17.7389704">
        <ele>30.8995</ele>
        <time>2014-06-21T08:11:36Z</time>
      </trkpt>
      <trkpt lat="59.9793446" lon="17.7389896">
        <ele>31.3801</ele>
        <time>2014-06-21T08:11:37Z</time>
      </trkpt>
      <trkpt lat="59.9793147" lon="17.7390089">
        <ele>31.8607</ele>
        <time>2014-06-21T08:11:38Z</time>
      </trkpt>
      <trkpt lat="59.9792868" lon="17.7390222">
        <ele>32.3416</ele>
        <time>2014-06-21T08:11:39Z</time>
      </trkpt>
      <trkpt lat="59.9792561" lon="17.7390464">
        <ele>32.8223</ele>
        <time>2014-06-21T08:11:40Z</time>
      </trkpt>
      <trkpt lat="59.9792258" lon="17.7390728">
        <ele>33.3029</ele>
        <time>2014-06-21T08:11:41Z</time>
      </trkpt>
      <trkpt lat="59.9791973" lon="17.7390901">
        <ele>33.7834</ele>
        <time>2014-06-21T08:11:42Z</time>
      </trkpt>
      <trkpt lat="59.9791681" lon="17.7391029">
        <ele>33.7834</ele>
        <time>2014-06-21T08:11:43Z</time>
      </trkpt>
      <trkpt lat="59.979138" lon="17.7391086">
        <ele>34.2642</ele>
        <time>2014-06-21T08:11:44Z</time>
      </trkpt>
      <trkpt lat="59.9791058" lon="17.7391262">
        <ele>34.2642</ele>
        <time>2014-06-21T08:11:45Z</time>
      </trkpt>
      <trkpt lat="59.9790778" lon="17.7391393">
        <ele>33.7834</ele>
        <time>2014-06-21T08:11:46Z</time>
      </trkpt>
      <trkpt lat="59.9790488" lon="17.7391632">
        <ele>34.2642</ele>
        <time>2014-06-21T08:11:47Z</time>
      </trkpt>
      <trkpt lat="59.9790193" lon="17.7391826">
        <ele>34.2642</ele>
        <time>2014-06-21T08:11:48Z</time>
      </trkpt>
      <trkpt lat="59.9789899" lon="17.7391952">
        <ele>33.7834</ele>
        <time>2014-06-21T08:11:49Z</time>
      </trkpt>
      <trkpt lat="59.9789687" lon="17.7392144">
        <ele>33.7834</ele>
        <time>2014-06-21T08:11:50Z</time>
      </trkpt>
    </trkseg>
  </trk>
</gpx>